[[[{"header":{"parameterUnit":"kt","parameterCategory":2,"dx":1,"dy":1,"la1":29.285339999999998,"la2":30.599998999999997,"lo1":-89.70041500000002,"lo2":-87.6738589999976,"nx":112,"ny":82,"refTime":"2022-10-01T00:00:00:Z","depth":0,"parameterNumber":1,"parameterNumberName":"U-component_of_WINDS"},"data":[3.2177,3.0333,2.8307,2.7165,2.8038,2.9121,2.8973,2.8382,2.7788,2.7679,2.6721,2.5996,2.6035,2.5541,2.4891,0.0,0.0,0.0,0.0,2.0886,1.9184,1.6968,1.6561,1.5813,1.434,1.5387,1.635,1.6745,1.7312,1.6831,1.4886,1.097,0.7931,0.607,0.2127,0.0,0.0,0.0,0.0,0.0,0.0,0.0,0.0,0.0,0.0,0.0,0.0,0.0,0.0,0.0,0.0,0.0,0.0,0.0,0.0,0.0,0.0,0.0,0.0,0.0,0.0,0.0,0.0,0.0,0.0,0.0,0.0,0.0,0.0,0.0,0.0,0.0,0.0,0.0,0.0,0.0,0.0,0.0,0.0,0.0,0.0,0.0,0.0,0.0,0.0,0.0,0.0,0.0,0.0,0.0,0.0,0.0,0.0,0.0,0.0,0.0,0.2266,0.7701,1.7138,2.2517,2.2517,2.2517,2.2517,2.2517,2.2517,2.2517,2.2517,2.2517,2.2517,2.2517,2.2517,2.2517,3.0029,2.8525,2.719,2.6178,2.7243,2.8428,2.7944,2.745,2.6983,2.6633,2.5931,2.5229,2.463,2.4563,0.0,0.0,0.0,0.0,0.0,2.0796,1.9393,1.7066,1.6452,1.5779,1.4763,1.5805,1.6653,1.6996,1.7577,1.6575,1.3591,1.0419,0.7347,0.4381,0.1487,0.0,0.0,0.0,0.0,0.0,0.0,0.0,0.0,0.0,0.0,0.0,0.0,0.0,0.0,0.0,0.0,0.0,0.0,0.0,0.0,0.0,0.0,0.0,0.0,0.0,0.0,0.0,0.0,0.0,0.0,0.0,0.0,0.0,0.0,0.0,0.0,0.0,0.0,0.0,0.0,0.0,0.0,0.0,0.0,0.0,0.0,0.0,0.0,0.0,0.0,0.0,0.0,0.0,0.0,0.0,0.0,0.0,0.46,0.5586,0.0425,0.4668,0.7631,0.7631,1.6998,2.2517,2.2517,2.2517,2.2517,2.2517,2.2517,2.2517,2.2517,2.2517,2.2517,2.2517,2.2517,2.2517,2.8031,2.7399,2.7222,2.6557,2.6865,2.7191,2.6539,2.641,2.6113,2.5084,2.4887,2.4667,2.4084,2.3944,2.3243,0.0,2.2508,0.0,0.0,2.1057,2.0256,1.7317,1.5658,1.4886,1.5163,1.6007,1.6759,1.7285,1.7642,1.6519,1.3431,1.0419,0.7352,0.4209,0.1427,0.0,0.0,0.0,0.0,0.0,0.0,0.0,0.0,0.0,0.0,0.0,0.0,0.0,0.0,0.0,0.0,0.0,0.0,0.0,0.0,0.0,0.0,0.0,0.0,0.0,0.0,0.0,0.0,0.0,0.0,0.0,0.0,0.0,0.0,0.0,0.0,0.0,0.0,0.0,0.0,0.0,0.0,0.0,0.0,0.0,0.0,0.0,0.0,0.0,0.0,0.0,0.0,0.0,0.0,0.0,0.0,0.0,1.3111,1.5866,0.1275,1.383,2.2307,2.1875,2.2307,2.2517,2.2517,2.2517,2.2517,2.2517,2.2517,2.2517,2.2517,2.2517,2.2517,2.2517,2.2517,2.2517,2.8715,2.7169,2.6013,2.5472,2.571,2.61,2.5905,2.558,2.524,2.4939,2.4887,0.0,0.0,0.0,2.4983,2.436,0.0,2.277,2.1986,2.0926,1.9695,1.8218,1.6105,1.4965,1.5405,1.6679,1.7472,1.7324,1.7642,1.5644,1.0593,0.9344,0.6409,0.1309,0.0419,0.0,0.0,0.0,0.0,0.0,0.0,0.0,0.0,0.0,0.0,0.0,0.0,0.0,0.0,0.0,0.0,0.0,0.0,0.0,0.0,0.0,0.0,0.0,0.0,0.0,0.0,0.0,0.0,0.0,0.0,0.0,0.0,0.0,0.0,0.0,0.0,0.0,0.0,0.0,0.0,0.0,0.0,0.0,0.0,0.0,0.0,0.0,0.0,0.0,0.0,0.0,0.0,0.0,0.0,0.0,0.0,0.0,0.3736,0.4529,0.0355,1.383,1.785,0.6854,1.6507,2.2517,2.2517,2.2517,2.2517,2.2517,2.2517,2.2517,2.2517,2.2517,2.2517,2.2517,2.2517,2.2517,2.7048,2.5724,2.4853,2.4526,2.5099,2.5646,2.5646,2.5399,2.5203,2.5203,0.0,0.0,0.0,0.0,0.0,0.0,2.3714,2.2806,2.2051,2.0297,1.8639,1.7374,1.6204,1.5664,1.6076,1.7207,1.7282,1.5798,1.5858,1.3458,0.7638,0.7058,0.478,0.012,0.0,0.0,0.0,0.0,0.0,0.0,0.0,0.0,0.0,0.0,0.0,0.0,0.0,0.0,0.0,0.0,0.0,0.0,0.0,0.0,0.0,0.0,0.0,0.0,0.0,0.0,0.0,0.0,0.0,0.0,0.0,0.0,0.0,0.0,0.0,0.0,0.0,0.0,0.0,0.0,0.0,0.0,0.0,0.0,0.0,0.0,0.0,0.0,0.0,0.0,0.0,0.0,0.0,0.0,0.0,0.0,0.0,0.0,0.0,0.0,0.0,0.8063,1.1811,0.8881,1.7423,2.2517,2.2517,2.2517,2.2517,2.2517,2.2517,2.2517,2.2517,2.2517,2.2517,2.2517,2.2517,2.2517,2.4619,2.3888,2.3659,2.3789,2.462,2.5425,2.5632,0.0,2.5363,2.5414,0.0,2.5087,2.5087,0.0,0.0,2.3178,2.2938,2.2475,2.1173,1.921,1.7379,1.5903,1.6244,1.6653,1.6956,1.7498,1.6581,1.3606,1.3351,1.0871,0.5078,0.4443,0.2946,0.012,0.0,0.0,0.0,0.0,0.0,0.0,0.0,0.0,0.0,0.0,0.0,0.0,0.0,0.0,0.0,0.0,0.0,0.0,0.0,0.0,0.0,0.0,0.0,0.0,0.0,0.0,0.0,0.0,0.0,0.0,0.0,0.0,0.0,0.0,0.0,0.0,0.0,0.0,0.0,0.0,0.0,0.0,0.0,0.0,0.0,0.0,0.0,0.0,0.0,0.0,0.0,0.0,0.0,0.0589,0.2155,0.0981,0.0,0.0,0.0,0.0,0.0,0.1438,0.6975,1.7764,1.942,1.9995,1.9995,1.9995,2.077,2.2319,2.2521,2.2517,2.2517,2.2517,2.2451,2.2389,2.2389,2.2389,2.6146,2.372,2.2108,2.3044,2.3434,2.398,0.0,0.0,0.0,2.3877,2.2665,2.157,2.157,2.2004,2.2253,2.1944,2.0502,1.9283,1.8775,1.7619,1.6869,1.697,1.6878,1.6956,1.7206,1.7338,1.6233,1.332,1.3093,1.0576,0.4725,0.4326,0.2946,0.012,0.0,0.0,0.0,0.0,0.0,0.0,0.0,0.0,0.0,0.0,0.0,0.0,0.0,0.0,0.0,0.0,0.0,0.0,0.0,0.0,0.0,0.0,0.0,0.0,0.0,0.0,0.0,0.0,0.0,0.0,0.0,0.0,0.0,0.0,0.0,0.0,0.0,0.0,0.0,0.0,0.0,0.0,0.0,0.0,0.0,0.0,0.0,0.0,0.0,0.0,0.0,0.0,0.0,0.4046,1.5361,0.6975,0.0,0.0,0.0,0.0,0.0,1.0352,1.3141,0.4568,0.4219,0.4309,0.4309,0.4309,0.9658,2.0914,2.203,2.2517,2.2517,2.2517,2.203,2.111,2.111,2.111,2.4529,2.2902,2.1997,2.2888,2.3573,0.0,0.0,2.5295,2.4485,2.4077,2.3334,2.2432,2.1315,2.1441,2.1774,2.1774,2.0078,1.8423,1.7461,1.7071,1.6996,1.7285,1.7497,1.7642,1.7787,1.7668,1.6974,1.5548,1.2594,0.8305,0.2454,0.2123,0.1487,0.006,0.0,0.0,0.0,0.0,0.0,0.0,0.0,0.0,0.0,0.0,0.0,0.0,0.0,0.0,0.0,0.0,0.0,0.0,0.0,0.0,0.0,0.0,0.0,0.0,0.0,0.0,0.0,0.0,0.0,0.0,0.0,0.0,0.0,0.0,0.0,0.0,0.0,0.0,0.0,0.0,0.0,0.0,0.0,0.0,0.0,0.0,0.0,0.0,0.0,0.0,0.0,0.0,0.0,0.2482,0.9507,0.4307,0.0,0.0,0.0,0.2808,0.9832,1.6784,1.4833,0.085,0.0,0.0,0.0,0.0,0.3265,1.0222,1.7784,2.1636,2.1636,2.1636,2.1347,2.0768,2.0768,2.0768,2.2167,2.1834,2.2075,2.2914,2.399,0.0,2.5879,2.5766,2.5194,2.381,2.3352,2.2623,2.0831,2.0691,2.0849,2.0921,1.9586,1.8151,1.6962,1.7154,1.7443,1.7561,1.7985,1.8292,1.8292,1.8027,1.7596,1.6995,1.1828,0.6209,0.0294,0.0,0.0,0.0,0.0,0.0,0.0,0.0,0.0,0.0,0.0,0.0,0.0,0.0,0.0,0.0,0.0,0.0,0.0,0.0,0.0,0.0,0.0,0.0,0.0,0.0,0.0,0.0,0.0,0.0,0.0,0.0,0.0,0.0,0.0,0.0,0.0,0.0,0.0,0.0,0.0,0.0,0.0,0.0,0.0,0.0,0.0,0.0,0.0,0.0,0.0,0.0,0.0,0.0,0.0,0.0,0.0,0.0,0.0,0.0,0.0,0.0,0.0,0.5673,1.9595,2.0768,1.4833,0.085,0.0,0.0,0.0,0.0,0.0,0.0,1.1001,1.8098,2.0768,2.0768,2.0768,2.0768,2.0768,2.0768,2.1026,2.0786,2.1151,2.274,2.399,0.0,2.4718,2.3544,2.1993,2.0339,1.8449,1.7046,1.68,1.6779,1.684,1.7103,1.697,1.704,1.7632,1.7763,1.8001,1.8473,1.8354,1.8292,1.8292,1.8027,1.6684,1.3787,1.0579,0.6183,0.0299,0.0,0.0,0.0,0.0,0.0,0.0,0.0,0.0,0.0,0.0,0.0,0.0,0.0,0.0,0.0,0.0,0.0,0.0,0.0,0.0,0.0,0.0,0.0,0.0,0.0,0.0,0.0,0.0,0.0,0.0,0.0,0.0,0.0,0.0,0.0,0.0,0.0,0.0,0.0,0.0,0.0,0.0,0.0,0.0,0.0,0.0,0.0,0.0,0.0,0.0,0.0,0.0,0.0,0.0,0.0,0.0,0.0,0.0,0.0,0.0,0.0,0.0,0.5673,1.9595,2.0768,1.4833,0.085,0.0,0.0,0.0,0.0,0.0,0.0,0.1503,0.8402,2.0768,2.0768,2.0768,2.0768,2.0768,2.0768,2.0124,2.0547,2.1457,2.3174,0.0,0.0,2.4366,2.306,2.1168,1.9282,1.8432,1.7682,1.6371,1.64,1.6614,1.6732,1.689,1.7128,1.7497,1.7895,1.8199,1.8394,1.8604,1.8604,1.8318,1.8173,1.7411,1.5667,1.1296,0.7679,0.5235,0.184,0.0,0.0,0.0,0.0,0.0,0.0,0.0,0.0,0.0,0.0,0.0,0.0,0.0,0.0,0.0,0.0,0.0,0.0,0.0,0.0,0.0,0.0,0.0,0.0,0.0,0.0,0.0,0.0,0.0,0.0,0.0,0.0,0.0,0.0,0.0,0.0,0.0,0.0,0.0,0.0,0.0,0.0,0.0,0.0,0.0,0.0,0.0,0.0,0.0,0.0,0.0,0.0,0.0,0.0,0.0,0.0,0.0,0.0,0.0,0.0,0.7296,1.451,2.0317,1.3344,0.6194,0.0392,0.0,0.0,0.0,0.0,0.0,0.0,0.0,0.2873,0.8662,0.8662,0.8662,0.8863,1.7693,2.1492,1.9604,0.0,0.0,0.0,0.0,0.0,2.2726,2.1818,2.0264,1.8109,1.8172,1.8146,1.6542,1.66,1.6956,1.6983,1.718,1.7351,1.743,1.7853,1.8226,1.8341,1.8657,1.8684,1.8331,1.8212,1.7573,1.6207,1.1523,0.8388,0.7578,0.2756,0.0,0.0,0.0,0.0,0.0,0.0,0.0,0.0,0.0,0.0,0.0,0.0,0.0,0.0,0.0,0.0,0.0,0.0,0.0,0.0,0.0,0.0,0.0,0.0,0.0,0.0,0.0,0.0,0.0,0.0,0.0,0.0,0.0,0.0,0.0,0.0,0.0,0.0,0.0,0.0,0.0,0.0,0.0,0.0,0.0,0.0,0.0,0.0,0.0,0.0,0.0,0.0,0.0,0.0,0.0,0.0,0.0,0.0,0.0,0.0,0.9047,1.5049,1.5049,0.5806,0.0,0.0,0.0,0.0,0.0,0.0,0.0,0.0,0.0,0.0,0.0,0.0,0.0,0.0327,1.5185,2.1822,0.0,0.0,0.0,2.1334,2.1062,1.9986,1.8895,1.8894,1.8437,1.6129,1.6172,1.657,1.6519,1.6732,1.697,1.7259,1.7311,1.7417,1.7789,1.791,1.808,1.8591,1.8433,1.8305,1.8292,1.8027,1.6574,1.3367,1.0415,0.7451,0.4561,0.1627,0.0,0.0,0.0,0.0,0.0,0.0,0.0,0.0,0.0,0.0,0.0,0.0,0.0,0.0,0.0,0.0,0.0,0.0,0.0,0.0,0.0,0.0,0.0,0.0,0.0,0.0,0.0,0.0,0.0,0.0,0.0,0.0,0.0,0.0,0.0,0.0,0.0,0.0,0.0,0.0,0.0,0.0,0.0,0.0,0.0,0.0,0.0,0.0,0.0,0.0,0.0,0.0,0.0,0.0,0.0,0.0,0.0,0.0,0.0,0.0,0.0343,0.0637,0.0637,0.0212,0.0,0.0,0.0,0.0,0.0,0.0,0.0,0.0,0.0,0.0,0.0,0.0,0.0,0.0327,1.4343,2.1412,1.821,1.8659,1.9338,2.0252,1.949,1.8517,1.8475,1.7752,1.6898,1.6125,1.6389,1.6785,1.6785,1.697,1.7206,1.7298,1.7324,1.7351,1.7497,1.7723,1.7988,1.8341,1.8473,1.8525,1.8525,1.8318,1.7625,1.6343,1.3346,1.03,0.7402,0.446,0.1946,0.006,0.0,0.0,0.0,0.0,0.0,0.0,0.0,0.0,0.0,0.0,0.0,0.0,0.0,0.0,0.0,0.0,0.0,0.0,0.0,0.0,0.0,0.0,0.0,0.0,0.0,0.0,0.0,0.0,0.0,0.0,0.0,0.0,0.0,0.0,0.0,0.0,0.0,0.0,0.0,0.0,0.0,0.0,0.0,0.0,0.0,0.0,0.0,0.0,0.0,0.0,0.0,0.0,0.0,0.0,0.0,0.0,0.0,0.0,0.0,0.0,0.0,0.0,0.0,0.0,0.0,0.0,0.0,0.0,0.0,0.0,0.0,0.0,0.0,0.0,0.0,0.0138,0.4823,0.7228,1.8249,1.8727,1.9284,1.9119,1.7933,1.6905,1.7327,1.6737,1.6123,1.6123,1.6534,1.693,1.693,1.7114,1.7324,1.7324,1.7324,1.7324,1.7324,1.7523,1.7802,1.8093,1.8341,1.8525,1.8525,1.8354,1.8173,1.7924,1.4864,1.1765,0.8914,0.5913,0.298,0.0119,0.0,0.0,0.0,0.0,0.0,0.0,0.0,0.0,0.0,0.0,0.0,0.0,0.0,0.0,0.0,0.0,0.0,0.0,0.0,0.0,0.0,0.0,0.0,0.0,0.0,0.0,0.0,0.0,0.0,0.0,0.0,0.0,0.0,0.0,0.0,0.0,0.0,0.0,0.0,0.0,0.0,0.0,0.0,0.0,0.0,0.0,0.0,0.0,0.0,0.0,0.0,0.0,0.0,0.0,0.0,0.0,0.0,0.0,0.4491,0.7469,0.7466,0.2873,0.0,0.0,0.0,0.0,0.0,0.0,0.0,0.0,0.0,0.0,0.0,0.0,0.0,0.0,0.0,0.0,1.9543,1.9396,1.9197,1.8054,1.6459,1.5208,1.5511,1.5875,1.6149,1.6149,1.6561,1.6956,1.6956,1.7127,1.7324,1.7324,1.7324,1.7324,1.7324,1.7324,1.743,1.7816,1.8093,1.8278,1.8318,1.8292,1.8159,1.795,1.5013,1.1916,0.8888,0.6041,0.3104,0.0117,0.0,0.0,0.0,0.0,0.0,0.0,0.0,0.0,0.0,0.0,0.0,0.0,0.0,0.0,0.0,0.0,0.0,0.0,0.0,0.0,0.0,0.0,0.0,0.0,0.0,0.0,0.0,0.0,0.0,0.0,0.0,0.0,0.0,0.0,0.0,0.0,0.0,0.0,0.0,0.0,0.0,0.0,0.0,0.0,0.0,0.0,0.0,0.0,0.0,0.0,0.0,0.0,0.0,0.0,0.0,0.0,0.0,0.0,1.1803,1.9682,1.9682,0.7622,0.0,0.0,0.0,0.0,0.0,0.0,0.0,0.0,0.0,0.0,0.0,0.0,0.0,0.0,0.0,0.0,2.021,2.0285,1.985,1.9141,1.706,1.5208,1.5511,1.602,1.644,1.644,1.6851,1.7206,1.7206,1.7272,1.7324,1.7324,1.7324,1.7324,1.7324,1.7324,1.743,1.7816,1.7921,1.8133,1.8525,1.8226,1.8027,1.8173,1.6932,1.4046,0.8999,0.8037,0.5278,0.0176,0.0,0.0,0.0,0.0,0.0,0.0,0.0,0.0,0.0,0.0,0.0,0.0,0.0,0.0,0.0,0.0,0.0,0.0,0.0,0.0,0.0,0.0,0.0,0.0,0.0,0.0,0.0,0.0,0.0,0.0,0.0,0.0,0.0,0.0,0.0,0.0,0.0,0.0,0.0,0.0,0.0,0.0,0.0,0.0,0.0,0.0,0.0,0.0,0.0,0.0,0.0,0.0,0.0,0.0,0.0,0.0,0.0,0.0,0.3147,0.5267,0.5267,0.2038,0.0,0.0,0.0,0.0,0.0,0.0,0.0,0.0,0.0,0.0,0.0,0.0,0.0,0.0,0.0,0.0,2.3238,2.2563,2.0831,1.9355,1.7145,1.5379,1.5537,1.5981,1.6387,1.6519,1.6759,1.693,1.693,1.7035,1.7127,1.7127,1.7232,1.7324,1.7324,1.7324,1.7377,1.7589,1.7776,1.8027,1.8446,1.8239,1.8107,1.8278,1.6588,1.3608,0.8966,0.7479,0.4677,0.0116,0.0,0.0,0.0,0.0,0.0,0.0,0.0,0.0,0.0,0.0,0.0,0.0,0.0,0.0,0.0,0.0,0.0,0.0,0.0,0.0,0.0,0.0,0.0,0.0,0.0,0.0,0.0,0.0,0.0,0.0,0.0,0.0,0.0,0.0,0.0,0.0327,0.1898,0.229,0.2287,0.2277,0.2276,0.2278,0.2287,0.3522,0.4624,0.4642,0.3795,0.2421,0.0327,0.0,0.0,0.0,0.0,0.0,0.0,0.0,0.0,0.0,0.0,0.0,0.0,0.0,0.0,0.0,0.0,0.0,0.0,0.0,0.0,0.0,0.0,0.0,0.0,0.0,0.0,0.0,0.0,0.3547,2.6696,2.5276,2.2461,2.0083,1.7715,1.6005,1.6046,1.6107,1.6189,1.644,1.648,1.6493,1.6533,1.6732,1.693,1.693,1.7127,1.7324,1.7324,1.7324,1.7324,1.7324,1.7589,1.7908,1.8199,1.8239,1.8252,1.8292,1.5253,1.2042,0.894,0.5899,0.2967,0.0114,0.0,0.0,0.0,0.0,0.0,0.0,0.0,0.0,0.0,0.0,0.0,0.0,0.0,0.0,0.0,0.0,0.0,0.0,0.0,0.0,0.0,0.0,0.0,0.0,0.0,0.0,0.0,0.0,0.0,0.0,0.0,0.0,0.0,0.0,0.0,0.072,0.3729,0.4517,0.4571,0.453,0.5293,0.5823,0.5354,0.7991,1.0364,0.9863,0.8173,0.5295,0.0785,0.0,0.0,0.0,0.0,0.0,0.0,0.0,0.0,0.0,0.0,0.0,0.0,0.0,0.0,0.0,0.0,0.0,0.0,0.0,0.0,0.0,0.0,0.0,0.0,0.0,0.0,0.0,0.1062,0.8016,2.604,2.6619,2.6239,2.504,2.154,1.8501,1.8708,1.7415,1.6136,1.6189,1.6202,1.6268,1.6493,1.6732,1.693,1.693,1.7127,1.7324,1.7324,1.7324,1.7324,1.7324,1.7364,1.7563,1.7895,1.7977,1.8027,1.8278,1.5253,1.2152,0.9248,0.6032,0.2972,0.0112,0.0,0.0,0.0,0.0,0.0,0.0,0.0,0.0,0.0,0.0,0.0,0.0,0.0,0.0,0.0,0.0,0.0,0.0,0.0,0.0,0.0,0.0,0.0,0.0,0.0,0.0,0.0,0.0,0.0,0.0,0.0,0.0,0.0,0.0,0.0,0.0131,0.072,0.0916,0.0915,0.091,0.5385,0.8764,0.5857,0.8041,0.9628,0.6728,0.582,0.4342,0.0653,0.0,0.0,0.0,0.0,0.0,0.0,0.0,0.0,0.0,0.0,0.0,0.0,0.0,0.0,0.0,0.0,0.0,0.0,0.0,0.0,0.0,0.0,0.0,0.0,0.0,0.0,0.0142,0.6404,0.7397,2.9749,2.9927,2.9084,2.7619,2.3978,2.0874,2.129,1.9525,1.8215,1.9511,1.9802,1.9462,1.8425,1.8451,1.8283,1.7113,1.7127,1.7324,1.7324,1.7324,1.7324,1.7324,1.7324,1.743,1.7816,1.7897,1.7974,1.8265,1.5253,1.2833,1.145,0.6844,0.367,0.2285,0.0788,0.0,0.0,0.0,0.0,0.0,0.0,0.0,0.0,0.0,0.0,0.0,0.0,0.0,0.0,0.0,0.0,0.0,0.0,0.0,0.0,0.0,0.0,0.0,0.0,0.0,0.0,0.0,0.0,0.0,0.0,0.0,0.0,0.0,0.0,0.0392,0.2286,0.2743,0.2741,0.2734,0.5337,0.7292,0.5611,0.943,1.2663,1.0936,1.0636,0.9523,0.6079,0.4483,0.2818,0.0353,0.0,0.0,0.0,0.0,0.0,0.0,0.0,0.0,0.0,0.0,0.0,0.0,0.0,0.0,0.0,0.0,0.0,0.0,0.0,0.0,0.0,0.0,0.0993,0.2979,0.4659,0.4874,3.2445,3.2206,3.0892,2.9147,2.6486,2.4201,2.3841,2.2349,2.1599,2.354,2.3513,2.2633,2.1058,2.0447,1.9711,1.8114,1.7539,1.7324,1.7324,1.7324,1.7324,1.7324,1.7324,1.7403,1.7736,1.7816,1.7974,1.8265,1.5253,1.3184,1.2622,0.7297,0.399,0.338,0.117,0.0,0.0,0.0,0.0,0.0,0.0,0.0,0.0,0.0,0.0,0.0,0.0,0.0,0.0,0.0,0.0,0.0,0.0,0.0,0.0,0.0,0.0,0.0,0.0,0.0,0.0,0.0,0.0,0.0,0.0,0.0,0.0,0.0,0.0,0.0654,0.3396,0.4111,0.4307,0.5083,0.5803,0.6393,0.6405,1.0638,1.45,1.4563,1.4518,1.3638,1.1078,0.9084,0.6324,0.19,0.0497,0.0,0.0,0.0,0.0,0.0,0.0,0.0,0.0,0.0,0.0,0.0,0.0,0.0,0.0,0.0,0.0,0.0,0.0,0.0,0.0,0.0851,0.2767,0.5535,0.2622,0.3755,2.9639,3.0685,3.1048,3.0085,3.0163,2.9666,2.6503,2.6092,2.6405,2.6592,2.4765,2.3272,2.3634,2.1789,2.0372,2.0729,1.8849,1.7324,1.7324,1.7324,1.7324,1.7324,1.7324,1.7338,1.7351,1.7697,1.7974,1.8265,1.5253,1.2363,1.0,0.6294,0.3101,0.0491,0.0111,0.0,0.0,0.0,0.0,0.0,0.0,0.0,0.0,0.0,0.0,0.0,0.0,0.0,0.0,0.0,0.0,0.0,0.0,0.0,0.0,0.0,0.0,0.0,0.0,0.0,0.0,0.0,0.0,0.0,0.0,0.0,0.0,0.0,0.0,0.0065,0.0392,0.0458,0.1307,0.4502,0.7691,1.0033,1.004,1.0501,1.1012,1.1238,1.1127,1.1037,1.1196,1.0841,0.9322,0.5698,0.2199,0.0,0.0,0.0,0.0,0.0,0.0,0.0,0.0,0.0,0.0,0.0,0.0,0.0,0.0,0.0,0.0,0.0,0.0,0.0,0.0,0.3476,0.5322,0.5606,0.5297,0.7194,3.2157,3.2074,3.1538,3.2969,3.1952,3.0299,2.9235,2.8955,2.8861,2.8779,2.8527,2.7847,2.6352,2.5846,2.4583,2.1433,2.0365,1.9266,1.7539,1.7167,1.7114,1.7298,1.7167,1.7127,1.7298,1.7417,1.7655,1.8001,1.6587,1.4633,1.1997,0.8731,0.5619,0.265,0.0881,0.0,0.0,0.0,0.0,0.0,0.0,0.0,0.0,0.0,0.0,0.0,0.0,0.0,0.0,0.0,0.0,0.0,0.0,0.0,0.0,0.0,0.0,0.0,0.0,0.0,0.0,0.0,0.0,0.0,0.0,0.0,0.0,0.0,0.0,0.0,0.0,0.1568,0.3526,0.4894,0.6328,0.7301,0.7301,0.8999,0.9901,0.7882,0.9132,0.9882,0.7994,0.9438,0.9707,0.6152,0.4377,0.3665,0.4466,0.1915,0.1774,0.6319,0.2696,0.0,0.0,0.0,0.0,0.0,0.0,0.0,0.0,0.0,0.0,0.0,0.0,0.1134,0.3397,0.4882,0.6791,0.9052,0.9036,0.987,3.2689,3.2646,3.2076,3.3725,3.2776,3.127,3.08,3.1357,3.1738,3.0782,3.0806,3.0399,2.8701,2.8514,2.746,2.3887,2.2293,2.0851,1.8853,1.7672,1.7088,1.7298,1.714,1.7088,1.7298,1.7324,1.743,1.7884,1.7616,1.6325,1.3647,1.0549,0.7478,0.4566,0.1545,0.0,0.0,0.0,0.0,0.0,0.0,0.0,0.0,0.0,0.0,0.0,0.0,0.0,0.0,0.0,0.0,0.0,0.0,0.0,0.0,0.0,0.0,0.0,0.0,0.0,0.0,0.0,0.0,0.0,0.0,0.0,0.0,0.0,0.0,0.0,0.0,0.2612,0.522,0.522,0.522,0.5546,0.6589,0.7977,0.864,0.7188,0.8887,0.9863,0.7457,1.0129,1.137,0.7856,0.8232,0.8908,0.8689,0.4591,0.389,0.9591,0.6106,0.305,0.2341,0.0851,0.0,0.0,0.0,0.0,0.0,0.0,0.0,0.0,0.1134,0.2408,0.3961,0.6219,0.8684,1.129,1.129,1.1846,2.9535,3.1544,3.267,3.1127,3.2603,3.3631,3.0776,3.3308,3.5508,3.2814,3.0595,2.9494,3.0475,2.8889,2.7793,2.8915,2.4885,2.1595,2.1542,1.912,1.7324,1.7324,1.7324,1.7324,1.7324,1.7324,1.743,1.7884,1.7897,1.6686,1.394,1.0818,0.784,0.4959,0.1673,0.0,0.0,0.0,0.0,0.0,0.0,0.0,0.0,0.0,0.0,0.0,0.0,0.0,0.0,0.0,0.0,0.0,0.0,0.0,0.0,0.0,0.0,0.0,0.0,0.0,0.0,0.0,0.0,0.0,0.0,0.0,0.0,0.0,0.0,0.0,0.0,0.2612,0.522,0.522,0.522,0.6194,0.9708,0.7911,0.6685,1.0145,1.0847,1.0946,1.118,1.4129,1.5293,1.1755,1.4428,1.5443,1.17,0.7909,0.6108,0.7449,0.9733,1.0164,0.7742,0.2908,0.0,0.0,0.0,0.0,0.0,0.0,0.0,0.0,0.3678,0.3748,0.0071,0.756,1.122,1.129,1.129,1.3259,3.0512,3.112,3.1812,3.3937,3.4435,3.4304,3.3947,3.5356,3.6022,3.3468,3.2914,3.2759,3.2386,3.1523,3.0387,2.8877,2.5923,2.332,2.1811,1.897,1.7088,1.7298,1.714,1.7101,1.7298,1.7324,1.7364,1.7497,1.751,1.6325,1.3704,1.2613,1.0834,0.816,0.4956,0.3337,0.332,0.1138,0.0,0.0,0.0,0.0,0.0,0.0,0.0,0.0,0.0,0.136,0.3592,0.3592,0.3592,0.333,0.0915,0.0,0.0,0.0,0.0,0.0,0.0,0.0,0.0,0.0,0.0,0.0,0.0,0.0,0.0,0.0,0.0,0.0,0.0,0.085,0.2286,0.4698,0.7221,0.9353,1.0313,0.9821,0.9588,1.0637,0.8955,0.7336,0.7397,1.2645,1.5564,1.1853,1.4507,1.6509,1.5303,1.4098,1.2505,1.0316,0.9302,0.9085,1.004,0.3894,0.1134,0.3676,0.1416,0.0,0.0,0.0,0.1205,0.3819,0.2478,0.5021,1.1565,1.136,1.397,1.8982,1.8982,1.9612,3.1136,3.1639,3.2394,3.5053,3.5183,3.4824,3.5617,3.6519,3.6606,3.4523,3.4565,3.4441,3.2698,3.1892,3.1317,3.0614,2.8078,2.5414,2.3147,2.0423,1.8317,1.7247,1.7088,1.7075,1.7154,1.7259,1.7324,1.7324,1.7417,1.6843,1.5353,1.4155,1.2884,1.1423,0.8271,0.6028,0.4853,0.2874,0.1813,0.1858,0.3054,0.2348,0.0061,0.1298,0.1187,0.0,0.0,0.1983,0.5241,0.5241,0.6037,0.704,0.4829,0.3135,0.196,0.196,0.1112,0.0,0.0,0.0,0.0,0.0,0.0,0.0,0.0,0.0,0.0,0.0,0.0,0.0,0.0,0.0,0.0523,0.2743,0.5075,0.709,0.8238,0.9785,1.0447,0.9025,0.933,0.8898,0.6134,1.1916,1.6147,1.3759,1.6628,1.9077,1.9077,1.7787,1.6529,1.5656,1.2855,1.1727,1.3283,0.6505,0.3114,0.5506,0.2124,0.0,0.0,0.0,0.177,0.5583,0.4738,0.7701,1.4805,1.3822,1.5796,2.0382,2.0382,2.1163,3.1293,3.2675,3.3821,3.4625,3.4966,3.5237,3.5923,3.6789,3.7052,3.5716,3.5593,3.4833,3.2012,3.0842,3.1081,3.3474,3.0821,2.7723,2.5536,2.3251,2.0639,1.7585,1.746,1.742,1.6956,1.7154,1.7324,1.7324,1.7616,1.7948,1.8239,1.5646,1.429,1.47,1.1564,0.8474,0.5553,0.5289,0.5073,0.4906,0.8006,0.628,0.048,0.3705,0.355,0.0676,0.0685,0.271,0.5929,0.5936,0.791,1.0864,1.0878,0.8733,0.5611,0.535,0.32,0.0392,0.0392,0.0196,0.0065,0.0327,0.0196,0.0,0.0,0.0,0.0,0.0,0.0196,0.0327,0.0065,0.0,0.0,0.0,0.0397,0.1663,0.4922,0.8605,1.0324,0.7077,1.1951,1.4397,0.7608,1.2479,1.7198,1.6988,2.0102,2.2517,2.2517,1.9496,1.8647,2.2154,1.9427,1.7188,1.6927,1.0746,0.6638,0.6074,0.276,0.0709,0.0425,0.0638,0.262,0.6356,0.96,1.1572,1.2064,1.5296,1.7058,1.7339,1.7339,1.9181,3.0079,3.0901,3.2073,3.2847,3.4483,3.5772,3.5351,3.5882,3.6048,3.4557,3.5756,3.6304,3.386,3.3764,3.3664,3.2421,3.065,2.913,2.8267,2.5798,2.314,2.0483,2.0433,1.9612,1.7166,1.7154,1.7324,1.7324,1.7377,1.7602,1.7935,1.7487,1.7331,1.7675,1.4798,1.2907,1.2157,0.9661,0.7206,0.4906,0.8006,0.7469,0.3832,0.7021,0.8035,0.7269,0.7294,0.9283,1.2548,1.2752,1.3353,1.4116,1.4261,1.2306,0.8928,0.6263,0.4698,0.4048,0.4048,0.2286,0.0458,0.3135,0.2222,0.0,0.0,0.0,0.0,0.0,0.196,0.3396,0.0719,0.0,0.0,0.0,0.4253,0.8594,0.9395,1.2514,1.5827,1.7832,1.7461,1.63,1.4585,1.8119,2.0242,1.7339,2.0102,2.2517,2.2517,2.1792,2.1582,2.2447,2.1722,2.0032,1.7148,1.792,1.6147,1.0304,0.9107,0.7348,0.4455,0.7066,1.0445,1.4173,1.2275,1.4111,1.9892,1.7909,1.84,2.1233,2.1233,2.1665,3.1479,3.2171,3.2744,3.2371,3.3593,3.4774,3.4336,3.4852,3.5321,3.4876,3.5855,3.6352,3.4852,3.5579,3.5649,3.3417,3.203,3.0584,2.8653,2.6366,2.3957,2.1502,2.0187,1.8777,1.71,1.7022,1.718,1.7311,1.7324,1.7497,1.7884,1.8133,1.8367,1.867,1.728,1.5863,1.443,1.4074,1.2353,0.9252,1.2412,1.1461,0.7111,1.033,1.0971,0.9548,0.9548,1.1509,1.4765,1.4946,1.5938,1.7457,1.7696,1.6688,1.4647,1.1232,0.9962,0.9767,0.8212,0.6393,0.5155,0.704,0.5285,0.2743,0.4307,0.3722,0.2418,0.2418,0.4959,0.7236,0.535,0.4829,0.4847,0.4978,0.802,1.0888,1.1036,1.397,1.666,1.7082,1.8359,1.8837,1.7178,2.0032,2.1875,1.9822,2.1233,2.2517,2.2517,2.2517,2.2517,2.2517,2.2517,2.1735,1.9671,2.1373,2.0032,1.4243,1.3892,1.2205,0.8402,1.0163,1.3049,1.6848,1.4875,1.6708,2.2517,2.0522,2.0522,2.2517,2.2517,2.2517,3.3768,3.4506,3.4532,3.3055,3.2955,3.3263,3.349,3.3903,3.4489,3.5503,3.5718,3.561,3.5185,3.623,3.6704,3.5283,3.3861,3.1762,2.8535,2.6538,2.4527,2.2035,1.9273,1.7374,1.6916,1.6904,1.6996,1.7298,1.7324,1.743,1.7776,1.8067,1.8358,1.8604,1.8881,1.773,1.5141,1.7708,1.7472,1.443,1.7531,1.5981,1.039,1.36,1.36,1.0985,1.0985,1.2686,1.5445,1.5477,1.7211,1.9936,2.0226,2.0358,2.0108,1.7297,1.5967,1.5157,1.2241,1.0943,1.0553,1.1073,0.8928,0.6589,0.9578,0.8407,0.6129,0.6715,0.8993,1.1138,1.0618,1.0488,1.0535,1.0827,1.1276,1.1786,1.2062,1.4901,1.6532,1.3595,1.7971,2.1236,1.8297,2.0452,2.2517,2.2517,2.2517,2.2517,2.2517,2.2517,2.2517,2.2517,2.2517,2.2517,2.2517,2.2517,2.1163,1.7979,1.7198,1.5726,1.3127,1.2416,1.3892,1.7689,1.7769,1.9321,2.2517,2.2517,2.2517,2.2517,2.2517,2.2517,3.4597,3.5326,3.5973,3.5518,3.3778,3.2602,3.3819,3.3235,3.2848,3.4175,3.4638,3.4786,3.4723,3.5183,3.5856,3.6923,3.444,3.2073,3.1137,2.9171,2.695,2.4605,2.2068,1.9493,1.683,1.6785,1.6996,1.7298,1.7324,1.7338,1.7377,1.7763,1.8054,1.8345,1.8591,1.8622,1.8371,1.8797,1.7472,1.443,1.7531,1.7176,1.3768,1.688,1.8075,1.7602,1.7602,1.7922,1.84,1.8641,1.907,1.9572,1.9936,2.0187,2.0335,1.9868,1.7903,1.5481,1.4963,1.289,1.0943,1.3862,1.2501,0.9773,1.0358,1.0098,1.0293,1.3141,1.438,1.4121,1.1268,1.0488,1.0555,1.0821,1.3149,1.5476,1.5929,1.8784,2.1242,2.0925,2.1741,2.2325,2.1792,2.2154,2.2517,2.2517,2.2517,2.2517,2.2517,2.2517,2.2517,2.2517,2.2517,2.2517,2.2517,2.2517,2.2307,2.1735,1.868,1.8119,2.0744,1.7769,1.7839,2.1595,2.1665,2.1945,2.2517,2.2517,2.2517,2.2517,2.2517,2.2517,3.5394,3.7836,3.978,3.8312,3.6632,3.5495,3.617,3.534,3.4595,3.5257,3.4864,3.4433,3.4578,3.4521,3.5272,3.7748,3.4874,3.2727,3.3739,2.9052,2.5315,2.4766,2.1099,1.8173,1.6874,1.6706,1.6877,1.7285,1.7324,1.7324,1.7324,1.7697,1.7988,1.8278,1.8525,1.8736,1.881,1.8954,1.8311,1.6939,1.8371,1.8311,1.6939,1.8371,1.9033,1.9033,1.9033,1.9033,1.9046,1.9178,1.923,1.9257,1.9559,1.9818,1.9901,2.0279,1.945,1.8223,1.8363,1.7376,1.6342,1.7893,1.6073,1.3603,1.549,1.6083,1.6406,1.7958,1.8409,1.8056,1.6628,1.6266,1.6379,1.6885,1.8214,1.9491,1.9857,2.1203,2.2428,2.256,2.2517,2.2517,2.2517,2.2517,2.2517,2.2517,2.2517,2.2517,2.2517,2.2517,2.2517,2.2517,2.2517,2.2517,2.2517,2.2517,2.2517,2.2517,2.0883,2.0744,2.2447,2.0883,2.0813,2.2517,2.2517,2.2517,2.2517,2.2517,2.2517,2.2517,2.2517,2.2517,3.781,0.0,4.3301,4.17,3.9848,3.8537,0.0,3.7329,3.6041,3.6714,3.544,3.425,3.4453,3.4419,3.5087,3.7431,3.479,3.316,3.5184,2.9154,2.4747,2.5188,2.0679,1.7584,1.7822,1.7024,1.6706,1.718,1.7285,1.7324,1.7324,1.7576,1.7882,1.8173,1.8354,1.8539,1.8684,1.8895,1.8968,1.9033,1.9033,1.9033,1.9033,1.9033,1.9033,1.9033,1.9033,1.9033,1.9033,1.9033,1.9033,1.906,1.9283,1.9414,1.9472,2.0029,2.0279,2.0424,2.0648,2.0716,2.0768,2.0768,1.9002,1.7301,1.9982,2.0768,2.0768,2.0768,2.0768,2.0821,2.1058,2.1163,2.1347,2.1914,2.2085,2.223,2.2521,2.2517,2.2517,2.2517,2.2517,2.2517,2.2517,2.2517,2.2517,2.2517,2.2517,2.2517,2.2517,2.2517,2.2517,2.2517,2.2517,2.2517,2.2517,2.2517,2.2517,2.2517,2.2517,2.2517,2.2517,2.2517,2.2517,2.2517,2.2517,2.2517,2.2517,2.2517,2.2517,2.2517,2.2517,2.2517,0.0,4.4514,4.501,4.5955,4.2833,3.9885,4.1226,3.7811,0.0,3.7781,3.6145,3.4212,3.4235,3.5109,3.5674,3.535,3.3679,3.2962,3.4463,3.1218,2.8424,2.7653,2.3392,2.0494,2.0527,1.811,1.6627,1.6943,1.7167,1.7324,1.7324,1.7338,1.7536,1.7924,1.795,1.8173,1.867,1.8697,1.8842,1.9033,1.9033,1.9033,1.9033,1.9033,1.9033,1.9033,1.9033,1.9033,1.9033,1.9033,1.9033,1.9033,1.906,1.923,1.942,1.952,1.9875,2.0398,2.0424,2.0609,2.0768,2.0768,2.0639,2.0446,2.0704,2.0768,2.0768,2.0768,2.0768,2.0782,2.0795,2.1005,2.1294,2.173,2.2008,2.223,2.2521,2.2517,2.2517,2.2517,2.2517,2.2517,2.2517,2.2517,2.2517,2.2517,2.2517,2.2517,2.2517,2.2517,2.2517,2.2517,2.2517,2.2517,2.2517,2.2517,2.2517,2.2517,2.2517,2.2517,2.2517,2.2517,2.2517,2.2517,2.2517,2.2517,2.2517,2.2517,2.2517,2.2517,2.2517,2.2517,4.4406,4.5917,4.6892,4.6709,4.5297,4.3777,4.2985,4.0795,3.8834,3.8526,3.6223,3.4222,3.4222,3.444,3.4883,3.5569,3.4969,3.4505,3.4803,3.2297,2.9477,2.6784,2.2793,1.9619,1.8056,1.7085,1.6614,1.6904,1.7154,1.7324,1.7324,1.7324,1.7364,1.7523,1.7763,1.7961,1.8173,1.8499,1.8736,1.8842,1.8954,1.9033,1.9033,1.9033,1.9033,1.9033,1.9033,1.9033,0.0,1.9033,1.9033,1.9033,1.9033,1.9099,1.9217,1.9401,1.9612,1.9822,2.0068,2.0332,2.0556,2.0556,2.0688,2.0768,2.0768,2.0714,2.0595,2.0793,2.0768,2.0925,2.1281,2.1453,2.1663,2.2138,2.2336,2.2455,2.256,2.2441,2.231,2.231,2.2165,2.2033,2.2033,2.2191,2.231,2.231,2.2468,2.2517,2.2517,2.2517,2.2517,2.2517,2.2517,2.2441,2.2127,2.2033,2.2033,2.2033,2.2033,2.2112,2.2296,2.231,2.2402,2.2586,2.2517,2.2517,2.2517,2.2517,2.2517,2.2517,2.2517,2.2517,4.5673,4.7069,4.8142,4.7734,4.7148,4.627,4.4757,4.2663,4.071,3.9311,3.6817,3.4887,3.4887,3.5055,3.5452,3.6344,3.5974,3.535,3.4672,3.2539,3.0067,2.7314,2.4618,2.1862,1.8935,1.7284,1.6533,1.6772,1.7009,1.7219,1.7324,1.7324,1.7324,1.7324,1.7563,1.7763,1.7897,1.8252,1.8486,1.8684,1.881,1.8941,1.9033,1.9033,1.9033,1.9033,1.9033,1.9033,1.9033,1.9033,1.9033,1.9033,1.9033,1.9033,1.906,1.9257,1.9388,1.9506,1.9765,2.0029,2.0266,2.0266,2.0398,2.0582,2.0675,2.049,2.0305,2.0516,2.0569,2.0675,2.1228,2.1426,2.1558,2.1991,2.2244,2.231,2.231,2.2151,2.2074,2.2074,2.1902,2.177,2.177,2.1929,2.2074,2.2074,2.2178,2.231,2.231,2.231,2.231,2.231,2.231,2.2138,2.1797,2.177,2.177,2.177,2.177,2.1863,2.1993,2.2074,2.2099,2.2296,2.231,2.231,2.231,2.2402,2.2441,2.2455,2.2547,2.2517,4.7898,4.8191,4.8435,4.9491,4.8222,4.666,4.666,4.3034,3.9827,4.0154,3.8186,3.6352,3.6352,3.7309,3.7886,3.7275,3.6278,3.5141,3.3834,3.1871,3.0371,2.9977,2.9917,2.837,2.4456,1.9295,1.6292,1.6519,1.6759,1.7009,1.7298,1.7324,1.7324,1.7324,1.7324,1.751,1.7897,1.7897,1.8146,1.867,1.867,1.8829,1.9033,1.9033,1.9033,1.9033,1.9033,1.9033,1.9033,1.9033,1.9033,1.9033,1.9033,1.9033,1.9033,1.9033,1.9217,1.9407,1.9407,1.9664,2.0038,2.0038,2.0038,2.0029,2.0305,2.02,2.0038,2.0051,2.0051,2.0104,2.0319,2.0609,2.0847,2.115,2.1492,2.177,2.177,2.1757,2.1757,2.1757,2.1757,2.1757,2.1757,2.1757,2.1757,2.1757,2.1757,2.177,2.177,2.177,2.177,2.177,2.1757,2.1757,2.1757,2.1757,2.1757,2.1757,2.1757,2.1757,2.1757,2.1757,2.1757,2.177,2.177,2.177,2.177,2.1993,2.2138,2.2151,2.2441,2.2573,4.582,4.6483,4.7392,4.8386,4.8759,4.8466,4.7002,4.558,4.3758,4.0825,3.883,3.7568,3.7568,3.7483,3.7594,3.8145,3.8497,3.7559,3.4095,3.3102,3.1879,2.9645,2.7728,2.5782,2.3612,2.0408,1.7909,1.6608,1.6759,1.7009,1.7298,1.7324,1.7324,1.7324,1.7324,1.7364,1.7497,1.7749,1.7935,1.812,1.8473,1.8723,1.8802,1.8941,1.9033,1.9033,1.9033,1.9033,1.9033,1.9033,1.9033,1.9033,1.9033,1.9033,1.9033,1.9033,1.9086,1.9165,1.9165,1.9362,1.9599,1.9599,1.9804,1.9963,1.9769,1.9664,1.9651,1.9923,2.0051,2.0064,2.0143,2.0464,2.0965,2.1453,2.1704,2.177,2.177,2.1545,2.1334,2.1334,2.1242,2.1097,2.1097,2.1268,2.1334,2.1334,2.1571,2.177,2.177,2.177,2.177,2.177,2.1334,2.1097,2.1097,2.1097,2.1097,2.1097,2.1097,2.1189,2.1334,2.1334,2.1492,2.1757,2.177,2.177,2.177,2.185,2.1889,2.1902,2.1982,2.2072,4.4893,4.5459,4.6191,4.7313,4.8337,4.871,4.7051,4.666,4.5782,4.2734,4.1103,4.0336,4.0715,4.0557,4.036,4.0217,4.0725,3.9373,3.4324,3.3832,3.2813,2.952,2.7968,2.6459,2.4842,2.2405,2.004,1.7839,1.7134,1.6877,1.7127,1.7259,1.7324,1.7324,1.7324,1.7324,1.7324,1.7536,1.7736,1.791,1.8212,1.8446,1.8684,1.8855,1.8928,1.9033,1.9033,1.9033,1.9033,1.9033,1.9033,1.9033,1.9033,1.9033,1.9033,1.9033,1.9033,1.9033,1.9033,1.9152,1.9296,1.9296,1.9414,1.9593,1.9349,1.9296,1.9336,1.958,1.962,1.9659,1.9778,2.0147,2.0648,2.1215,2.136,2.136,2.136,2.1228,2.1044,2.1044,2.09,2.0768,2.0768,2.0926,2.1044,2.1044,2.1242,2.136,2.136,2.136,2.136,2.136,2.1044,2.0768,2.0768,2.0768,2.0768,2.0768,2.0768,2.086,2.1031,2.1044,2.1123,2.136,2.136,2.136,2.136,2.1479,2.1532,2.1532,2.1717,2.1863,4.4893,4.4893,4.5186,4.6367,4.7361,4.78,4.6855,4.666,4.6318,4.5137,4.4162,4.3801,4.4845,4.5049,4.4521,4.2986,4.2584,4.0539,3.4755,3.4304,3.3312,2.9876,2.9757,2.9175,2.7199,2.4671,2.2092,1.9617,1.762,1.6574,1.6838,1.7101,1.7298,1.7324,1.7324,1.7324,1.7324,1.7324,1.751,1.7802,1.7884,1.8133,1.8604,1.8657,1.8815,1.8994,1.902,1.9033,1.9033,1.9033,1.9033,1.9033,1.9033,1.9033,1.9033,1.9033,1.9033,1.9033,1.9033,1.9033,1.9033,1.9033,1.9033,1.9033,1.9033,1.9033,1.9033,1.9033,1.9046,1.9138,1.9401,1.9778,2.0147,2.0675,2.0755,2.0768,2.0768,2.0768,2.0768,2.0768,2.0768,2.0768,2.0768,2.0768,2.0768,2.0768,2.0768,2.0768,2.0768,2.0768,2.0768,2.0768,2.0768,2.0768,2.0768,2.0768,2.0768,2.0768,2.0768,2.0768,2.0768,2.0768,2.0768,2.0768,2.0768,2.0768,2.0768,2.1044,2.1176,2.1176,2.1505,2.1704,4.4893,4.4893,4.5186,4.6367,4.6807,4.6953,4.6709,4.666,4.6318,4.5137,4.4747,4.4893,4.6074,4.4571,4.3285,4.372,4.2,3.96,3.6656,3.5297,3.3891,3.1858,3.0614,2.9175,2.7199,2.4671,2.2092,1.9617,1.7418,1.6242,1.6308,1.6745,1.7075,1.7311,1.7324,1.7324,1.7324,1.7324,1.7351,1.7417,1.7736,1.7921,1.8054,1.8473,1.871,1.8776,1.8941,1.9033,1.9033,1.9033,1.9033,1.9033,1.9033,1.9033,1.9033,1.9033,1.9033,1.9033,1.9033,1.9033,1.9033,1.9033,1.9033,1.9033,1.9033,1.9033,1.9033,1.9033,1.9204,1.9388,1.9394,1.9861,2.0332,2.0464,2.0661,2.0768,2.0768,2.0768,2.0768,2.0768,2.0768,2.0768,2.0768,2.0768,2.0768,2.0768,2.0768,2.0768,2.0768,2.0768,2.0768,2.0768,2.0768,2.0768,2.0768,2.0768,2.0768,2.0768,2.0768,2.0768,2.0768,2.0768,2.0768,2.0768,2.0768,2.0768,2.0768,2.0834,2.0874,2.0874,2.0991,2.1084,4.4893,4.4893,4.504,4.5654,4.627,4.6514,4.5947,4.663,4.7069,4.5996,4.6112,4.6825,4.7929,4.6273,4.4741,4.485,4.2916,4.0316,3.735,3.6763,3.5528,3.2626,3.2157,3.123,2.8988,2.6499,2.3965,2.1428,1.9043,1.7767,1.7914,1.7057,1.6719,1.7101,1.7246,1.7324,1.7324,1.7324,1.7324,1.7324,1.7523,1.7723,1.791,1.8173,1.8328,1.8486,1.8763,1.8895,1.8908,1.8981,1.9033,1.9033,1.9033,1.9033,1.9033,1.9033,1.9033,1.9033,1.9033,1.9033,1.9033,1.9033,1.9033,1.9033,1.9033,1.9033,1.9033,1.9033,1.9244,1.9446,1.9651,2.0068,2.0437,2.0569,2.0727,2.0768,2.0768,2.0768,2.0768,2.0768,2.0768,2.0768,2.0768,2.0768,2.0768,2.0768,2.0768,2.0768,2.0768,2.0768,2.0768,2.0768,2.0768,2.0768,2.0768,2.0768,2.0768,2.0768,2.0768,2.0768,2.0768,2.0768,2.0768,2.0768,2.0768,2.0768,2.0768,2.0768,2.0768,2.0768,2.0768,2.086,4.4893,4.4893,4.4893,4.4893,4.5625,4.6093,4.5137,4.6307,4.7459,4.6807,4.7313,4.8288,4.954,4.8265,4.6896,4.6519,4.4505,4.1893,3.8721,3.8723,3.7705,3.3844,3.4003,3.3604,3.153,2.871,2.6125,2.3965,2.1884,2.0645,2.0422,1.8082,1.6989,1.7432,1.7273,1.7272,1.7324,1.7324,1.7324,1.7324,1.7324,1.7443,1.7776,1.7829,1.7974,1.8226,1.8473,1.8631,1.8697,1.8862,1.8981,1.9033,1.9033,1.9033,1.9033,1.9033,1.9033,1.9033,1.9033,1.9033,1.9033,1.9033,1.9033,1.9033,1.9033,1.9033,1.9033,1.9033,1.9283,1.9612,1.9923,2.0226,2.053,2.0716,2.0768,2.0768,2.0768,2.0768,2.0768,2.0768,2.0768,2.0768,2.0768,2.0768,2.0768,2.0768,2.0768,2.0768,2.0768,2.0768,2.0768,2.0768,2.0768,2.0768,2.0768,2.0768,2.0768,2.0768,2.0768,2.0768,2.0768,2.0768,2.0768,2.0768,2.0768,2.0768,2.0768,2.0768,2.0768,2.0768,2.0768,2.0768,4.4893,4.4893,4.4893,4.4893,4.504,4.5088,4.4942,4.5137,4.5576,4.6465,4.6758,4.7441,4.9393,4.8265,4.7601,4.9259,4.6393,4.3832,4.3568,4.1526,3.953,3.8175,3.5858,3.4239,3.3922,2.975,2.6872,2.6546,2.6218,2.5021,2.2833,2.0565,1.9361,1.9456,1.7813,1.7062,1.7324,1.7324,1.7324,1.7324,1.7324,1.7338,1.739,1.7736,1.7924,1.7921,1.8226,1.8446,1.8684,1.8723,1.8868,1.9033,1.9033,1.9033,1.9033,1.9033,1.9033,1.9033,1.9033,1.9033,1.9033,1.9033,1.9033,1.9033,1.9033,1.9033,1.9033,1.9033,1.9488,1.9998,1.9976,2.0385,2.0793,2.0833,2.0768,2.0768,2.0768,2.0768,2.0768,2.0768,2.0768,2.0768,2.0768,2.0768,2.0768,2.0768,2.0768,2.0768,2.0768,2.0768,2.0768,2.0768,2.0768,2.0768,2.0768,2.0768,2.0768,2.0768,2.0768,2.0768,2.0768,2.0768,2.0768,2.0768,2.0768,2.0768,2.0768,2.0768,2.0768,2.0768,2.0768,2.0768,4.4893,4.4893,4.4893,4.4893,4.4893,4.4893,4.4893,4.5381,4.5849,4.5703,4.6679,4.78,4.8727,4.7887,4.7531,4.9032,4.5978,4.3409,4.3524,4.1966,4.0136,3.8451,3.7898,3.6621,3.3883,3.2128,3.0026,2.7245,2.7012,2.6499,2.5375,2.3005,2.1095,1.9837,1.8966,1.8079,1.7075,1.7246,1.7324,1.7324,1.7324,1.7324,1.7324,1.7497,1.7563,1.7576,1.7921,1.812,1.8252,1.8367,1.8604,1.8855,1.8855,1.8889,1.9033,1.9033,1.9033,1.9033,1.9033,1.9033,1.9033,1.9033,1.9033,1.9033,1.9033,1.9033,1.9033,1.9033,1.9527,2.0051,2.0051,2.0411,2.0768,2.0768,2.0768,2.0768,2.0768,2.0768,2.0768,2.0768,2.0768,2.0768,2.0768,2.0768,2.0768,2.0768,2.0768,2.0768,2.0768,2.0768,2.0768,2.0768,2.0768,2.0768,2.0768,2.0768,2.0768,2.0768,2.0768,2.0768,2.0768,2.0768,2.0768,2.0768,2.0768,2.0768,2.0768,2.0768,2.0768,2.0768,2.0768,2.0768,4.4893,4.4893,4.4893,4.4893,4.4893,4.4893,4.4893,4.5605,4.5947,4.5088,4.6209,4.7428,4.7752,4.7307,4.7455,4.9082,4.6006,4.3501,4.3859,4.2541,4.0828,3.8836,3.9368,3.8319,3.4336,3.4001,3.2508,2.8835,2.8197,2.7967,2.7967,2.5516,2.3347,2.173,2.0472,1.9119,1.7659,1.7339,1.7246,1.7324,1.7324,1.7324,1.7324,1.7324,1.7324,1.7338,1.7589,1.7774,1.7919,1.809,1.8354,1.8573,1.8578,1.8736,1.8928,1.8928,1.8968,1.9007,1.8921,1.8868,1.8868,1.8868,1.8868,1.8881,1.8902,1.8928,1.8954,1.9099,1.958,2.0064,2.0068,2.0464,2.0768,2.0768,2.0768,2.0768,2.0768,2.0768,2.0768,2.0768,2.0768,2.0768,2.0768,2.0768,2.0768,2.0768,2.0768,2.0768,2.0768,2.0768,2.0768,2.0768,2.0768,2.0768,2.0768,2.0768,2.0768,2.0768,2.0768,2.0768,2.0768,2.0768,2.0768,2.0768,2.0768,2.0768,2.0768,2.0768,2.0768,2.0768,2.0768,2.0768,4.4893,4.4893,4.4893,4.4893,4.4893,4.4893,4.4893,4.4913,4.4991,4.4942,4.4991,4.543,4.6514,4.6667,4.7707,5.084,4.7877,4.5596,4.684,4.4419,4.214,4.1187,3.9798,3.8282,3.656,3.4396,3.302,3.2727,3.1366,3.0544,3.0544,2.8153,2.6755,2.6637,2.2225,1.9771,1.9656,1.7836,1.7048,1.7324,1.7324,1.7324,1.7324,1.7324,1.7324,1.7324,1.7338,1.7544,1.7914,1.7926,1.807,1.827,1.8271,1.8446,1.8697,1.8697,1.8868,1.8954,1.8473,1.8331,1.8331,1.8331,1.8331,1.8328,1.8618,1.8697,1.8757,1.9296,1.9738,2.0104,2.0305,2.0609,2.0768,2.0768,2.0768,2.0768,2.0768,2.0768,2.0768,2.0768,2.0768,2.0768,2.0768,2.0768,2.0768,2.0768,2.0768,2.0768,2.0768,2.0768,2.0768,2.0768,2.0768,2.0768,2.0768,2.0768,2.0768,2.0768,2.0768,2.0768,2.0768,2.0768,2.0768,2.0768,2.0768,2.0768,2.0768,2.0768,2.0768,2.0768,2.0768,2.0768,4.4893,4.4893,4.4893,4.4893,4.4893,4.4893,4.4893,4.4893,4.4893,4.4893,4.5508,4.6142,4.6563,4.7197,4.8044,4.9198,4.7103,4.5267,4.5234,4.3194,4.1412,4.0548,4.0414,3.9538,3.7479,3.4951,3.3173,3.2604,3.0412,2.9294,2.9658,2.8856,2.777,2.644,2.475,2.3363,2.2331,2.1654,2.1606,2.2173,2.0739,2.0067,2.0067,2.0051,1.9882,1.9667,2.1841,2.2455,2.1946,2.2715,2.1872,2.0177,2.051,1.9714,1.8394,1.8394,1.8459,1.9014,2.2466,2.3649,2.3649,2.3649,2.3649,2.3666,2.3747,2.3798,2.3456,2.1745,2.1605,2.1494,1.974,1.9791,2.0292,2.0292,2.0569,2.0768,2.0768,2.0768,2.0768,2.0768,2.0768,2.0768,2.0768,2.0768,2.0768,2.0768,2.267,2.4065,2.4065,2.5965,2.6474,2.4257,2.4065,2.3183,2.0962,2.0768,2.0768,2.0768,2.0768,2.0768,2.0768,2.0768,2.1849,2.4001,2.4065,2.5136,2.7283,2.7283,2.7283,2.7283,2.7283,2.7283,4.4361,4.4408,4.4473,4.4932,4.4969,4.4893,4.4893,4.4893,4.4893,4.4893,4.5557,4.6074,4.6074,4.663,4.7184,4.7605,4.6055,4.4503,4.3785,4.2022,4.04,3.9325,3.9902,3.955,3.7432,3.5369,3.402,3.3664,3.0822,2.9415,3.0179,2.9539,2.854,2.715,2.6253,2.5279,2.4227,2.349,2.3363,2.3875,2.2678,2.2122,2.207,2.2327,2.2256,2.2069,2.427,2.4809,2.414,2.4915,2.4039,2.2225,2.2736,2.2024,2.0648,2.0886,2.0906,2.1376,2.5072,2.6358,2.6358,2.6358,2.6358,2.6377,2.6478,2.6463,2.6137,2.4421,2.4083,2.3924,2.2119,2.2131,2.2556,2.2556,2.2828,2.3205,2.3558,2.3603,2.3362,2.2627,2.2478,2.2171,2.0962,2.0768,2.0768,2.0768,2.267,2.4944,2.722,2.9482,3.0051,2.7791,2.6521,2.4944,2.267,2.2478,2.2478,2.2478,2.3568,2.4193,2.4193,2.4193,2.5263,2.7537,2.7537,2.866,3.0933,3.0933,3.0933,3.0933,3.0933,3.0933,4.3179,4.3394,4.3601,4.493,4.504,4.4854,4.4854,4.4903,4.4874,4.4845,4.4893,4.4893,4.4893,4.4893,4.5283,4.6416,4.4969,4.3555,4.287,4.1231,3.9461,3.779,3.8229,3.8066,3.6562,3.5703,3.5523,3.6212,3.2953,3.131,3.2227,3.0368,2.9252,2.9235,2.6757,2.5415,2.5393,2.3233,2.2174,2.2213,2.2977,2.3285,2.3294,2.3929,2.4223,2.4198,2.4311,2.4343,2.4278,2.4333,2.429,2.4291,2.4793,2.5141,2.5329,2.6186,2.6291,2.6119,2.6086,2.6099,2.6099,2.6099,2.6099,2.6126,2.6402,2.6467,2.659,2.6968,2.7088,2.7184,2.7435,2.7569,2.7588,2.7588,2.7607,2.7856,2.89,2.9153,2.849,2.6336,2.5915,2.4928,2.1643,2.1077,2.1077,2.1091,2.1077,2.3474,3.0138,3.1019,3.1039,3.1039,2.8091,2.6075,2.6028,2.6028,2.6028,2.6028,2.9103,3.0933,3.0933,3.0933,3.0933,3.1059,3.1059,3.1122,3.1185,3.1185,3.1185,3.1165,3.1165,3.1165,4.1993,4.2247,4.2498,4.3688,4.3994,4.39,4.39,4.4559,4.4914,4.3951,4.4357,4.4893,4.4893,4.4893,4.4991,4.5332,4.4947,4.4351,4.3587,4.1973,4.0484,3.945,3.8442,3.7911,3.8008,3.6621,3.5505,3.4984,3.2692,3.1656,3.2378,3.2385,3.1883,3.0767,2.9983,2.9123,2.8075,2.7478,2.7391,2.7707,2.7951,2.7408,2.6229,2.6422,2.6494,2.6637,2.9081,2.9654,2.8963,2.9779,2.8709,2.6574,2.7568,2.6743,2.5543,2.9835,3.1412,3.1401,3.1762,3.1917,3.1917,3.1917,3.1917,3.1889,3.1983,3.2031,3.1611,2.9659,2.9142,2.8706,2.6849,2.6634,2.6913,2.6913,2.7224,2.7684,2.7991,2.8319,2.8428,2.7814,2.797,2.808,2.7627,2.7555,2.7662,2.8055,2.7377,2.8418,3.2749,3.3316,3.3508,3.398,3.314,3.1781,2.9716,2.9482,2.9482,2.9482,3.0366,3.0933,3.0933,3.0933,3.2065,3.4528,3.4591,3.5798,3.8243,3.8243,3.8049,3.7685,3.7685,3.7406,3.8388,3.94,4.0677,4.1926,4.2899,4.3397,4.2911,4.3727,4.4194,4.2984,4.3508,4.4289,4.4289,4.4601,4.4893,4.4893,4.4893,4.4498,4.3404,4.2397,4.1313,4.0197,3.9144,3.878,3.9191,3.767,3.6491,3.6231,3.3688,3.2644,3.371,3.3368,3.2858,3.2296,3.2285,3.1442,2.9745,2.973,2.9453,2.8879,2.9077,2.8723,2.7748,2.8035,2.8269,2.8611,3.0774,3.136,3.0774,3.1453,3.0594,2.89,2.9852,2.9216,2.8134,3.1692,3.3024,3.3076,3.3357,3.3664,3.3895,3.3895,3.4048,3.4228,3.4228,3.4228,3.3869,3.2174,3.171,3.1325,2.9772,2.9548,2.981,2.981,3.0088,3.0505,3.0977,3.134,3.1313,3.0612,3.0708,3.0658,2.9828,2.9723,3.0781,3.3954,3.3817,3.412,3.6049,3.637,3.649,3.6863,3.6887,3.5654,3.2542,3.2316,3.2316,3.2316,3.3608,3.4427,3.4427,3.4427,3.5345,3.7284,3.7345,3.8342,4.0271,4.0271,4.0089,3.9838,3.9838,3.9137,3.3895,3.5645,3.8075,3.9508,4.1361,4.2557,0.0,4.2422,4.3064,4.1859,4.2552,4.3383,4.3342,4.4245,4.4922,4.4893,4.4893,4.4424,4.3008,4.2677,4.2102,4.0739,4.0584,4.0522,4.0336,3.8958,3.8207,3.8536,3.5521,3.4294,3.5705,3.4125,3.3386,3.3977,3.4009,3.2983,3.0872,3.0872,2.9814,2.7782,2.8231,2.8343,2.8181,2.8773,2.9326,2.9904,3.0415,3.061,3.061,3.0682,3.0728,3.0774,3.1453,3.1634,3.1636,3.2191,3.2368,3.2393,3.2414,3.2846,3.3306,3.3306,3.3638,3.4048,3.4099,3.4125,3.4125,3.4177,3.4228,3.4228,3.4228,3.4228,3.4228,3.4228,3.4228,3.4514,3.5527,3.5813,3.5409,3.3898,3.3728,3.3024,3.0517,3.0158,3.2217,3.8172,3.9078,3.9078,3.9078,3.9078,3.9078,3.9078,3.913,3.7953,3.4945,3.4753,3.4776,3.4776,3.758,3.926,3.926,3.926,3.9234,3.9182,3.9182,3.9156,3.9078,3.9078,3.9052,3.8974,3.8974,3.7833,0.0,0.0,0.0,0.0,0.0,0.0,0.0,4.0692,4.1941,4.0641,4.2027,4.3447,4.3357,4.4362,4.5142,4.4922,4.4893,4.4776,4.4483,4.3338,4.2918,4.3844,4.3933,4.3457,4.2223,4.1797,4.0517,3.7973,3.7672,3.746,3.7163,3.7363,3.7096,3.6312,3.6308,3.5224,3.3063,3.3023,3.2,2.9902,3.0033,2.9418,2.8203,2.8333,2.8715,2.9338,2.988,3.0098,3.0098,3.0518,3.0728,3.0774,3.1453,3.1365,3.0995,3.1591,3.1853,3.1899,3.2344,3.2564,3.2667,3.2667,3.2718,3.2897,3.3434,3.3587,3.3664,3.4099,3.4228,3.4228,3.4228,3.4228,3.4228,3.4228,3.4228,3.428,3.4514,3.4851,3.508,3.4747,3.5477,3.6092,3.605,3.6405,3.6959,3.7875,3.8025,3.8025,3.8025,3.8025,3.8025,3.8025,3.8384,3.8354,3.769,3.8037,3.829,3.829,3.8906,3.926,3.926,3.926,3.9052,3.8669,3.8643,3.8436,3.8025,3.8025,3.7734,3.7211,3.7211,3.6485,0.0,0.0,0.0,0.0,0.0,0.0,0.0,0.0,0.0,0.0,0.0,4.2551,4.183,0.0,4.4376,4.4192,4.4121,4.4308,4.4845,4.4247,4.404,4.4776,4.4893,4.46,4.3832,4.3038,4.1889,4.0149,3.9605,3.8982,3.8131,3.8892,3.8892,3.7839,3.824,3.7463,3.5319,3.4914,3.4171,3.3149,3.2406,3.1278,2.9854,3.058,3.1261,3.1901,3.2144,3.2421,3.2675,3.3357,3.3191,3.2629,3.3265,3.357,3.369,3.3995,3.4421,3.4835,3.5095,3.537,3.5566,3.5596,3.5796,3.5868,3.4965,3.47,3.4587,3.3997,3.3818,3.3895,3.4177,3.4228,3.4228,3.4228,3.4228,3.4228,3.4228,3.441,3.467,3.4929,3.5707,3.654,3.7111,3.7449,3.7527,3.7267,3.7505,3.7713,3.7713,3.7713,3.7713,3.7713,3.7947,3.8129,3.8129,3.8332,3.8488,3.8488,3.8488,3.8358,3.8015,3.7989,3.773,3.7241,3.6903,3.6618,3.6358,3.61,3.5761,3.5475,3.4904,3.4923,0.0,0.0,0.0,0.0,0.0,0.0,0.0,0.0,0.0,0.0,0.0,0.0,0.0,0.0,0.0,4.3086,4.3176,4.3654,4.4455,4.4601,4.4766,4.5302,4.5069,4.4893,4.4893,4.3773,4.2888,4.2587,4.1293,4.0133,3.9221,3.9743,3.9811,3.9263,3.9745,3.9219,3.7563,3.6896,3.6198,3.5324,3.4176,0.0,3.1913,3.2832,3.3491,3.3989,3.4448,3.4847,3.5277,3.5991,3.5623,3.4718,3.5667,3.644,3.692,3.6453,3.6803,3.7395,3.7395,3.7776,3.8275,3.8257,3.8718,3.8944,3.7043,3.6466,0.0,3.4999,3.4739,3.4941,3.5403,3.5579,3.563,3.507,3.4968,3.4815,3.433,3.4228,3.4332,3.4748,3.5318,3.5917,3.6329,3.6485,3.6615,3.6718,3.7189,3.7583,3.7687,3.7609,3.7531,3.7531,3.7531,3.7531,3.7531,3.7635,3.7713,3.7713,3.7609,3.7267,3.6744,3.6718,3.6407,3.5787,3.5293,3.4825,3.4514,3.4099,3.389,3.3864,3.3572,3.4361,0.0,0.0,0.0,0.0,0.0,0.0,0.0,0.0,0.0,0.0,0.0,0.0,0.0,0.0,0.0,0.0,4.2734,4.3411,4.3508,4.3508,4.4361,4.6698,4.5765,4.4893,4.4893,4.4747,4.4069,4.2677,4.2405,4.1897,4.0987,4.0365,0.0,0.0,0.0,3.994,3.9675,3.9599,3.7677,3.3881,3.3719,3.3566,3.3381,3.2203,3.1758,3.1942,3.379,3.4658,3.4734,3.526,3.5385,3.5485,3.7543,3.84,3.8342,3.6254,3.5545,3.5662,3.5662,0.0,0.0,3.6772,3.7398,3.8148,3.8309,3.8374,3.8463,3.8828,3.943,3.9986,4.0036,4.0662,4.0638,3.8253,3.765,3.7022,3.4713,3.4228,3.4254,3.4254,3.4722,3.5137,3.5214,3.5655,3.6202,3.6641,3.6796,3.7059,3.7635,3.7189,3.6822,3.6822,3.6822,0.0,3.6822,3.7345,3.7713,3.7713,3.7163,3.6796,3.6718,3.6718,3.6226,3.5137,3.5006,3.4255,3.2774,3.2696,3.267,3.2742,3.5593,3.6649,0.0,0.0,0.0,0.0,0.0,0.0,0.0,0.0,0.0,0.0,0.0,0.0,0.0,0.0,0.0,0.0,4.1648,4.1709,4.245,4.4377,4.5845,4.6062,4.6168,4.5909,4.4981,4.4893,4.463,4.398,4.3951,4.3346,4.2063,4.1977,4.2169,4.2625,4.0926,4.0053,4.0053,4.0053,3.9148,3.7385,3.7385,3.7385,3.7347,3.6751,3.6453,3.6491,3.7385,3.7759,3.7833,3.8659,3.8902,3.88,0.0,0.0,0.0,0.0,3.976,3.9992,3.968,3.976,4.0011,4.0047,4.0318,4.0403,3.9184,3.8793,3.8655,3.7872,3.821,3.8999,3.9275,4.0409,4.1122,3.9926,4.0084,3.9724,3.7073,3.6466,3.601,3.4535,3.467,0.0,3.6578,3.6029,3.5474,3.5707,3.6018,3.6384,3.6673,3.6436,3.6306,3.6306,3.6306,3.6306,3.6306,3.6514,0.0,0.0,0.0,3.6306,3.6306,3.5915,0.0,0.0,0.0,3.4766,3.404,3.5101,0.0,0.0,3.5393,3.6206,0.0,0.0,0.0,0.0,0.0,0.0,0.0,0.0,0.0,0.0,0.0,0.0,0.0,0.0,0.0,0.0,4.0341,4.1187,4.2805,4.4404,4.5638,4.6364,4.6604,4.641,4.56,4.5156,4.4893,4.4893,4.4893,4.4424,4.3248,4.3574,4.3771,4.3771,4.2214,4.1369,4.1369,4.0524,4.0053,4.0053,4.0053,4.0053,4.0053,4.0053,4.0053,4.0053,4.0053,4.0053,4.0091,4.0849,4.1077,4.0849,4.0242,4.0053,4.0205,4.1419,4.2144,4.2374,4.1991,4.1991,4.2155,4.1952,4.2016,4.1814,3.9815,3.9339,3.9256,3.7926,3.8347,3.9295,3.9707,4.0894,4.1928,4.1641,4.2085,4.1939,3.9724,3.9225,3.8675,3.6742,3.6323,3.6747,3.8282,3.668,3.531,3.5497,3.5374,3.5398,3.5657,3.5553,3.5527,3.5683,3.5709,3.5709,3.5709,3.5839,3.5943,3.5943,3.5787,3.5631,3.5528,3.506,3.4358,3.3445,3.4715,3.5579,0.0,0.0,0.0,0.0,0.0,0.0,0.0,0.0,0.0,0.0,0.0,0.0,0.0,0.0,0.0,0.0,0.0,0.0,0.0,0.0,0.0,0.0,0.0,0.0,4.5392,4.2619,4.2532,4.8721,4.7023,4.5823,4.7036,4.5794,4.4893,4.4893,4.4893,4.4864,4.4806,4.4854,4.4874,4.4874,4.4775,4.4735,4.4735,4.161,4.0053,4.0053,4.0053,4.0053,4.0053,4.0053,4.0053,4.0053,4.0053,4.0053,4.0053,4.0091,4.0091,4.0091,4.0053,4.0053,4.0053,4.0091,4.0167,4.0167,4.0091,4.0621,4.1154,4.0395,4.0623,4.108,4.0243,4.0509,4.1118,4.1082,4.2263,4.3557,4.357,4.4246,4.4706,4.3731,4.352,4.3228,4.2234,4.2021,4.2021,4.1922,4.0627,3.9517,3.9579,3.7532,3.615,3.6753,3.4967,0.0,3.4903,3.4592,3.4462,3.4981,3.5006,3.5006,3.5006,3.5577,3.5943,3.5943,3.537,3.48,3.4306,3.4254,3.3994,3.3445,3.5085,3.6578,3.7842,0.0,0.0,0.0,0.0,0.0,0.0,0.0,0.0,0.0,0.0,0.0,0.0,0.0,0.0,0.0,0.0,0.0,0.0,0.0,0.0,0.0,0.0,0.0,0.0,4.2265,4.3733,4.6279,4.6734,4.6627,4.6153,4.483,4.3993,4.3993,4.3275,4.3125,4.3825,4.3622,4.3938,4.4845,4.4893,4.4893,4.4893,4.382,4.3302,4.3238,4.1091,4.0053,4.0053,4.0053,4.0053,4.0053,4.0053,4.0053,4.0053,4.0053,3.8724,3.6709,3.6709,3.6709,3.6709,3.6709,3.8115,4.0053,4.0053,4.0205,4.0394,4.0091,3.9454,3.892,3.9784,4.0217,4.0343,3.9744,4.0367,4.1315,4.1315,4.2388,4.3479,4.3611,4.4536,4.4785,4.2763,4.2738,4.257,4.0833,4.0503,4.0715,4.1345,3.8834,3.6633,3.6342,3.5183,3.4111,3.3391,3.3501,3.376,3.3942,3.4254,3.4488,3.4488,3.6273,3.664,3.493,3.7354,3.7994,3.6082,3.7155,3.7515,3.6906,3.746,3.7988,3.8564,0.0,0.0,0.0,0.0,0.0,0.0,0.0,0.0,0.0,0.0,0.0,0.0,0.0,0.0,0.0,0.0,0.0,0.0,0.0,0.0,0.0,0.0,0.0,0.0,0.0,0.0,4.5808,4.6192,0.0,4.559,4.3916,4.2856,4.2856,4.2578,4.2524,4.2809,4.3325,4.3719,4.3766,4.4514,4.4893,4.4893,4.4893,4.4893,4.4884,4.2761,4.1792,4.1688,3.9339,3.8876,4.0053,4.0053,3.9369,3.8229,3.8229,3.8352,3.8546,3.8546,3.8546,3.8546,3.8546,3.9173,4.0028,4.0028,3.9661,3.9145,3.9145,3.7996,3.6961,3.8608,3.9581,3.9841,3.881,3.9439,4.0399,4.014,4.0877,4.2043,4.342,4.4564,4.5133,4.4362,4.4331,4.3828,4.1569,4.1557,4.2143,4.2768,4.0328,3.7958,3.7149,3.5201,3.3694,3.311,3.2891,3.2977,3.3393,3.389,3.4228,3.4228,3.5756,3.5927,3.4043,3.7426,3.8374,3.5996,3.8094,3.8733,3.7524,3.8332,3.8359,0.0,0.0,0.0,0.0,0.0,0.0,0.0,0.0,0.0,0.0,0.0,0.0,0.0,0.0,0.0,0.0,0.0,0.0,0.0,0.0,0.0,0.0,0.0,0.0,0.0,0.0,0.0,4.6729,4.5045,0.0,0.0,0.0,0.0,4.1311,4.2464,4.2793,4.2038,4.3962,4.4039,4.1711,4.3555,4.4698,4.4893,4.4893,4.4893,4.4893,4.4893,4.4893,4.4688,3.8388,3.7232,4.0273,3.9937,3.7963,3.5004,3.5367,3.9199,4.4864,4.4757,4.4689,4.4601,4.4601,4.2743,4.0329,4.0531,3.9552,3.8183,3.8183,3.7141,3.6096,3.7436,3.8885,0.0,0.0,3.9643,4.0977,4.0192,4.0023,4.064,4.3004,4.3579,4.4268,4.6603,4.6564,4.5597,4.3847,4.3547,4.3509,4.3509,0.0,3.9836,3.8923,3.5256,3.2922,3.3979,3.2866,3.2452,3.366,3.4091,3.4457,3.4611,3.4457,3.4145,3.3671,3.5713,3.6197,3.4339,3.7152,3.779,3.5803,3.7799,0.0,0.0,0.0,0.0,0.0,0.0,0.0,0.0,0.0,0.0,0.0,0.0,0.0,0.0,0.0,0.0,0.0,0.0,0.0,0.0,0.0,0.0,0.0,0.0,0.0,0.0,3.5228,3.6348,3.9893,3.9913,3.9462,0.0,0.0,0.0,0.0,0.0,0.0,4.4313,4.3341,4.1672,3.9385,3.984,4.1655,4.4893,4.4893,4.4893,4.4893,4.4893,4.4893,4.4835,4.3111,4.2851,4.3377,3.8413,3.5802,3.54,4.0323,4.3367,4.4757,4.3195,4.1553,4.0094,4.0094,4.1617,4.4141,4.7439,4.8284,4.7957,4.7957,4.765,4.6726,4.3851,0.0,0.0,0.0,0.0,4.0132,3.913,3.9444,4.0205,4.0849,4.1397,4.2014,4.2675,4.3186,4.2991,4.1345,4.0434,3.9977,3.9978,3.9486,0.0,3.8111,3.7044,3.6196,3.5908,3.6008,3.6606,3.8179,3.7078,3.7311,3.9912,3.7915,3.646,3.6367,3.7362,3.7793,3.7489,3.8538,3.9599,4.0706,0.0,0.0,0.0,0.0,0.0,0.0,0.0,0.0,0.0,0.0,0.0,0.0,0.0,0.0,0.0,0.0,0.0,0.0,0.0,0.0,0.0,0.0,0.0,0.0,0.0,0.0,0.0,3.2733,3.4354,3.6383,3.5269,3.4178,0.0,0.0,0.0,0.0,0.0,0.0,0.0,0.0,0.0,3.8452,4.0277,4.1557,4.2094,4.2066,4.3041,4.4893,4.4893,4.4893,4.4893,4.4893,4.4893,4.4688,4.0941,3.8229,3.6824,4.0577,4.2066,4.1963,0.0,0.0,0.0,0.0,3.7191,3.9629,4.2148,4.5469,4.8612,4.8612,0.0,0.0,0.0,0.0,0.0,0.0,0.0,4.0512,3.9437,3.928,3.9638,4.0356,4.0627,4.0891,4.1664,4.096,3.9958,3.8953,3.8006,3.7373,3.7553,3.7588,0.0,0.0,0.0,3.6846,3.7039,3.7065,3.7696,3.9282,3.8962,3.9412,4.1443,3.9911,3.8458,3.7467,3.9088,3.9543,3.8297,3.982,4.0389,0.0,0.0,0.0,0.0,0.0,0.0,0.0,0.0,0.0,0.0,0.0,0.0,0.0,0.0,0.0,0.0,0.0,0.0,0.0,0.0,0.0,0.0,0.0,0.0,0.0,0.0,0.0,0.0,0.0,3.3489,3.3801,0.0,0.0,0.0,0.0,0.0,0.0,0.0,0.0,0.0,0.0,0.0,0.0,0.0,4.2217,3.8504,3.9151,4.1042,4.4065,4.4065,4.4065,4.4065,4.465,4.4893,4.4893,4.4893,0.0,3.9241,3.8439,0.0,0.0,0.0,0.0,0.0,0.0,0.0,0.0,0.0,0.0,0.0,0.0,0.0,0.0,0.0,0.0,0.0,0.0,0.0,0.0,0.0,0.0,3.9186,4.0459,4.0354,4.0413,4.1834,3.9447,3.6982,3.6713,3.5685,3.4967,0.0,0.0,0.0,0.0,0.0,0.0,3.7673,3.757,3.7941,3.9534,4.0484,4.1248,4.1825,4.0945,3.9684,3.8128,4.012,4.0254,3.7797,4.0331,0.0,0.0,0.0,0.0,0.0,0.0,0.0,0.0,0.0,0.0,0.0,0.0,0.0,0.0,0.0,0.0,0.0,0.0,0.0,0.0,0.0,0.0,0.0,0.0,0.0,0.0,0.0,0.0,0.0,0.0,0.0,0.0,0.0,0.0,0.0,0.0,0.0,0.0,0.0,0.0,0.0,0.0,0.0,0.0,0.0,0.0,0.0,0.0,0.0,0.0,3.9632,3.9632,3.9729,4.3285,4.4893,4.4893,4.4893,4.4455,4.3369,3.8114,0.0,0.0,0.0,0.0,0.0,0.0,0.0,0.0,0.0,0.0,0.0,0.0,0.0,0.0,0.0,0.0,0.0,0.0,0.0,0.0,0.0,0.0,3.9518,3.8441,3.9157,4.0024,3.9885,0.0,0.0,0.0,0.0,0.0,0.0,0.0,0.0,0.0,0.0,0.0,3.8512,4.0292,4.2385,4.4674,4.3203,4.3511,4.7129,4.1684,3.8864,4.0624,3.7746,3.6459,0.0,0.0,0.0,0.0,0.0,0.0,0.0,0.0,0.0,0.0,0.0,0.0,0.0,0.0,0.0,0.0,0.0,0.0,0.0,0.0,0.0,0.0,0.0,0.0,0.0,0.0,0.0,0.0,0.0,0.0,0.0,0.0,0.0,0.0,0.0,0.0,0.0,0.0,0.0,0.0,0.0,0.0,0.0,0.0,0.0,0.0,0.0,0.0,0.0,0.0,0.0,0.0,0.0,0.0,0.0,0.0,0.0,0.0,4.2685,4.0027,0.0,0.0,0.0,0.0,0.0,0.0,0.0,0.0,0.0,0.0,0.0,0.0,0.0,0.0,0.0,0.0,0.0,0.0,0.0,0.0,0.0,0.0,0.0,0.0,0.0,0.0,0.0,0.0,0.0,0.0,0.0,0.0,0.0,0.0,0.0,0.0,0.0,0.0,0.0,0.0,3.7966,4.0319,4.2633,4.4724,4.3806,4.4298,4.726,4.3325,4.1096,4.1959,3.9497,0.0,0.0,0.0,0.0,0.0,0.0,0.0,0.0,0.0,0.0,0.0,0.0,0.0,0.0,0.0,0.0,0.0,0.0,0.0,0.0,0.0,0.0,0.0,0.0,0.0,0.0,0.0,0.0,0.0,0.0,0.0,0.0,0.0,0.0,0.0,0.0,0.0,0.0,0.0,0.0,0.0,0.0,0.0,0.0,0.0,0.0,0.0,0.0,0.0,0.0,0.0,0.0,0.0,0.0,0.0,0.0,0.0,0.0,0.0,3.8527,3.3849,0.0,0.0,0.0,0.0,0.0,0.0,0.0,0.0,0.0,0.0,0.0,0.0,0.0,0.0,0.0,0.0,0.0,0.0,0.0,0.0,0.0,0.0,0.0,0.0,0.0,0.0,0.0,0.0,0.0,0.0,0.0,0.0,0.0,0.0,0.0,0.0,0.0,0.0,0.0,0.0,3.6789,3.9447,4.1799,4.3357,4.3509,4.4116,4.5597,4.415,4.2863,4.2106,4.1002,0.0,0.0,0.0,0.0,0.0,0.0,0.0,0.0,0.0,0.0,0.0,0.0,0.0,0.0,0.0,0.0,0.0,0.0,0.0,0.0,0.0,0.0,0.0,0.0,0.0,0.0,0.0,0.0,0.0,0.0,0.0,0.0,0.0,0.0,0.0,0.0,0.0,0.0,0.0,0.0,0.0,0.0,0.0,0.0,0.0,0.0,0.0,0.0,0.0,0.0,0.0,0.0,0.0,0.0,0.0,0.0,0.0,0.0,0.0,0.0,0.0,0.0,0.0,0.0,0.0,0.0,0.0,0.0,0.0,0.0,0.0,0.0,0.0,0.0,0.0,0.0,0.0,0.0,0.0,0.0,0.0,0.0,0.0,0.0,0.0,0.0,0.0,0.0,0.0,0.0,0.0,0.0,0.0,0.0,0.0,0.0,0.0,0.0,0.0,0.0,0.0,3.5199,3.8726,4.1609,4.2559,4.2714,4.3015,4.3885,4.2405,4.1078,4.0358,0.0,0.0,0.0,0.0,0.0,0.0,0.0,0.0,0.0,0.0,0.0,0.0,0.0,0.0,0.0,0.0,0.0,0.0,0.0,0.0,0.0,0.0,0.0,0.0,0.0,0.0,0.0,0.0,0.0,0.0,0.0,0.0,0.0,0.0,0.0,0.0,0.0,0.0,0.0,0.0,0.0,0.0,0.0,0.0,0.0,0.0,0.0,0.0,0.0,0.0,0.0,0.0,0.0,0.0,0.0,0.0,0.0,0.0,0.0,0.0,0.0,0.0,0.0,0.0,0.0,0.0,0.0,0.0,0.0,0.0,0.0,0.0,0.0,0.0,0.0,0.0,0.0,0.0,0.0,0.0,0.0,0.0,0.0,0.0,0.0,0.0,0.0,0.0,0.0,0.0,0.0,0.0,0.0,0.0,0.0,0.0,0.0,0.0,0.0,0.0,0.0,0.0,3.4956,3.774,4.0243,4.1609,4.0851,4.1003,4.2863,4.1458,4.013,3.9256,0.0,0.0,0.0,0.0,0.0,0.0,0.0,0.0,0.0,0.0,0.0,0.0,0.0,0.0,0.0,0.0,0.0,0.0,0.0,0.0,0.0,0.0,0.0,0.0,0.0,0.0,0.0,0.0,0.0,0.0,0.0,0.0,0.0,0.0,0.0,0.0,0.0,0.0,0.0,0.0,0.0,0.0,0.0,0.0,0.0,0.0,0.0,0.0,0.0,0.0,0.0,0.0,0.0,0.0,0.0,0.0,0.0,0.0,0.0,0.0,0.0,0.0,0.0,0.0,0.0,0.0,0.0,0.0,0.0,0.0,0.0,0.0,0.0,0.0,0.0,0.0,0.0,0.0,0.0,0.0,0.0,0.0,0.0,0.0,0.0,0.0,0.0,0.0,0.0,0.0,0.0,0.0,0.0,0.0,0.0,0.0,0.0,0.0,0.0,0.0,0.0,0.0,3.5491,3.7414,3.9219,4.0699,3.9333,3.9181,4.1231,4.0358,3.9029,3.7664,0.0,0.0,0.0,0.0,0.0,0.0,0.0,0.0,0.0,0.0,0.0,0.0,0.0,0.0,0.0,0.0,0.0,0.0,0.0,0.0,0.0,0.0,0.0,0.0,0.0,0.0,0.0,0.0,0.0,0.0,0.0,0.0,0.0,0.0,0.0,0.0,0.0,0.0,0.0,0.0,0.0,0.0,0.0,0.0,0.0,0.0,0.0,0.0,0.0,0.0,0.0,0.0,0.0,0.0,0.0,0.0,0.0,0.0,0.0,0.0,0.0,0.0,0.0,0.0,0.0,0.0,0.0,0.0,0.0,0.0,0.0,0.0,0.0,0.0,0.0,0.0,0.0,0.0,0.0,0.0,0.0,0.0,0.0,0.0,0.0,0.0,0.0,0.0,0.0,0.0,0.0,0.0,0.0,0.0,0.0,0.0,0.0,0.0,0.0,0.0,0.0,0.0,3.6873,3.8039,3.9029,3.9977,3.8534,3.7852,3.8687,3.8688,3.7626,0.0,0.0,0.0,0.0,0.0,0.0,0.0,0.0,0.0,0.0,0.0,0.0,0.0,0.0,0.0,0.0,0.0,0.0,0.0,0.0,0.0,0.0,0.0,0.0,0.0,0.0,0.0,0.0,0.0,0.0,0.0,0.0,0.0,0.0,0.0,0.0,0.0,0.0,0.0,0.0,0.0,0.0,0.0,0.0,0.0,0.0,0.0,0.0,0.0,0.0,0.0,0.0,0.0,0.0,0.0,0.0,0.0,0.0,0.0,0.0,0.0,0.0,0.0,0.0,0.0,0.0,0.0,0.0,0.0,0.0,0.0,0.0,0.0,0.0,0.0,0.0,0.0,0.0,0.0,0.0,0.0,0.0,0.0,0.0,0.0,0.0,0.0,0.0,0.0,0.0,0.0,0.0,0.0,0.0,0.0,0.0,0.0,0.0,0.0,0.0,0.0,0.0,0.0,3.5989,3.6948,3.8243,3.9899,3.7966,3.7171,3.8537,3.8688,3.7396,3.4391,0.0,0.0,0.0,0.0,0.0,0.0,0.0,0.0,0.0,0.0,0.0,0.0,0.0,0.0,0.0,0.0,0.0,0.0,0.0,0.0,0.0,0.0,0.0,0.0,0.0,0.0,0.0,0.0,0.0,0.0,0.0,0.0,0.0,0.0,0.0,0.0,0.0,0.0,0.0,0.0,0.0,0.0,0.0,0.0,0.0,0.0,0.0,0.0,0.0,0.0,0.0,0.0,0.0,0.0,0.0,0.0,0.0,0.0,0.0,0.0,0.0,0.0,0.0,0.0,0.0,0.0,0.0,0.0,0.0,0.0,0.0,0.0,0.0,0.0,0.0,0.0,0.0,0.0,0.0,0.0,0.0,0.0,0.0,0.0,0.0,0.0,0.0,0.0,0.0,0.0,0.0,0.0,0.0,0.0,0.0,0.0,0.0,0.0,0.0,0.0,0.0,0.0,0.0,3.6408,3.7358,3.8909,3.7092,3.6261,3.7626,3.8044,3.6827,3.3524,0.0,0.0,0.0,0.0,0.0,0.0,0.0,0.0,0.0,0.0,0.0,0.0,0.0,0.0,0.0,0.0,0.0,0.0,0.0,0.0,0.0,0.0,0.0,0.0,0.0,0.0,0.0,0.0,0.0,0.0,0.0,0.0,0.0,0.0,0.0,0.0,0.0,0.0,0.0,0.0,0.0,0.0,0.0,0.0,0.0,0.0,0.0,0.0,0.0,0.0,0.0,0.0,0.0,0.0,0.0,0.0,0.0,0.0,0.0,0.0,0.0,0.0,0.0,0.0,0.0,0.0,0.0,0.0,0.0,0.0,0.0,0.0,0.0,0.0,0.0,0.0,0.0,0.0,0.0,0.0,0.0,0.0,0.0,0.0,0.0,0.0,0.0,0.0,0.0,0.0,0.0,0.0,0.0,0.0,0.0,0.0,0.0,0.0,0.0,0.0,0.0,0.0,0.0,3.6152,3.6478,3.7431,3.5991,3.5313,3.6075,3.6906,3.5991,3.2665,3.2399,0.0,0.0,0.0,0.0,0.0,0.0,0.0,0.0,0.0,0.0,0.0,0.0,0.0,0.0,0.0,0.0,0.0,0.0,0.0,0.0,0.0,0.0,0.0,0.0,0.0,0.0,0.0,0.0,0.0,0.0,0.0,0.0,0.0,0.0,0.0,0.0,0.0,0.0,0.0,0.0,0.0,0.0,0.0,0.0,0.0,0.0,0.0,0.0,0.0,0.0,0.0,0.0,0.0,0.0,0.0,0.0,0.0,0.0,0.0,0.0,0.0,0.0,0.0,0.0,0.0,0.0,0.0,0.0,0.0,0.0,0.0,0.0,0.0,0.0,0.0,0.0,0.0,0.0,0.0,0.0,0.0,0.0,0.0,0.0,0.0,0.0,0.0,0.0,0.0,0.0,0.0,0.0,0.0,0.0,0.0,0.0,0.0,0.0,0.0,0.0,0.0,0.0,3.5489,3.6365,3.7385,3.5991,3.5313,3.6075,3.634,3.5317,3.2627,3.1891,0.0,0.0,0.0,0.0,0.0,0.0,0.0,0.0,0.0,0.0,0.0,0.0,0.0,0.0,0.0,0.0,0.0,0.0,0.0,0.0,0.0,0.0,0.0,0.0,0.0,0.0,0.0,0.0,0.0,0.0,0.0,0.0,0.0,0.0,0.0,0.0,0.0,0.0,0.0,0.0,0.0,0.0,0.0,0.0,0.0,0.0,0.0,0.0,0.0,0.0,0.0,0.0,0.0,0.0,0.0,0.0,0.0,0.0,0.0,0.0,0.0,0.0,0.0,0.0,0.0,0.0,0.0,0.0,0.0,0.0,0.0,0.0,0.0,0.0,0.0,0.0,0.0,0.0,0.0,0.0,0.0,0.0,0.0,0.0,0.0,0.0,0.0,0.0,0.0,0.0,0.0,0.0,0.0,0.0,0.0,0.0,0.0,0.0,0.0,0.0,0.0,0.0,3.3678,3.4683,3.5694,3.5308,3.5161,3.5578,3.5961,3.4971,3.2119,3.0819,0.0,0.0,0.0,0.0,0.0,0.0,0.0,0.0,0.0,0.0,0.0,0.0,0.0,0.0,0.0,0.0,0.0,0.0,0.0,0.0,0.0,0.0,0.0,0.0,0.0,0.0,0.0,0.0,0.0,0.0,0.0,0.0,0.0,0.0,0.0,0.0,0.0,0.0,0.0,0.0,0.0,0.0,0.0,0.0,0.0,0.0,0.0,0.0,0.0,0.0,0.0,0.0,0.0,0.0,0.0,0.0,0.0,0.0,0.0,0.0,0.0,0.0,0.0,0.0,0.0,0.0,0.0,0.0,0.0,0.0,0.0,0.0,0.0,0.0,0.0,0.0,0.0,0.0,0.0,0.0,0.0,0.0,0.0,0.0,0.0,0.0,0.0,0.0,0.0,0.0,0.0,0.0,0.0,0.0,0.0,0.0,0.0,0.0,0.0,0.0,0.0,0.0,0.0,3.2657,3.3752,3.4532,3.4971,3.4971,3.5616,3.463,3.1495,0.0,0.0,0.0,0.0,0.0,0.0,0.0,0.0,0.0,0.0,0.0,0.0,0.0,0.0,0.0,0.0,0.0,0.0,0.0,0.0,0.0,0.0,0.0,0.0,0.0,0.0,0.0,0.0,0.0,0.0,0.0,0.0,0.0,0.0,0.0,0.0,0.0,0.0,0.0,0.0,0.0,0.0,0.0,0.0,0.0,0.0,0.0,0.0,0.0,0.0,0.0,0.0,0.0,0.0,0.0,0.0,0.0,0.0,0.0,0.0,0.0,0.0,0.0,0.0,0.0,0.0,0.0,0.0,0.0,0.0,0.0,0.0,0.0,0.0,0.0,0.0,0.0,0.0,0.0,0.0,0.0,0.0,0.0,0.0,0.0,0.0,0.0,0.0,0.0,0.0,0.0,0.0,0.0,0.0,0.0,0.0,0.0,0.0,0.0,0.0,0.0,0.0,0.0,0.0,3.2508,3.3992,3.4665,3.4971,3.4971,3.5118,3.4055,3.1457,0.0,0.0,0.0,0.0,0.0,0.0,0.0,0.0,0.0,0.0,0.0,0.0,0.0,0.0]}],[{"header":{"parameterUnit":"kt","parameterCategory":2,"dx":1,"dy":1,"la1":29.285339999999998,"la2":30.599998999999997,"lo1":-89.70041500000002,"lo2":-87.6738589999976,"nx":112,"ny":82,"refTime":"2022-10-01T00:00:00:Z","depth":0,"parameterNumber":2,"parameterNumberName":"V-component_of_WINDS"},"data":[8.8405,8.3339,7.7774,7.4634,7.6902,7.974,7.9066,7.7585,7.6347,7.6306,7.3664,7.1423,7.1409,7.0054,6.827,0.0,0.0,0.0,0.0,6.1309,6.1784,6.2507,7.0676,7.7292,8.0048,8.7266,9.2724,9.4968,9.8183,10.0577,10.1881,10.2758,10.4408,10.6891,10.8333,10.9417,11.0024,11.0024,11.0024,11.0024,11.0024,11.0024,11.0024,11.0024,11.0024,11.0024,11.0024,11.0024,11.0024,11.0024,11.0632,11.1695,11.1999,11.3517,11.5643,11.7238,11.8681,11.9971,11.9971,11.9971,11.9971,11.9971,11.9971,11.9971,11.9971,11.9971,11.9971,11.9971,11.9971,11.9971,11.9971,11.9971,11.9971,11.9971,12.1794,12.354,12.354,12.354,12.4831,12.9159,13.007,13.007,13.007,13.007,13.007,13.007,13.007,13.007,13.007,13.007,13.007,13.007,13.007,13.007,13.007,13.007,12.9823,12.9386,12.8553,12.8106,12.8106,12.8106,12.8106,12.8106,12.8106,12.8106,12.8106,12.8106,12.8106,12.8106,12.8106,12.8106,8.1672,7.6804,7.2844,7.168,7.4848,7.7972,7.6775,7.5419,7.4135,7.305,7.1124,6.9198,6.7557,6.7258,0.0,0.0,0.0,0.0,0.0,6.3181,6.6399,6.7662,7.4983,8.0706,8.2672,8.9351,9.4444,9.6697,9.937,10.1774,10.367,10.4037,10.506,10.7049,10.9027,11.0024,11.0024,11.0024,11.0024,11.0024,11.0024,11.0024,11.0024,11.0024,11.0024,11.0024,11.0024,11.0024,11.0024,11.0024,11.1011,11.2606,11.291,11.4656,11.6934,11.7542,11.8681,11.9971,11.9971,11.9971,11.9971,11.9971,11.9971,11.9971,11.9971,11.9971,11.9971,11.9971,11.9971,11.9971,11.9971,11.9971,11.9971,11.9971,11.9971,11.9971,11.9971,11.9971,12.1262,12.5742,12.6653,12.6653,12.6653,12.6653,12.6653,12.6653,12.6653,12.7489,12.9767,13.007,13.007,13.007,12.9685,12.957,12.9994,12.9607,12.939,12.939,12.8572,12.8106,12.8106,12.8106,12.8106,12.8106,12.8106,12.8106,12.8106,12.8106,12.8106,12.8106,12.8106,12.8106,7.4232,7.0571,6.9663,7.2107,7.3935,7.4706,7.3165,7.2808,7.1866,6.8685,6.8029,6.7544,6.6059,6.5787,6.386,0.0,6.1946,0.0,0.0,6.3975,7.1524,7.7513,8.1502,8.4424,8.5994,9.078,9.5042,9.8342,10.0053,10.1783,10.3768,10.4037,10.5136,10.7132,10.9028,11.0024,11.0024,11.0024,11.0024,11.0024,11.0024,11.0024,11.0024,11.0024,11.0024,11.0024,11.0024,11.0024,11.0024,11.0024,11.1011,11.253,11.2606,11.4656,11.7693,11.9364,11.9971,11.9971,11.9971,11.9971,11.9971,11.9971,11.9971,11.9971,11.9971,11.9971,11.9971,11.9971,11.9971,11.9971,11.9971,11.9971,11.9971,11.9971,11.9971,11.9971,11.9971,11.9971,11.9971,11.9971,11.9971,11.9971,11.9971,11.9971,11.9971,11.9971,11.9971,12.2325,12.8855,12.9691,12.9691,12.9691,12.8797,12.864,12.9912,12.8875,12.8143,12.8141,12.8143,12.8106,12.8106,12.8106,12.8106,12.8106,12.8106,12.8106,12.8106,12.8106,12.8106,12.8106,12.8106,12.8106,7.1521,7.0091,7.0042,6.9513,7.0639,7.1709,7.1295,7.0282,6.9113,6.8172,6.8029,0.0,0.0,0.0,6.8641,6.6928,0.0,7.0604,6.7665,7.1647,7.7022,8.2602,8.3582,8.4873,8.7648,9.4594,9.8772,9.8566,10.0053,10.2382,10.5775,10.4825,10.573,10.9105,10.972,11.0024,11.0024,11.0024,11.0024,11.0024,11.0024,11.0024,11.0024,11.0024,11.0024,11.0024,11.0024,11.0024,11.0024,11.0024,11.1011,11.2682,11.3897,11.6403,11.9288,11.9744,11.9971,11.9971,11.9971,11.9971,11.9971,11.9971,11.9971,11.9971,11.9971,11.9971,11.9971,11.9971,11.9971,11.9971,11.9971,11.9971,11.9971,11.9971,11.9971,11.9971,11.9971,11.9971,11.9971,11.9971,11.9971,11.9971,11.9971,11.9971,11.9971,11.9971,11.9971,12.0579,12.2477,12.2705,12.2705,12.2705,12.6826,12.9687,12.9994,12.8875,12.8533,12.9433,12.8636,12.8106,12.8106,12.8106,12.8106,12.8106,12.8106,12.8106,12.8106,12.8106,12.8106,12.8106,12.8106,12.8106,6.8997,6.8123,6.8284,6.7272,6.8841,7.0581,7.0581,6.9782,6.9126,6.9126,0.0,0.0,0.0,0.0,0.0,0.0,7.1653,7.4016,7.1706,7.608,8.134,8.6117,8.7427,8.8836,9.1462,9.7276,10.0578,9.9745,10.1196,10.3534,10.6714,10.5917,10.6804,10.9948,11.0024,11.0024,11.0024,11.0024,11.0024,11.0024,11.0024,11.0024,11.0024,11.0024,11.0024,11.0024,11.0024,11.0024,11.0024,11.0024,11.1467,11.3745,11.4656,11.663,11.8984,11.9668,11.9971,11.9971,11.9971,11.9971,11.9971,11.9971,11.9971,11.9971,11.9971,11.9971,11.9971,11.9971,11.9971,11.9971,11.9971,11.9971,11.9971,11.9971,11.9971,11.9971,11.9971,11.9971,11.9971,11.9971,11.9971,11.9971,11.9971,11.9971,11.9971,11.9971,11.9971,11.9971,11.9971,11.9971,11.9971,11.9971,12.3464,12.5818,12.5818,12.5103,12.4805,12.5048,12.6982,12.8106,12.8106,12.8106,12.8106,12.8106,12.8106,12.8106,12.8106,12.8106,12.8106,12.8106,12.8106,12.8106,6.651,6.508,6.5002,6.5358,6.7642,6.9854,7.0424,0.0,7.1006,7.1149,0.0,7.1587,7.1587,0.0,0.0,6.6141,7.2065,7.6178,7.3236,7.9255,8.5419,8.9333,9.2126,9.4444,9.6164,9.8921,10.0773,10.1217,10.2706,10.4525,10.6943,10.7123,10.801,10.9948,11.0024,11.0024,11.0024,11.0024,11.0024,11.0024,11.0024,11.0024,11.0024,11.0024,11.0024,11.0024,11.0024,11.0024,11.0024,11.0024,11.1923,11.4808,11.5188,11.6327,11.7845,11.9364,11.9971,11.9971,11.9971,11.9971,11.9971,11.9971,11.9971,11.9971,11.9971,11.9971,11.9971,11.9971,11.9971,11.9971,11.9971,11.9971,11.9971,11.9971,11.9971,11.9971,11.9971,11.9971,11.9971,11.9971,11.9971,11.9971,11.9971,11.9971,11.9971,11.9971,11.9971,11.9894,11.9724,11.9891,11.9971,11.9971,11.9971,11.9971,11.9971,11.9811,11.9388,11.8419,12.3926,12.7141,12.7141,12.7141,12.7093,12.6985,12.772,12.8106,12.8106,12.8106,12.7733,12.6973,12.6973,12.6973,6.3221,6.1492,6.0637,6.3205,6.4275,6.5774,0.0,0.0,0.0,7.4874,7.6517,7.7779,7.7779,7.8841,7.9402,7.8463,8.1282,8.2906,8.0919,8.6842,9.2708,9.6239,9.6024,9.6164,9.7893,9.8641,9.9675,10.1179,10.1591,10.3334,10.6883,10.7128,10.801,10.9948,11.0024,11.0024,11.0024,11.0024,11.0024,11.0024,11.0024,11.0024,11.0024,11.0024,11.0024,11.0024,11.0024,11.0024,11.0024,11.0024,11.1239,11.3289,11.5947,11.7997,11.9516,11.982,11.9971,11.9971,11.9971,11.9971,11.9971,11.9971,11.9971,11.9971,11.9971,11.9971,11.9971,11.9971,11.9971,11.9971,11.9971,11.9971,11.9971,11.9971,11.9971,11.9971,11.9971,11.9971,11.9971,11.9971,11.9971,11.9971,11.9971,11.9971,11.9971,11.9971,11.9971,11.9599,11.8678,11.9388,11.9971,11.9971,11.9971,11.9971,11.9971,11.9067,11.8791,11.958,12.0809,12.149,12.149,12.149,12.1029,12.0139,12.5339,12.8106,12.8106,12.8106,12.5339,12.0104,12.0104,12.0104,6.2073,6.0748,6.0435,6.2777,6.4548,0.0,0.0,7.256,7.4118,7.6801,7.8933,8.0377,8.0602,8.1982,8.3072,8.3072,8.5059,8.6908,8.8036,9.2671,9.6697,9.8342,9.923,10.0053,10.0875,10.0202,10.0091,10.1014,10.2113,10.4075,10.7111,10.8105,10.9027,10.9948,11.0024,11.0024,11.0024,11.0024,11.0024,11.0024,11.0024,11.0024,11.0024,11.0024,11.0024,11.0024,11.0024,11.0024,11.01,11.0936,11.2302,11.4049,11.6479,11.8453,11.9971,11.9971,11.9971,11.9971,11.9971,11.9971,11.9971,11.9971,11.9971,11.9971,11.9971,11.9971,11.9971,11.9971,11.9971,11.9971,11.9971,11.9971,11.9971,11.9971,11.9971,11.9971,11.9971,11.9971,11.9971,11.9971,11.9971,11.9971,11.9971,11.9971,11.9971,11.9971,11.9971,11.9718,11.9137,11.959,11.9971,11.9971,11.9971,11.9711,11.9111,11.8485,11.8668,11.9892,11.9971,11.9971,11.9971,11.9971,11.9699,11.9078,12.1716,12.3096,12.3096,12.3096,12.1451,11.816,11.816,11.816,6.0696,6.009,6.0649,6.2849,6.5689,0.0,7.3079,7.4566,7.6123,7.9583,8.1774,8.316,8.3548,8.4756,8.5812,8.6107,8.7665,9.0221,9.4389,9.7286,9.924,9.9913,10.1997,10.3408,10.3408,10.1912,10.0754,10.0549,10.2816,10.5286,10.7822,10.9265,11.0024,11.0024,11.0024,11.0024,11.0024,11.0024,11.0024,11.0024,11.0024,11.0024,11.0024,11.0024,11.0024,11.0024,11.0024,11.0024,11.0176,11.1847,11.3745,11.5719,11.7238,11.8756,11.9971,11.9971,11.9971,11.9971,11.9971,11.9971,11.9971,11.9971,11.9971,11.9971,11.9971,11.9971,11.9971,11.9971,11.9971,11.9971,11.9971,11.9971,11.9971,11.9971,11.9971,11.9971,11.9971,11.9971,11.9971,11.9971,11.9971,11.9971,11.9971,11.9971,11.9971,11.9971,11.9971,11.9971,11.9971,11.9971,11.9971,11.9971,11.9971,11.9457,11.8283,11.816,11.8668,11.9892,11.9971,11.9971,11.9971,11.9971,11.9971,11.9971,11.9008,11.8445,11.816,11.816,11.816,11.816,11.816,11.816,5.6423,5.6916,5.7915,6.2266,6.5689,0.0,7.6358,8.0612,8.3721,8.6168,8.8455,9.005,9.0096,9.0255,9.0861,9.2279,9.269,9.4529,9.936,10.0417,10.1763,10.4764,10.4091,10.3408,10.3408,10.1912,10.0371,9.9277,10.2265,10.582,10.9568,10.9948,11.0024,11.0024,11.0024,11.0024,11.0024,11.0024,11.0024,11.0024,11.0024,11.0024,11.0024,11.0024,11.0024,11.0024,11.0024,11.0024,11.0176,11.1847,11.4352,11.7314,11.8984,11.9744,11.9971,11.9971,11.9971,11.9971,11.9971,11.9971,11.9971,11.9971,11.9971,11.9971,11.9971,11.9971,11.9971,11.9971,11.9971,11.9971,11.9971,11.9971,11.9971,11.9971,11.9971,11.9971,11.9971,11.9971,11.9971,11.9971,11.9971,11.9971,11.9971,11.9971,11.9971,11.9971,11.9971,11.9971,11.9971,11.9971,11.9971,11.9971,11.9971,11.9457,11.8283,11.816,11.8668,11.9892,11.9971,11.9971,11.9971,11.9971,11.9971,11.9971,11.981,11.922,11.816,11.816,11.816,11.816,11.816,11.816,5.4733,5.6357,5.8854,6.3562,0.0,0.0,7.7427,8.0752,8.3542,8.5866,8.8613,9.0701,9.1101,9.2715,9.422,9.4893,9.579,9.7136,9.923,10.1164,10.2884,10.4315,10.5511,10.5511,10.3557,10.2735,10.1326,9.892,10.2112,10.4884,10.6555,10.8794,11.0024,11.0024,11.0024,11.0024,11.0024,11.0024,11.0024,11.0024,11.0024,11.0024,11.0024,11.0024,11.0024,11.01,11.1087,11.1467,11.1695,11.4277,11.6175,11.7618,11.9288,11.9971,11.9971,11.9971,11.9971,11.9971,11.9971,11.9971,11.9971,11.9971,11.9971,11.9971,11.9971,11.9971,11.9971,11.9971,11.9971,11.9971,11.9971,11.9971,11.9971,11.9971,11.9971,11.9971,11.9971,11.9971,11.9971,11.9971,11.9971,11.9971,11.9971,11.9971,11.9971,11.9971,11.9971,11.9971,11.9971,11.9971,11.9971,11.9971,11.9293,11.8708,11.8239,11.8845,11.9431,11.9895,11.9971,11.9971,11.9971,12.3692,12.3996,12.0047,11.9971,11.9709,11.9201,11.9201,11.9201,11.9263,12.2497,12.1888,5.3953,0.0,0.0,0.0,0.0,0.0,7.9584,8.1961,8.4,8.5888,8.8822,9.1229,9.1765,9.4145,9.6164,9.6622,9.7744,9.8716,9.9165,10.1249,10.3034,10.4016,10.581,10.596,10.3632,10.2959,10.1606,9.8833,10.1628,10.3687,10.4282,10.7483,10.9569,11.0024,11.0024,11.0024,11.0024,11.0024,11.0024,11.0024,11.0024,11.0024,11.0024,11.0024,11.0024,11.01,11.1847,11.2834,11.3517,11.6782,11.8073,11.8225,11.944,11.9971,11.9971,11.9971,11.9971,11.9971,11.9971,11.9971,11.9971,11.9971,11.9971,11.9971,11.9971,11.9971,11.9971,11.9971,11.9971,11.9971,11.9971,11.9971,11.9971,11.9971,11.9971,11.9971,11.9971,11.9971,11.9971,11.9971,11.9971,11.9971,11.9971,11.9971,11.9971,11.9971,11.9971,11.9971,11.9971,11.9971,11.9971,11.9971,12.0848,12.1472,12.1472,12.2263,12.2705,12.2705,12.0958,11.9971,11.9971,12.6426,12.7716,12.2857,12.2705,12.1794,11.9971,12.1794,12.1794,12.0047,12.3674,12.3757,0.0,0.0,0.0,6.9781,7.4215,7.8515,8.3929,8.6341,8.7681,8.8367,9.1136,9.3379,9.3388,9.4893,9.6547,9.8193,9.8492,9.909,10.0566,10.093,10.2211,10.5437,10.4539,10.3482,10.3408,10.1912,10.0389,9.9027,10.0679,10.2541,10.4458,10.6519,10.8354,10.9948,11.0024,11.0024,11.0024,11.0024,11.0024,11.0024,11.0024,11.0024,11.0024,11.0024,11.0024,11.01,11.1847,11.3517,11.5264,11.8529,11.982,11.982,11.9895,11.9971,11.9971,11.9971,11.9971,11.9971,11.9971,11.9971,11.9971,11.9971,11.9971,11.9971,11.9971,11.9971,11.9971,11.9971,11.9971,11.9971,11.9971,11.9971,11.9971,11.9971,11.9971,11.9971,11.9971,11.9971,11.9971,11.9971,11.9971,11.9971,11.9971,11.9971,11.9971,11.9971,11.9971,11.9971,11.9971,11.9971,11.9971,11.9971,12.5818,12.9689,12.9689,12.9766,12.9767,12.9767,12.354,11.9971,11.9971,12.6426,12.9918,12.9767,12.9767,12.6501,11.9971,12.6577,12.635,11.9895,11.8958,12.1825,5.6357,6.0674,6.5545,7.3338,7.817,8.1835,8.4645,8.7745,9.0078,9.0296,9.2949,9.5192,9.5192,9.6547,9.7893,9.8417,9.8566,9.8716,9.923,10.0192,10.1688,10.4016,10.4764,10.5063,10.5063,10.3557,10.1905,10.035,10.0945,10.2294,10.4219,10.6134,10.8109,10.9948,11.0024,11.0024,11.0024,11.0024,11.0024,11.0024,11.0024,11.0024,11.0024,11.0024,11.0024,11.0176,11.2986,11.458,11.534,11.8605,11.9971,11.9971,11.9971,11.9971,11.9971,11.9971,11.9971,11.9971,11.9971,11.9971,11.9971,11.9971,11.9971,11.9971,11.9971,11.9971,11.9971,11.9971,11.9971,11.9971,11.9971,11.9971,11.9971,11.9971,11.9971,11.9971,11.9971,11.9971,11.9971,11.9971,11.9971,11.9971,11.9971,11.9971,11.9971,11.9971,11.9971,11.9971,11.9971,11.9971,11.9971,11.9971,12.1946,12.5135,12.9691,13.007,13.007,13.007,12.7868,12.4603,12.0123,12.2097,12.5438,12.9918,13.007,12.8931,12.6653,12.8931,12.8855,12.6653,12.6258,12.7284,5.9688,6.4774,6.9982,7.7401,8.1732,8.4508,8.6127,8.8949,9.1145,9.1145,9.3771,9.6015,9.6015,9.737,9.8566,9.8566,9.8566,9.8566,9.8566,9.938,10.0641,10.2286,10.4016,10.5063,10.5063,10.4091,10.2735,10.1005,10.058,10.1295,10.3186,10.5151,10.7098,10.9037,10.9721,11.0024,11.0024,11.0024,11.0024,11.0024,11.0024,11.0024,11.0024,11.0024,11.0024,11.0252,11.3593,11.5112,11.534,11.8605,11.9971,11.9971,11.9971,11.9971,11.9971,11.9971,11.9971,11.9971,11.9971,11.9971,11.9971,11.9971,11.9971,11.9971,11.9971,11.9971,11.9971,11.9971,11.9971,11.9971,11.9971,11.9971,11.9971,11.9971,11.9971,11.9971,11.9971,11.9971,11.9971,11.9971,11.9971,11.9971,11.9971,11.9971,11.9971,11.9971,11.9971,11.9971,11.9971,11.9971,12.0883,12.3312,12.1027,12.1032,12.5444,12.8444,13.007,13.007,13.007,12.8096,12.3768,12.354,12.559,12.9994,13.007,13.007,13.007,13.007,13.007,13.007,13.007,13.007,6.3183,6.9793,7.6286,8.1861,8.4673,8.6526,8.8246,9.0032,9.1295,9.1295,9.3921,9.6164,9.6164,9.7445,9.8566,9.8566,9.8566,9.8566,9.8566,9.8566,9.9165,10.0716,10.2286,10.3333,10.3557,10.3408,10.266,10.1155,9.9713,9.9748,10.1588,10.3394,10.5347,10.7443,10.9037,10.9948,11.0024,11.0024,11.0024,11.0024,11.0024,11.0024,11.0024,11.0024,11.0024,11.0328,11.3745,11.5188,11.5415,11.8605,11.9971,11.9971,11.9971,11.9971,11.9971,11.9971,11.9971,11.9971,11.9971,11.9971,11.9971,11.9971,11.9971,11.9971,11.9971,11.9971,11.9971,11.9971,11.9971,11.9971,11.9971,11.9971,11.9971,11.9971,11.9971,11.9971,11.9971,11.9971,11.9971,11.9971,11.9971,11.9971,11.9971,11.9971,12.0047,12.0427,12.0199,11.9971,11.9971,11.9971,12.2553,12.9311,12.328,11.8808,11.8808,12.5739,13.007,13.007,13.007,13.007,13.007,13.007,13.007,13.007,13.007,13.007,13.007,13.007,13.007,13.007,13.007,13.007,6.4963,7.2226,7.8158,8.4808,8.6258,8.6526,8.8246,9.0855,9.294,9.294,9.5566,9.7893,9.7893,9.8267,9.8566,9.8566,9.8566,9.8566,9.8566,9.8566,9.9165,10.0716,10.1314,10.251,10.5063,10.3034,10.1912,10.2735,10.0175,9.9547,10.1578,10.2115,10.3968,10.7367,10.7898,10.8734,11.0024,11.0024,11.0024,11.0024,11.0024,11.0024,11.0024,11.0024,11.0708,11.2075,11.5415,11.6858,11.701,11.906,11.9971,11.9971,11.9971,11.9971,11.9971,11.9971,11.9971,11.9971,11.9971,11.9971,11.9971,11.9971,11.9971,11.9971,11.9971,11.9971,11.9971,11.9971,11.9971,11.9971,11.9971,11.9971,11.9971,11.9971,11.9971,11.9971,11.9971,11.9971,11.9971,11.9971,11.9971,11.9971,11.9971,11.9971,12.1642,12.6729,12.316,11.9971,11.9971,11.9971,12.2553,12.9311,12.8209,12.7,12.7,12.8839,13.007,13.007,13.007,13.007,13.007,13.007,13.007,13.007,13.007,13.007,13.007,13.007,13.007,13.007,13.007,13.007,6.5395,7.409,8.1277,8.5538,8.6937,8.7498,8.8396,9.0631,9.2641,9.3388,9.5042,9.6323,9.6323,9.6921,9.7445,9.7445,9.8043,9.8566,9.8566,9.8566,9.8866,9.9753,10.0492,10.1912,10.4614,10.3108,10.2361,10.3333,10.1156,9.9991,10.059,10.1396,10.3237,10.6304,10.7139,10.8278,11.0024,11.0024,11.0024,11.0024,11.0024,11.0024,11.0024,11.0784,11.1619,11.2758,11.6023,11.739,11.7542,11.9212,11.9971,11.9971,11.9971,11.9971,11.9971,11.9971,11.9971,11.9971,11.9971,11.9971,11.9971,11.9971,11.9971,11.9971,11.9971,11.9971,11.9971,11.9971,11.9971,11.9971,11.9956,11.995,11.9798,11.9266,11.919,11.9342,11.9798,11.954,11.935,11.9806,11.9911,11.9947,11.9971,11.9516,12.1642,12.8931,12.6805,12.4375,12.4375,12.4375,12.5818,12.9615,13.007,13.007,13.007,13.007,13.007,13.007,13.007,13.007,13.007,13.007,13.007,13.007,13.007,13.007,13.007,13.007,13.007,13.007,13.007,13.0022,6.5867,7.5134,8.3282,8.4668,8.659,8.8235,8.8459,8.9914,9.1519,9.294,9.3164,9.3239,9.3463,9.4893,9.6015,9.6015,9.7445,9.8566,9.8566,9.8566,9.8566,9.8566,9.9753,10.1239,10.2884,10.3108,10.3183,10.3408,10.2057,10.0803,9.9677,10.0968,10.2616,10.4557,10.6304,10.7974,10.9645,10.9873,11.0024,11.0024,11.0024,11.0024,11.01,11.1999,11.291,11.3062,11.6327,11.7769,11.7845,11.9364,11.9971,11.9971,11.9971,11.9971,11.9971,11.9971,11.9971,11.9971,11.9971,11.9971,11.9971,11.9971,11.9971,11.9971,11.9971,11.9971,11.9971,11.9971,11.9971,11.9969,11.9913,11.9962,11.9656,11.8594,11.8258,11.8538,11.9624,11.8944,11.8456,11.9489,11.9693,11.9778,11.9893,11.982,12.2097,12.9007,13.007,13.007,13.007,13.007,13.007,13.007,13.007,13.007,13.007,13.007,13.007,13.007,13.007,13.007,13.007,13.007,13.007,13.007,13.007,13.007,13.007,13.007,13.007,13.007,12.9838,12.9899,6.9302,7.4266,7.7855,8.2385,8.4622,8.6115,8.7546,8.9592,9.122,9.1519,9.1594,9.1968,9.3239,9.4893,9.6015,9.6015,9.7445,9.8566,9.8566,9.8566,9.8566,9.8566,9.8791,9.9604,10.1164,10.1304,10.1912,10.3333,10.2057,10.1249,10.125,10.0428,10.0869,10.2811,10.4557,10.6228,10.7898,10.9341,11.0024,11.0024,11.0024,11.0024,11.01,11.3213,11.4656,11.4808,11.8073,11.9516,11.9516,11.982,11.9971,11.9971,11.9971,11.9971,11.9971,11.9971,11.9971,11.9971,11.9971,11.9971,11.9971,11.9971,11.9971,11.9971,11.9971,11.9971,11.9971,11.9971,11.9971,11.9971,11.9969,11.9968,11.9816,11.9133,11.8862,11.8813,11.922,11.8712,11.8213,11.849,11.8462,11.8753,11.9742,12.4451,12.8476,12.9842,13.007,13.007,13.007,13.007,13.007,13.007,13.007,13.007,13.007,13.007,13.007,13.007,13.007,13.007,13.007,13.007,13.007,13.007,13.007,13.007,13.007,13.007,13.007,12.9994,12.8924,12.9023,6.771,7.2586,7.6513,8.0353,8.2937,8.5102,8.6798,8.8301,8.9278,8.8926,8.8862,8.9403,9.1328,9.3026,9.4606,9.5828,9.7445,9.8566,9.8566,9.8566,9.8566,9.8566,9.8566,9.9165,10.0716,10.0856,10.1613,10.3258,10.2057,10.1318,10.1484,10.0224,10.039,10.2178,10.3188,10.4861,10.7443,10.8278,10.9113,11.0024,11.0024,11.0024,11.01,11.2606,11.4656,11.6403,11.8832,11.9971,11.9971,11.9971,11.9971,11.9971,11.9971,11.9971,11.9971,11.9971,11.9971,11.9971,11.9971,11.9971,11.9971,11.9971,11.9971,11.9971,11.9971,11.9971,11.9971,11.9971,11.9971,11.9895,11.9722,11.9712,11.9636,11.9333,11.9245,11.9217,11.9536,11.8991,11.8614,11.9014,11.8584,11.8526,11.9741,12.2623,12.6014,12.9538,13.007,13.007,13.007,13.007,13.007,13.007,13.007,13.007,13.007,13.007,13.007,13.007,13.007,13.007,13.007,13.007,13.007,13.007,13.007,13.007,13.007,13.007,13.0066,13.0036,12.9379,12.9447,6.6798,7.2019,7.6702,7.9407,8.1213,8.3031,8.5423,8.661,8.7035,8.653,8.6616,8.7321,8.9431,9.1285,9.3233,9.5412,9.7294,9.8566,9.8566,9.8566,9.8566,9.8566,9.8566,9.9015,10.0267,10.0716,10.1613,10.3258,10.2057,10.1426,10.188,10.042,10.015,10.154,10.2121,10.3722,10.638,10.7139,10.8126,10.9493,10.9873,11.0024,11.01,11.215,11.4656,11.7542,11.9212,11.9971,11.9971,11.9971,11.9971,11.9971,11.9971,11.9971,11.9971,11.9971,11.9971,11.9971,11.9971,11.9971,11.9971,11.9971,11.9971,11.9971,11.9971,11.9971,11.9971,11.9971,11.9971,11.9894,11.9695,11.9597,11.959,11.9408,11.9451,11.9497,11.9724,11.9346,11.9168,12.0232,11.9319,11.9117,12.1289,12.0465,12.1934,12.8993,13.0069,13.007,13.007,13.007,13.007,13.007,13.007,13.007,13.007,13.007,13.007,13.007,13.007,13.007,13.007,13.007,13.007,13.007,13.007,13.007,13.007,13.0067,13.0041,13.0028,12.9892,12.9864,7.1225,7.4655,7.6967,8.1003,7.9352,7.7916,8.2484,8.4683,8.5699,8.5641,8.6187,8.7231,8.8785,9.0974,9.3091,9.4723,9.6972,9.8566,9.8566,9.8566,9.8566,9.8566,9.8566,9.8641,9.8716,10.0043,10.1613,10.3258,10.2057,10.2065,10.3849,10.1097,9.9725,10.0076,10.1596,10.2583,10.2887,10.5924,10.7595,10.7746,10.9265,11.0024,11.01,11.3365,11.5795,11.7542,11.9212,11.9971,11.9971,11.9971,11.9971,11.9971,11.9971,11.9971,11.9971,11.9971,11.9971,11.9971,11.9971,11.9971,11.9971,11.9971,11.9971,11.9971,11.9971,11.9971,11.9971,11.9971,11.9971,11.9971,11.9895,11.9895,11.9812,11.9583,11.9344,11.917,11.9246,11.9282,11.9846,12.1579,12.0369,12.0835,12.6386,12.2378,12.098,12.8881,13.0052,13.007,13.007,13.007,13.007,13.007,13.007,13.007,13.007,13.007,13.007,13.007,13.007,13.007,13.007,13.007,13.007,13.007,13.007,13.007,13.007,13.0024,13.0037,13.0025,12.943,12.9187,6.4146,6.8489,7.1569,7.3508,7.4369,7.5467,7.8322,7.875,7.9431,8.2844,8.5257,8.7157,8.8254,9.0696,9.3168,9.4721,9.6587,9.7973,9.8528,9.7669,9.737,9.8417,9.7669,9.7445,9.8417,9.909,10.0127,10.1763,10.0464,10.092,10.379,10.1068,9.992,10.1182,10.0985,10.1444,10.2431,10.3798,10.6,10.9037,10.9721,11.0556,11.1619,11.496,11.6858,11.7542,11.9212,11.9971,11.9971,11.9971,11.9971,11.9971,11.9971,11.9971,11.9971,11.9971,11.9971,11.9971,11.9971,11.9971,11.9971,11.9971,11.9971,11.9971,11.9971,11.9971,11.9971,11.9971,11.9971,11.9971,11.9971,11.9809,11.9692,11.9568,11.95,11.9369,11.9369,11.9329,11.9943,12.2299,12.1984,12.2154,12.5107,12.5159,12.5976,12.9545,12.9389,12.9183,12.9918,13.0056,13.0058,13.0069,13.0042,13.007,13.007,13.007,13.007,13.007,13.007,13.007,13.007,13.007,13.007,13.007,13.007,12.9913,12.9722,12.9675,12.9589,12.945,12.9223,12.901,5.8973,6.3557,6.706,6.82,7.0089,7.2348,7.4936,7.421,7.4543,7.9928,8.3084,8.5252,8.6719,8.9414,9.1965,9.4054,9.6082,9.7571,9.8131,9.7425,9.722,9.8417,9.7519,9.722,9.8417,9.8566,9.9165,10.0781,9.9903,10.0584,10.3663,10.1429,10.0635,10.2025,10.1129,10.0989,10.1672,10.2659,10.5013,10.8582,10.9569,11.1163,11.3365,11.6175,11.739,11.7542,11.9212,11.9971,11.9971,11.9971,11.9971,11.9971,11.9971,11.9971,11.9971,11.9971,11.9971,11.9971,11.9971,11.9971,11.9971,11.9971,11.9971,11.9971,11.9971,11.9971,11.9971,11.9971,11.9971,11.9971,11.9971,11.9715,11.9554,11.9554,11.9554,11.9539,11.9486,11.9706,12.0726,12.3027,12.322,12.3603,12.5293,12.6933,12.8353,12.9605,12.882,12.8395,12.9323,12.9457,12.9632,13.0021,13.0079,13.0034,13.0049,13.0067,13.007,13.007,13.007,13.007,13.007,13.007,13.007,13.007,12.9913,12.982,12.963,12.9465,12.9247,12.9046,12.9046,12.892,5.8835,6.2159,6.4993,6.7422,6.7312,6.7823,7.2724,7.2353,7.2401,7.7304,7.9186,8.0897,8.4015,8.6497,8.9164,9.2234,9.5365,9.7409,9.742,9.8079,9.8566,9.8566,9.8566,9.8566,9.8566,9.8566,9.9165,10.0781,10.0856,10.1756,10.37,10.2393,10.175,10.2083,10.2266,10.1596,9.9926,10.3266,10.4937,10.5089,10.843,11.1771,11.5112,11.6706,11.739,11.7542,11.9212,11.9971,11.9971,11.9971,11.9971,11.9971,11.9971,11.9971,11.9971,11.9971,11.9971,11.9971,11.9971,11.9971,11.9971,11.9971,11.9971,11.9971,11.9971,11.9971,11.9971,11.9971,11.9971,11.9971,11.9971,11.9715,11.9554,11.9554,11.9554,11.9431,11.9197,12.07,12.2447,12.3732,12.3978,12.5112,12.8598,12.7085,12.6262,12.8699,12.8503,12.808,12.8094,12.8156,12.8634,12.9933,13.001,13.0053,13.0068,13.0038,13.007,13.007,13.007,13.007,13.007,13.007,13.007,13.007,12.9638,12.9636,13.007,12.9394,12.9052,12.9046,12.9046,12.8858,5.4623,5.8529,6.1766,6.3911,6.5451,6.7144,6.9698,7.0527,7.1466,7.3866,7.5359,7.741,8.1175,8.5734,8.9357,9.0893,9.3277,9.5526,9.7127,9.7025,9.722,9.8417,9.7519,9.7295,9.8417,9.8566,9.8791,9.923,9.9305,10.0584,10.3655,10.2264,10.2544,10.5152,10.4364,10.3668,10.3137,10.4323,10.6152,10.843,10.9493,11.1163,11.3441,11.5036,11.6403,11.7466,11.7997,11.8749,11.969,11.969,11.969,11.9697,11.9892,11.9971,11.9971,11.9971,11.9971,11.9971,11.9971,11.9971,11.9971,11.9971,11.9971,11.9971,11.9971,11.9971,11.9971,11.9971,11.9971,11.9971,11.9971,11.9892,11.9722,11.9575,12.021,12.052,11.9375,12.1397,12.3548,12.392,12.5118,12.6745,12.9023,12.8386,12.7912,12.8995,12.8571,12.81,12.8096,12.8082,12.84,12.928,12.8976,12.8915,12.9377,12.9784,12.9913,12.9563,12.9835,13.007,13.007,13.007,12.9913,12.9634,12.9819,12.9593,12.8945,12.904,12.886,12.8447,12.8447,12.8353,5.1627,5.5993,5.9741,6.1564,6.3147,6.4642,6.6113,6.7524,6.9028,7.0685,7.1761,7.3753,7.8094,8.3081,8.6778,8.7512,9.0427,9.3417,9.5724,9.6342,9.6764,9.7501,9.722,9.7146,9.7594,9.8193,9.8566,9.8566,9.909,10.0652,10.3501,10.2752,10.3531,10.6452,10.5829,10.5144,10.4597,10.5353,10.72,10.9857,10.9754,11.0379,11.1619,11.3282,11.4574,11.5567,11.6251,11.7297,11.8565,11.8565,11.8907,11.9384,11.957,11.9703,11.9803,11.9803,11.989,11.9971,11.9971,11.9971,11.9971,11.9971,11.9971,11.9971,11.9971,11.9971,11.9971,11.9971,11.9971,11.9971,11.9971,11.9971,11.9894,11.9712,12.0776,12.1359,11.9688,12.1781,12.4088,12.42,12.5548,12.7254,12.9165,12.8913,12.8605,12.8882,12.8467,12.8126,12.8126,12.8082,12.825,12.8666,12.8365,12.8397,12.9085,12.9527,12.9729,12.9346,12.9825,13.007,13.007,13.007,12.983,12.9494,12.9604,12.9386,12.869,12.8799,12.8649,12.8233,12.8233,12.8183,4.9657,5.4246,5.8507,5.9972,6.0563,6.1109,6.2378,6.372,6.5406,6.7437,6.8102,6.9769,7.4509,7.8927,8.2171,8.3111,8.7036,9.0855,9.3463,9.5699,9.6839,9.6051,9.7463,9.7856,9.6164,9.7594,9.8566,9.8566,9.9903,10.1464,10.3108,10.3534,10.4573,10.6279,10.6666,10.6194,10.4866,10.6476,10.8083,10.9611,10.9352,10.9541,11.0023,11.1329,11.217,11.2604,11.4123,11.5536,11.6784,11.6935,11.7732,11.8945,11.9096,11.9272,11.9536,11.9548,11.9701,11.9895,11.9895,11.9895,11.9971,11.9895,11.9895,11.9971,11.9971,11.9971,11.9971,11.9971,11.9895,11.9895,11.9971,11.9971,11.9971,12.0123,12.1262,12.1934,12.025,12.2098,12.4251,12.463,12.5554,12.6979,12.9011,12.886,12.8469,12.8497,12.8277,12.8106,12.8106,12.8063,12.8113,12.8093,12.8074,12.8393,12.9117,12.9321,12.9368,12.9396,12.9737,12.9992,12.9994,12.9993,12.9816,12.9383,12.9183,12.9021,12.8976,12.8632,12.8487,12.845,12.845,12.8341,4.71,5.1237,5.5483,5.6965,5.9878,6.2115,6.1306,6.2227,6.2832,6.1234,6.3522,6.6431,6.8472,7.3982,7.9912,8.5154,8.5808,8.7377,9.2276,9.4021,9.4788,9.5087,9.665,9.7208,9.6127,9.7594,9.8566,9.8566,9.8866,9.9828,10.1389,10.2777,10.4266,10.5979,10.7415,10.8041,10.7746,10.838,10.9027,10.9611,10.9352,10.939,10.973,10.9876,11.0568,11.1839,11.2217,11.3213,11.4579,11.5855,11.6628,11.7073,11.828,11.8957,11.9258,11.9504,11.9575,11.9675,11.9675,11.9722,11.9895,11.9703,11.9799,11.9971,11.9971,11.9971,11.9971,11.9971,11.9803,11.9695,11.9893,11.9971,12.0275,12.1566,12.1795,12.1947,12.2802,12.4278,12.5507,12.5392,12.6747,12.8126,12.8639,12.8419,12.8255,12.845,12.8277,12.8106,12.8106,12.8078,12.8113,12.8119,12.809,12.8288,12.8628,12.8523,12.8605,12.9128,12.9218,12.9406,12.9614,12.9422,12.9117,12.8761,12.8956,12.8844,12.831,12.8448,12.8379,12.8172,12.8172,12.8176,4.7001,5.0988,5.4293,5.3808,5.5909,5.7945,5.7145,5.8076,5.8857,5.7972,5.9599,6.2569,6.6861,6.9733,7.3599,8.018,8.1968,8.446,8.9849,9.2521,9.4115,9.4784,9.6004,9.6599,9.6061,9.6846,9.7744,9.8492,9.8566,9.923,10.0781,10.251,10.4165,10.5885,10.7582,10.8568,10.8691,10.8738,10.8947,10.9177,10.894,10.9044,10.9414,10.9157,10.9552,11.0524,11.0524,11.1253,11.2629,11.3525,11.431,11.5086,11.6663,11.7348,11.7697,11.8682,11.91,11.9116,11.9309,11.9497,11.9557,11.9384,11.9551,11.9712,11.959,11.9686,11.9795,11.9795,11.9565,11.9373,11.9548,11.957,12.0025,12.1616,12.2366,12.2907,12.3809,12.504,12.6012,12.6032,12.662,12.7471,12.8318,12.8288,12.8141,12.832,12.8172,12.8106,12.8106,12.8106,12.8106,12.8106,12.8106,12.8164,12.8267,12.8148,12.8288,12.8753,12.8792,12.8962,12.9266,12.9139,12.888,12.8515,12.8682,12.8533,12.8106,12.821,12.821,12.8106,12.8106,12.8106,4.745,5.1096,5.3174,5.1145,5.148,5.2275,5.2129,5.3217,5.4464,5.5529,5.6202,5.8683,6.5396,6.6038,6.7164,7.2341,7.7183,8.2073,8.7174,9.1049,9.3575,9.4271,9.5262,9.5781,9.5631,9.5865,9.6697,9.8417,9.8566,9.9165,10.0492,10.2136,10.3781,10.5511,10.7082,10.8125,10.8594,10.8359,10.8398,10.8691,10.8388,10.8551,10.9151,10.8798,10.8798,10.9093,10.9093,10.9749,11.0775,11.1001,11.1821,11.3064,11.4709,11.5457,11.5886,11.749,11.8291,11.8627,11.8964,11.909,11.9125,11.9078,11.9258,11.9486,11.9208,11.9296,11.9435,11.9403,11.9253,11.9072,11.9119,11.9131,11.966,12.1464,12.2719,12.3816,12.4552,12.5315,12.6106,12.6685,12.6369,12.6477,12.8163,12.8222,12.8106,12.8106,12.8106,12.8106,12.8106,12.8106,12.8106,12.8106,12.8106,12.8106,12.8106,12.8106,12.8183,12.8438,12.8469,12.8657,12.8948,12.8942,12.8792,12.8402,12.8468,12.832,12.8106,12.8106,12.8106,12.8106,12.8106,12.8106,4.5807,4.7254,4.8948,5.0491,5.0852,5.0624,4.9728,5.0392,5.1007,5.0311,5.2832,5.5534,5.6733,6.3147,6.7792,6.661,7.3334,8.0646,8.6278,8.9282,9.1166,9.1827,9.3718,9.4752,9.395,9.5192,9.6697,9.8417,9.8566,9.8641,9.8866,10.0417,10.2062,10.3707,10.5437,10.6973,10.8326,10.833,10.8398,10.8691,10.8388,10.8445,10.87,10.8491,10.8376,10.8453,10.8453,10.8555,10.886,11.0282,11.098,11.1355,11.3064,11.4485,11.5692,11.6004,11.7169,11.8586,11.8652,11.8895,11.909,11.8786,11.8937,11.9192,11.9142,11.9165,11.9148,11.8791,11.8724,11.8755,11.906,11.9131,11.9887,12.2913,12.2533,12.272,12.6872,12.6634,12.6091,12.7607,12.7778,12.7832,12.8078,12.8093,12.8106,12.8106,12.8106,12.8106,12.8106,12.8106,12.8106,12.8106,12.8106,12.8106,12.8106,12.8106,12.8143,12.8164,12.8338,12.8419,12.8252,12.8468,12.8458,12.8188,12.8176,12.8129,12.8106,12.8106,12.8106,12.8106,12.8106,12.8106,4.5867,4.8103,4.9954,5.0899,5.0535,4.9763,4.9274,4.9033,4.8725,4.8249,5.0022,5.2331,5.4408,5.9417,6.3879,6.5796,7.0427,7.5606,8.0704,8.6202,9.0136,9.1233,9.3007,9.4318,9.4791,9.4743,9.5715,9.8342,9.8566,9.8566,9.8566,10.0043,10.1688,10.3333,10.5063,10.6259,10.7017,10.784,10.8336,10.8482,10.8326,10.8336,10.8482,10.8326,10.8288,10.8288,10.8288,10.8288,10.8363,10.9111,10.941,10.956,11.128,11.2391,11.3224,11.5008,11.6229,11.712,11.802,11.8476,11.8623,11.8399,11.8583,11.8816,11.8661,11.8659,11.8614,11.8389,11.832,11.8605,11.9733,12.0013,12.0841,12.4067,12.4186,12.4376,12.7624,12.7561,12.7197,12.7945,12.8106,12.8106,12.8106,12.8106,12.8106,12.8106,12.8106,12.8106,12.8106,12.8106,12.8106,12.8106,12.8106,12.8106,12.8106,12.8106,12.8106,12.8106,12.8229,12.8252,12.8119,12.8229,12.824,12.8106,12.8106,12.8106,12.8106,12.8106,12.8106,12.8106,12.8106,12.8106,4.764,0.0,5.218,5.2307,5.1061,4.9772,0.0,4.8594,4.7666,4.715,4.8114,4.9893,5.2863,5.6029,5.979,6.4752,6.8004,7.1418,7.5668,8.2471,8.7929,9.025,9.2089,9.3735,9.5003,9.4146,9.4743,9.7744,9.8342,9.8566,9.8566,9.9679,10.109,10.2735,10.4091,10.5137,10.596,10.7156,10.7915,10.8288,10.8288,10.8288,10.8288,10.8288,10.8288,10.8288,10.8288,10.8288,10.8288,10.8288,10.8288,10.8438,10.9709,11.0457,11.1141,11.3587,11.5008,11.5831,11.7102,11.7861,11.816,11.816,11.8303,11.841,11.8219,11.816,11.816,11.816,11.816,11.8459,11.9805,12.0404,12.1451,12.4281,12.5253,12.6075,12.772,12.8106,12.8106,12.8106,12.8106,12.8106,12.8106,12.8106,12.8106,12.8106,12.8106,12.8106,12.8106,12.8106,12.8106,12.8106,12.8106,12.8106,12.8106,12.8106,12.8106,12.8106,12.8106,12.8106,12.8106,12.8106,12.8106,12.8106,12.8106,12.8106,12.8106,12.8106,12.8106,12.8106,12.8106,12.8106,0.0,5.3344,5.382,5.501,5.3249,5.0936,4.9955,4.9277,0.0,4.6397,4.7587,4.9088,4.9349,5.3613,5.7931,6.0692,6.6099,7.1091,7.4329,7.8125,8.2404,8.7537,9.0654,9.2442,9.259,9.317,9.4295,9.6089,9.7669,9.8566,9.8566,9.8641,9.9454,10.1005,10.1155,10.2735,10.5885,10.6035,10.6857,10.8288,10.8288,10.8288,10.8288,10.8288,10.8288,10.8288,10.8288,10.8288,10.8288,10.8288,10.8288,10.8288,10.8438,10.941,11.0842,11.1056,11.3075,11.5681,11.5831,11.6878,11.816,11.816,11.8183,11.8216,11.8171,11.816,11.816,11.816,11.816,11.8235,11.831,11.9506,12.1151,12.2848,12.4418,12.6075,12.772,12.8106,12.8106,12.8106,12.8106,12.8106,12.8106,12.8106,12.8106,12.8106,12.8106,12.8106,12.8106,12.8106,12.8106,12.8106,12.8106,12.8106,12.8106,12.8106,12.8106,12.8106,12.8106,12.8106,12.8106,12.8106,12.8106,12.8106,12.8106,12.8106,12.8106,12.8106,12.8106,12.8106,12.8106,12.8106,5.3038,5.4843,5.6008,5.5666,5.4767,5.3461,5.1455,5.021,4.8766,4.6374,4.7528,4.8988,4.8988,5.3865,5.8853,6.153,6.6028,7.0355,7.4002,7.6203,7.9366,8.4467,8.8534,9.1079,9.1556,9.2746,9.422,9.5865,9.7594,9.8566,9.8566,9.8566,9.8791,9.938,10.0417,10.1538,10.2735,10.4913,10.6259,10.6857,10.784,10.8288,10.8288,10.8288,10.8288,10.8288,10.8288,10.8288,0.0,10.8288,10.8288,10.8288,10.8288,10.8662,10.9335,11.0382,11.1579,11.2776,11.3812,11.5307,11.6578,11.6578,11.7326,11.816,11.816,11.7476,11.6803,11.7924,11.816,11.8672,12.0691,12.1663,12.286,12.5552,12.6673,12.7346,12.7945,12.7272,12.6524,12.6524,12.5701,12.4954,12.4954,12.5851,12.6524,12.6524,12.7421,12.8106,12.8106,12.8106,12.8106,12.8106,12.8106,12.7272,12.5091,12.4954,12.4954,12.4954,12.4954,12.5402,12.6449,12.6524,12.7047,12.8094,12.8106,12.8106,12.8106,12.8106,12.8106,12.8106,12.8106,12.8106,5.4552,5.6157,5.7437,5.6887,5.6189,5.5142,5.3339,5.1525,4.9495,4.7005,4.755,4.8517,4.8517,5.3467,5.8423,6.1165,6.5572,6.9849,7.3309,7.4612,7.7192,8.2379,8.5677,8.8299,9.0292,9.1859,9.3463,9.5117,9.6772,9.7968,9.8566,9.8566,9.8566,9.8566,9.9604,10.0417,10.0856,10.3183,10.4838,10.596,10.7017,10.7765,10.8288,10.8288,10.8288,10.8288,10.8288,10.8288,10.8288,10.8288,10.8288,10.8288,10.8288,10.8288,10.8438,10.956,11.0308,11.0981,11.2092,11.3587,11.4933,11.4933,11.5681,11.6728,11.7251,11.6205,11.5158,11.6354,11.6653,11.7251,12.0007,12.1128,12.2262,12.5115,12.615,12.6524,12.6524,12.5627,12.4792,12.4792,12.382,12.3072,12.3072,12.3969,12.4792,12.4792,12.5776,12.6524,12.6524,12.6524,12.6524,12.6524,12.6524,12.5552,12.3222,12.3072,12.3072,12.3072,12.3072,12.3596,12.4729,12.4792,12.5327,12.6449,12.6524,12.6524,12.6524,12.7047,12.7272,12.7346,12.787,12.8106,5.7146,5.7495,5.7786,5.8981,5.7469,5.5607,5.5607,5.338,5.0691,4.828,4.7632,4.7429,4.7429,5.1826,5.6235,5.8721,6.4448,6.953,7.1941,7.308,7.5766,8.1529,8.2198,8.4028,8.8562,9.0294,9.1809,9.3388,9.5042,9.6772,9.8417,9.8566,9.8566,9.8566,9.8566,9.9305,10.0856,10.0856,10.2585,10.5885,10.5885,10.6783,10.8288,10.8288,10.8288,10.8288,10.8288,10.8288,10.8288,10.8288,10.8288,10.8288,10.8288,10.8288,10.8288,10.8288,10.9335,11.0767,11.0767,11.1878,11.3277,11.3277,11.3277,11.3587,11.5158,11.4559,11.3277,11.3352,11.3352,11.3651,11.5232,11.6878,11.8609,12.0329,12.1888,12.3072,12.3072,12.2997,12.2997,12.2997,12.2997,12.2997,12.2997,12.2997,12.2997,12.2997,12.2997,12.3072,12.3072,12.3072,12.3072,12.3072,12.2997,12.2997,12.2997,12.2997,12.2997,12.2997,12.2997,12.2997,12.2997,12.2997,12.2997,12.3072,12.3072,12.3072,12.3072,12.4729,12.5552,12.5627,12.7272,12.8019,5.4727,5.5458,5.648,5.7728,5.8109,5.776,5.6015,5.4926,5.3083,4.8708,4.8381,4.8793,4.8793,5.3843,5.8517,6.0238,6.5273,6.981,7.1986,7.2531,7.4648,7.9952,8.0958,8.2872,8.6982,8.8179,9.0037,9.3295,9.5042,9.6772,9.8417,9.8566,9.8566,9.8566,9.8566,9.8791,9.923,10.0342,10.1389,10.2436,10.4764,10.6184,10.6633,10.7765,10.8288,10.8288,10.8288,10.8288,10.8288,10.8288,10.8288,10.8288,10.8288,10.8288,10.8288,10.8288,10.8588,10.9036,10.9036,11.0158,11.1504,11.1504,11.2316,11.3213,11.2476,11.1878,11.1803,11.2989,11.3352,11.3427,11.3875,11.6055,11.8897,12.1663,12.2698,12.3072,12.3072,12.2187,12.1376,12.1376,12.0467,11.9644,11.9644,12.0616,12.1376,12.1376,12.2336,12.3072,12.3072,12.3072,12.3072,12.3072,12.099,11.9644,11.9644,11.9644,11.9644,11.9644,11.9644,12.0168,12.1376,12.1376,12.1888,12.2997,12.3072,12.3072,12.3072,12.3521,12.3745,12.382,12.4269,12.5178,5.3621,5.4236,5.5109,5.6448,5.767,5.805,5.6073,5.5607,5.456,5.0873,5.0252,5.0482,5.0957,5.5567,5.9695,6.0978,6.5253,6.9327,7.1961,7.2864,7.4906,7.935,8.0795,8.2658,8.5928,8.6831,8.8341,9.098,9.3586,9.5715,9.7445,9.8193,9.8566,9.8566,9.8566,9.8566,9.8566,9.9454,10.0267,10.093,10.2959,10.4614,10.596,10.6932,10.769,10.8288,10.8288,10.8288,10.8288,10.8288,10.8288,10.8288,10.8288,10.8288,10.8288,10.8288,10.8288,10.8288,10.8288,10.8962,10.9784,10.9784,11.0457,11.112,11.0083,10.9784,11.0009,11.1045,11.1269,11.1494,11.2167,11.426,11.7102,12.0317,12.114,12.114,12.114,12.0392,11.9731,11.9731,11.8908,11.816,11.816,11.9058,11.9731,11.9731,12.0467,12.114,12.114,12.114,12.114,12.114,11.9345,11.816,11.816,11.816,11.816,11.816,11.816,11.8684,11.9656,11.9731,12.0179,12.114,12.114,12.114,12.114,12.1813,12.2112,12.2112,12.2773,12.3596,5.3621,5.3621,5.397,5.5258,5.6506,5.7029,5.584,5.5607,5.52,5.3912,5.2747,5.2258,5.3562,5.7017,6.0098,6.1391,6.4874,6.8564,7.1754,7.3565,7.5931,7.9379,8.1205,8.3108,8.5291,8.6214,8.6989,8.7581,9.1177,9.3996,9.5491,9.7295,9.8417,9.8566,9.8566,9.8566,9.8566,9.8566,9.9305,10.0641,10.0781,10.251,10.5511,10.581,10.6708,10.8064,10.8214,10.8288,10.8288,10.8288,10.8288,10.8288,10.8288,10.8288,10.8288,10.8288,10.8288,10.8288,10.8288,10.8288,10.8288,10.8288,10.8288,10.8288,10.8288,10.8288,10.8288,10.8288,10.8363,10.8887,11.0382,11.2167,11.426,11.7251,11.8085,11.816,11.816,11.816,11.816,11.816,11.816,11.816,11.816,11.816,11.816,11.816,11.816,11.816,11.816,11.816,11.816,11.816,11.816,11.816,11.816,11.816,11.816,11.816,11.816,11.816,11.816,11.816,11.816,11.816,11.816,11.816,11.816,11.9731,12.0478,12.0478,12.1962,12.2698,5.3621,5.3621,5.397,5.5258,5.5782,5.5956,5.5666,5.5607,5.52,5.3912,5.3446,5.3621,5.4909,5.835,6.1459,6.273,6.6245,6.9286,7.0887,7.3179,7.5675,7.8359,8.0805,8.3108,8.5291,8.6214,8.6989,8.7581,9.0133,9.1818,9.2192,9.4968,9.7146,9.8492,9.8566,9.8566,9.8566,9.8566,9.8716,9.909,10.0267,10.1314,10.2062,10.4764,10.611,10.6483,10.7765,10.8288,10.8288,10.8288,10.8288,10.8288,10.8288,10.8288,10.8288,10.8288,10.8288,10.8288,10.8288,10.8288,10.8288,10.8288,10.8288,10.8288,10.8288,10.8288,10.8288,10.8288,10.9261,11.0308,11.0692,11.3,11.5307,11.6055,11.7177,11.816,11.816,11.816,11.816,11.816,11.816,11.816,11.816,11.816,11.816,11.816,11.816,11.816,11.816,11.816,11.816,11.816,11.816,11.816,11.816,11.816,11.816,11.816,11.816,11.816,11.816,11.816,11.816,11.816,11.816,11.816,11.816,11.8534,11.8758,11.8758,11.9046,11.9955,5.3621,5.3621,5.3795,5.4469,5.5142,5.5433,5.4818,5.5633,5.6157,5.4876,5.5076,5.5866,5.712,5.9627,6.2006,6.3979,6.656,6.8871,7.0524,7.3134,7.5759,7.8042,8.0858,8.3251,8.494,8.567,8.6413,8.7155,8.8639,8.9833,9.0578,9.2597,9.4818,9.7295,9.8118,9.8566,9.8566,9.8566,9.8566,9.8566,9.938,10.0192,10.093,10.2735,10.3941,10.4838,10.6409,10.7156,10.7231,10.7989,10.8288,10.8288,10.8288,10.8288,10.8288,10.8288,10.8288,10.8288,10.8288,10.8288,10.8288,10.8288,10.8288,10.8288,10.8288,10.8288,10.8288,10.8288,10.9485,11.0991,11.1803,11.3812,11.5905,11.6653,11.7551,11.816,11.816,11.816,11.816,11.816,11.816,11.816,11.816,11.816,11.816,11.816,11.816,11.816,11.816,11.816,11.816,11.816,11.816,11.816,11.816,11.816,11.816,11.816,11.816,11.816,11.816,11.816,11.816,11.816,11.816,11.816,11.816,11.816,11.816,11.816,11.816,11.8684,5.3621,5.3621,5.3621,5.3621,5.4494,5.4993,5.3912,5.5309,5.6622,5.5782,5.6448,5.7611,5.9039,6.0475,6.2304,6.4843,6.6607,6.828,7.0215,7.3405,7.6143,7.7604,8.0841,8.3304,8.4192,8.5035,8.5785,8.6413,8.6964,8.789,8.9345,9.039,9.2223,9.4921,9.7033,9.8267,9.8566,9.8566,9.8566,9.8566,9.8566,9.924,10.0492,10.0791,10.1613,10.3034,10.4764,10.5661,10.6035,10.7316,10.7989,10.8288,10.8288,10.8288,10.8288,10.8288,10.8288,10.8288,10.8288,10.8288,10.8288,10.8288,10.8288,10.8288,10.8288,10.8288,10.8288,10.8288,10.9709,11.1579,11.2989,11.4709,11.6429,11.7861,11.816,11.816,11.816,11.816,11.816,11.816,11.816,11.816,11.816,11.816,11.816,11.816,11.816,11.816,11.816,11.816,11.816,11.816,11.816,11.816,11.816,11.816,11.816,11.816,11.816,11.816,11.816,11.816,11.816,11.816,11.816,11.816,11.816,11.816,11.816,11.816,11.816,11.816,5.3621,5.3621,5.3621,5.3621,5.3795,5.3853,5.3679,5.3912,5.4436,5.5375,5.5724,5.6538,5.8865,6.0475,6.2246,6.4706,6.7345,6.9219,6.9386,7.3867,7.6752,7.5738,7.9952,8.3045,8.3175,8.4596,8.5554,8.5656,8.5756,8.6193,8.7112,8.9078,9.0357,9.0803,9.4387,9.7071,9.8566,9.8566,9.8566,9.8566,9.8566,9.8641,9.894,10.0267,10.1005,10.1314,10.3034,10.4614,10.596,10.6184,10.7007,10.8288,10.8288,10.8288,10.8288,10.8288,10.8288,10.8288,10.8288,10.8288,10.8288,10.8288,10.8288,10.8288,10.8288,10.8288,10.8288,10.8288,11.0521,11.3053,11.3288,11.5606,11.7924,11.8149,11.816,11.816,11.816,11.816,11.816,11.816,11.816,11.816,11.816,11.816,11.816,11.816,11.816,11.816,11.816,11.816,11.816,11.816,11.816,11.816,11.816,11.816,11.816,11.816,11.816,11.816,11.816,11.816,11.816,11.816,11.816,11.816,11.816,11.816,11.816,11.816,11.816,11.816,5.3621,5.3621,5.3621,5.3621,5.3621,5.3621,5.3621,5.4203,5.4702,5.4527,5.5691,5.7029,5.8135,6.0,6.2013,6.3828,6.6432,6.8138,6.8155,7.1601,7.4114,7.4062,7.7487,8.0357,8.1549,8.3153,8.4498,8.5436,8.551,8.567,8.601,8.7381,8.872,8.9943,9.1682,9.4104,9.7146,9.8118,9.8566,9.8566,9.8566,9.8566,9.8566,9.923,9.9604,9.9679,10.1314,10.2436,10.3183,10.4165,10.5511,10.6932,10.6932,10.7466,10.8288,10.8288,10.8288,10.8288,10.8288,10.8288,10.8288,10.8288,10.8288,10.8288,10.8288,10.8288,10.8288,10.8288,11.0746,11.3352,11.3352,11.5756,11.816,11.816,11.816,11.816,11.816,11.816,11.816,11.816,11.816,11.816,11.816,11.816,11.816,11.816,11.816,11.816,11.816,11.816,11.816,11.816,11.816,11.816,11.816,11.816,11.816,11.816,11.816,11.816,11.816,11.816,11.816,11.816,11.816,11.816,11.816,11.816,11.816,11.816,11.816,11.816,5.3621,5.3621,5.3621,5.3621,5.3621,5.3621,5.3621,5.4411,5.4818,5.3853,5.5192,5.6648,5.6971,5.8615,6.0535,6.254,6.5022,6.6905,6.7216,7.002,7.2256,7.2657,7.5125,7.7703,8.0039,8.1582,8.2923,8.419,8.4886,8.5282,8.5282,8.5968,8.7133,8.8801,8.9567,9.1418,9.4416,9.679,9.8118,9.8566,9.8566,9.8566,9.8566,9.8566,9.8566,9.8641,9.9753,10.08,10.1623,10.2595,10.4091,10.5671,10.5362,10.6259,10.769,10.769,10.7915,10.8139,10.7306,10.7007,10.7007,10.7007,10.7007,10.7082,10.7541,10.769,10.784,10.8662,11.1045,11.3427,11.3812,11.6055,11.816,11.816,11.816,11.816,11.816,11.816,11.816,11.816,11.816,11.816,11.816,11.816,11.816,11.816,11.816,11.816,11.816,11.816,11.816,11.816,11.816,11.816,11.816,11.816,11.816,11.816,11.816,11.816,11.816,11.816,11.816,11.816,11.816,11.816,11.816,11.816,11.816,11.816,11.816,11.816,5.3621,5.3621,5.3621,5.3621,5.3621,5.3621,5.3621,5.3703,5.3737,5.3679,5.3737,5.4261,5.5433,5.58,5.7108,6.0723,6.3752,6.5957,6.7128,7.0913,7.3081,7.1789,7.3778,7.6364,7.8964,8.0179,8.0837,8.0874,8.3199,8.4636,8.4636,8.5221,8.567,8.5786,8.8522,9.0113,9.0294,9.4228,9.6996,9.8566,9.8566,9.8566,9.8566,9.8566,9.8566,9.8566,9.8641,10.0455,10.3242,10.2315,10.3138,10.4953,10.3951,10.4614,10.6035,10.6035,10.7007,10.784,10.4764,10.3632,10.3632,10.3632,10.3632,10.3941,10.5586,10.6035,10.6718,10.9784,11.1942,11.3651,11.5158,11.6878,11.816,11.816,11.816,11.816,11.816,11.816,11.816,11.816,11.816,11.816,11.816,11.816,11.816,11.816,11.816,11.816,11.816,11.816,11.816,11.816,11.816,11.816,11.816,11.816,11.816,11.816,11.816,11.816,11.816,11.816,11.816,11.816,11.816,11.816,11.816,11.816,11.816,11.816,11.816,11.816,5.3621,5.3621,5.3621,5.3621,5.3621,5.3621,5.3621,5.3621,5.3621,5.3621,5.4294,5.5051,5.5491,5.6247,5.732,5.8632,6.0425,6.2376,6.4451,6.6832,6.8751,6.9879,7.1705,7.3487,7.5068,7.5274,7.6406,7.8956,7.9745,8.0485,8.1484,8.1771,8.2547,8.4018,8.5085,8.6814,8.9357,9.085,9.289,9.5565,9.7051,9.7812,9.7812,9.8281,9.8547,9.8591,9.8521,9.9239,10.0286,9.9881,10.1001,10.2902,10.2526,10.3223,10.4315,10.4315,10.4689,10.4821,10.2659,10.1926,10.1926,10.1926,10.1926,10.2,10.2604,10.2826,10.3139,10.4831,10.6488,10.8059,10.9165,11.2241,11.5083,11.5083,11.6653,11.816,11.816,11.816,11.816,11.816,11.816,11.816,11.816,11.816,11.816,11.816,11.7655,11.73,11.73,11.6817,11.6703,11.7261,11.73,11.7555,11.8126,11.816,11.816,11.816,11.816,11.816,11.816,11.816,11.7888,11.7314,11.73,11.6998,11.6438,11.6438,11.6438,11.6438,11.6438,11.6438,5.1883,5.2341,5.2883,5.2493,5.3061,5.3621,5.3621,5.3621,5.3621,5.3621,5.4353,5.4909,5.4909,5.5633,5.6357,5.6797,5.7964,5.9733,6.2314,6.379,6.5365,6.7516,6.9112,7.0622,7.2195,7.1623,7.2441,7.561,7.6648,7.7768,7.9264,7.9667,8.0595,8.2034,8.2325,8.3661,8.6261,8.7094,8.8543,9.0685,9.3338,9.4641,9.4653,9.623,9.6403,9.5355,9.427,9.5071,9.7044,9.8102,9.9414,10.0769,10.0733,10.1435,10.2343,10.2373,10.1903,10.1108,9.9863,9.9453,9.9453,9.9453,9.9453,9.9527,10.0128,10.029,10.061,10.2212,10.354,10.4667,10.5762,10.8473,11.0866,11.0866,11.2516,11.4376,11.5467,11.569,11.6126,11.7432,11.7692,11.7828,11.8126,11.816,11.816,11.816,11.7655,11.7039,11.6453,11.5822,11.5676,11.6318,11.6614,11.7039,11.7655,11.7692,11.7692,11.7692,11.7479,11.7274,11.7274,11.7274,11.6971,11.6378,11.6378,11.6028,11.5443,11.5443,11.5443,11.5443,11.5443,11.5443,4.8378,4.9809,5.1333,5.0174,5.1698,5.3455,5.3455,5.3513,5.3538,5.3562,5.3621,5.3621,5.3621,5.3621,5.4086,5.5317,5.6597,5.8261,6.073,6.2219,6.3535,6.4719,6.6132,6.7972,7.0423,6.9414,6.925,7.0689,7.4014,7.6532,7.8043,7.9111,7.9692,7.9779,8.0404,8.0759,8.0845,8.307,8.4223,8.437,8.7466,8.9034,8.9267,9.2319,9.2007,8.8948,8.5843,8.7963,9.3876,9.6918,9.8337,9.8571,9.8524,9.922,10.019,10.0127,9.8764,9.6845,9.6303,9.6142,9.6142,9.6142,9.6142,9.645,9.8105,9.856,9.9234,10.2433,10.3344,10.3711,10.5372,10.5887,10.596,10.596,10.6034,10.6989,11.0012,11.0731,11.1922,11.58,11.6595,11.6965,11.7849,11.8028,11.8028,11.8103,11.8028,11.7343,11.5496,11.5263,11.5336,11.5336,11.6168,11.6714,11.6803,11.6803,11.6803,11.6803,11.5918,11.5443,11.5443,11.5443,11.5443,11.541,11.541,11.5393,11.5376,11.5376,11.5376,11.5302,11.5302,11.5302,4.9113,4.9794,4.9979,4.8841,4.9076,4.9566,4.9566,5.0199,5.1102,5.2032,5.298,5.3621,5.3621,5.3621,5.3737,5.4145,5.4465,5.5632,5.8237,5.9597,6.1165,6.3363,6.4776,6.5088,6.3885,6.3992,6.5137,6.7563,6.9122,7.0685,7.2192,7.3601,7.5225,7.6997,7.7225,7.8283,8.0114,8.0802,8.1713,8.2809,8.3688,8.5623,8.837,8.8313,8.7339,8.5786,8.4909,8.5514,8.7192,8.804,9.2458,9.8531,9.8573,9.8092,9.7234,9.6084,9.526,9.4704,9.4583,9.4531,9.4531,9.4531,9.4531,9.462,9.507,9.5214,9.5514,9.7012,9.7406,9.7694,9.8693,10.0716,10.2448,10.2448,10.4329,10.6328,10.7268,10.8281,10.9429,11.0527,11.1662,11.2887,11.4249,11.45,11.4943,11.602,11.4309,11.2411,11.1226,11.1137,11.1555,11.2681,11.301,11.3873,11.5684,11.5822,11.5822,11.5822,11.5594,11.5443,11.5443,11.5443,11.5134,11.4499,11.448,11.4188,11.3473,11.3473,11.2897,11.1818,11.1818,11.119,4.5698,4.6234,4.6435,4.5207,4.5753,4.6639,4.7189,4.8192,4.9406,5.0662,5.1908,5.284,5.284,5.3271,5.3621,5.3621,5.3621,5.4342,5.6374,5.723,5.839,6.0444,6.1222,6.1093,5.9563,6.0357,6.1872,6.4038,6.5497,6.7208,6.9307,7.065,7.2309,7.4386,7.4473,7.5327,7.7235,7.7323,7.7997,7.9343,8.016,8.1818,8.3995,8.502,8.5103,8.4588,8.4552,8.458,8.4552,8.4545,8.776,9.2716,9.2733,9.3731,9.5171,9.4206,9.3908,9.389,9.3871,9.3923,9.3921,9.3921,9.3865,9.3881,9.3881,9.3881,9.4011,9.4444,9.46,9.4649,9.5149,9.6648,9.8077,9.8077,9.9579,10.1357,10.2722,10.3722,10.5078,10.7418,10.8654,10.9851,11.1809,11.2151,11.218,11.2372,11.0827,10.9462,10.8922,10.8895,10.9255,11.0171,11.0243,11.0967,11.2789,11.2933,11.2933,11.2933,11.2555,11.2387,11.2387,11.2387,11.2101,11.1632,11.1611,11.1353,11.0832,11.0832,11.0332,10.9454,10.9454,10.7528,4.0349,4.1051,4.1734,4.038,4.186,4.3877,0.0,4.6093,4.7358,4.8526,4.9933,5.102,5.1254,5.238,5.3299,5.3621,5.3621,5.401,5.5048,5.5305,5.5744,5.6655,5.6765,5.681,5.6942,5.7893,5.9116,6.0709,6.2783,6.5182,6.8044,6.9104,7.0389,7.2042,7.211,7.2585,7.3508,7.3508,7.4025,7.5055,7.6912,7.8003,7.8627,8.1962,8.3538,8.3575,8.4279,8.4531,8.4531,8.4586,8.4569,8.4552,8.4545,8.7956,9.2862,9.2832,9.2851,9.2923,9.3639,9.3891,9.3889,9.3889,9.3851,9.3865,9.3847,9.3918,9.3918,9.3899,9.3881,9.3881,9.3881,9.3881,9.3881,9.3881,9.3881,9.4665,9.761,9.8394,9.9992,10.4912,10.6162,10.7178,10.9575,11.0146,10.9641,10.7793,10.7549,10.7549,10.7549,10.7549,10.7549,10.7549,10.7692,10.8112,10.8962,10.9183,10.9255,10.9255,10.8564,10.8048,10.8048,10.8048,10.7977,10.7834,10.7834,10.7763,10.7549,10.7549,10.7477,10.7263,10.7263,10.4123,0.0,0.0,0.0,0.0,0.0,0.0,0.0,3.9296,4.117,4.2454,4.4384,4.6489,4.8525,4.9867,5.1306,5.3299,5.3621,5.3718,5.3962,5.4789,5.5118,5.4385,5.4313,5.4694,5.5652,5.5973,5.7,5.9177,6.0803,6.2886,6.5518,6.6887,6.8679,7.0979,7.1066,7.1525,7.2549,7.2567,7.2941,7.3662,7.4101,7.6141,7.9506,7.7845,7.7057,7.731,8.2373,8.4554,8.4554,8.4564,8.4569,8.4552,8.4545,8.5306,8.6329,8.6356,8.6341,8.7051,9.2135,9.3908,9.3872,9.3872,9.3855,9.3873,9.3925,9.387,9.3923,9.3847,9.3881,9.3881,9.3881,9.3881,9.3881,9.3881,9.3881,9.4023,9.4665,9.5916,9.7206,9.8293,10.0531,10.281,10.4513,10.5917,10.6207,10.4593,10.4296,10.4296,10.4296,10.4296,10.4296,10.4296,10.5458,10.6277,10.6433,10.7599,10.8315,10.8315,10.8176,10.8048,10.8048,10.8048,10.7477,10.6243,10.6172,10.5601,10.4296,10.4296,10.3675,10.241,10.241,10.0412,0.0,0.0,0.0,0.0,0.0,0.0,0.0,0.0,0.0,0.0,0.0,4.3776,4.4466,0.0,4.9447,5.0725,5.1888,5.2922,5.3562,5.4155,5.4324,5.3718,5.3621,5.3865,5.4492,5.5024,5.5905,5.7074,5.8373,6.0243,6.2837,6.4329,6.6273,6.8793,6.9612,7.055,7.1817,7.2183,7.2454,7.2844,7.3758,7.5396,7.7519,7.5927,7.5238,7.5382,7.857,8.1651,8.4569,8.4547,8.4531,8.4587,8.4584,8.4545,8.4579,8.4538,8.453,8.5017,8.8106,8.9222,8.9716,9.2883,9.3863,9.3592,9.1986,9.2654,9.3911,9.3884,9.3868,9.3921,9.3899,9.3881,9.3881,9.3881,9.3881,9.3881,9.3881,9.4541,9.5417,9.6292,9.8271,10.0392,10.1962,10.289,10.3104,10.239,10.2869,10.344,10.344,10.344,10.344,10.344,10.4082,10.4581,10.4581,10.5316,10.5744,10.5744,10.5744,10.5387,10.4623,10.4551,10.3838,10.2319,10.1391,10.0606,9.9893,9.9017,9.8252,9.7467,9.5897,9.4029,0.0,0.0,0.0,0.0,0.0,0.0,0.0,0.0,0.0,0.0,0.0,0.0,0.0,0.0,0.0,4.7747,4.9998,5.2083,5.3097,5.3271,5.3232,5.3276,5.3473,5.3621,5.3621,5.4539,5.5142,5.5375,5.6252,5.7919,6.054,6.201,6.3943,6.6407,6.8237,6.9763,7.0926,7.1447,7.1718,7.1729,7.329,0.0,7.4056,7.4068,7.4023,7.4046,7.4085,7.6909,8.1618,8.1555,8.2296,8.3175,8.2028,8.1605,8.1722,8.2845,8.3271,8.3257,8.3257,8.3252,8.4109,8.9181,9.08,9.0373,8.7799,9.0256,0.0,9.392,9.3693,9.3455,9.3444,9.3295,9.3276,9.3488,9.3526,9.3583,9.3843,9.3881,9.4327,9.5631,9.7201,9.868,9.9984,10.0412,10.0769,10.1055,10.2176,10.3083,10.3369,10.3155,10.2941,10.2941,10.2941,10.2941,10.2941,10.3226,10.344,10.344,10.3155,10.239,10.1126,10.1055,10.0198,9.8323,9.6967,9.5845,9.4988,9.3685,9.2953,9.2882,8.9346,8.709,0.0,0.0,0.0,0.0,0.0,0.0,0.0,0.0,0.0,0.0,0.0,0.0,0.0,0.0,0.0,0.0,4.9377,5.1792,5.1908,5.1908,5.1883,5.175,5.2879,5.3621,5.3621,5.3743,5.43,5.5305,5.5514,5.675,5.9359,6.0697,0.0,0.0,0.0,6.9265,6.9417,6.9548,6.9573,6.9562,6.9809,6.9882,6.9887,6.9853,6.9889,6.9889,6.9859,7.028,7.092,7.0914,7.3979,7.8204,7.2993,7.0909,7.1544,7.676,7.8677,7.8708,7.8708,0.0,0.0,7.9536,7.9746,7.9643,7.9313,8.6063,9.387,9.3884,9.2891,9.1825,9.1803,9.1195,9.0873,9.2067,9.2315,9.2651,9.3621,9.3881,9.3952,9.4113,9.5559,9.6701,9.6915,9.8129,9.9465,10.084,10.1269,10.1819,10.3226,10.2176,10.134,10.134,10.134,0.0,10.134,10.2604,10.344,10.344,10.2105,10.1269,10.1055,10.1055,9.9699,9.6701,9.6506,9.4275,9.0046,8.9832,8.9761,8.9654,8.462,8.1594,0.0,0.0,0.0,0.0,0.0,0.0,0.0,0.0,0.0,0.0,0.0,0.0,0.0,0.0,0.0,0.0,4.5154,4.7247,4.6479,4.8112,4.965,5.0378,5.1614,5.2754,5.3547,5.3621,5.384,5.4372,5.4396,5.5169,5.691,5.885,6.0294,6.1087,6.6379,6.92,6.92,6.92,6.9193,6.9214,6.9214,6.9214,6.9234,6.9209,6.9194,6.9174,6.9214,6.9183,6.9229,6.9207,7.0635,7.259,0.0,0.0,0.0,0.0,7.2849,7.2895,7.2892,7.2849,7.3404,7.6827,7.7969,7.7925,7.7951,8.1102,8.5937,9.2142,9.3399,9.2578,9.114,9.0892,9.1155,9.1686,9.1368,9.1359,9.263,9.2871,9.3049,9.3768,9.5255,0.0,9.4213,9.5886,9.7629,9.8271,9.9128,9.9964,10.0586,10.0107,9.975,9.975,9.975,9.975,9.975,10.0321,0.0,0.0,0.0,9.975,9.975,9.8842,0.0,0.0,0.0,8.897,8.6971,8.54,0.0,0.0,7.9494,7.7203,0.0,0.0,0.0,0.0,0.0,0.0,0.0,0.0,0.0,0.0,0.0,0.0,0.0,0.0,0.0,0.0,4.1052,4.3402,4.1698,4.3971,4.6492,4.8327,5.0086,5.16,5.2921,5.34,5.3621,5.3621,5.3621,5.401,5.486,5.6531,5.7432,5.7432,6.2291,6.4936,6.4936,6.7778,6.92,6.92,6.92,6.92,6.92,6.92,6.92,6.92,6.92,6.92,6.9178,6.9175,6.9216,6.9175,6.9178,6.92,6.92,6.9189,6.9195,6.9232,6.9199,6.9199,6.9898,7.415,7.5507,7.5532,7.5576,7.5569,7.7148,8.4933,8.939,9.1462,8.9709,8.909,8.9279,9.0585,9.038,9.0196,9.1359,9.1574,9.1808,9.2681,9.3253,9.2842,9.0738,9.2378,9.4128,9.4626,9.5886,9.7091,9.7966,9.7681,9.761,9.8038,9.8109,9.8109,9.8109,9.8466,9.8751,9.8751,9.8323,9.7895,9.7448,9.6325,9.4399,9.158,8.7848,8.5367,0.0,0.0,0.0,0.0,0.0,0.0,0.0,0.0,0.0,0.0,0.0,0.0,0.0,0.0,0.0,0.0,0.0,0.0,0.0,0.0,0.0,0.0,0.0,0.0,3.8983,4.0136,4.23,4.5284,4.8218,5.0392,5.1443,5.2854,5.3621,5.3621,5.3621,5.3645,5.3694,5.3752,5.3835,5.3835,5.4016,5.4147,5.4147,6.415,6.92,6.92,6.92,6.92,6.92,6.92,6.92,6.92,6.92,6.92,6.92,6.9178,6.9178,6.9178,6.92,6.92,6.92,6.9178,6.9222,6.9222,6.9178,6.922,6.9259,6.9441,6.9483,6.9479,6.9441,6.9462,6.9545,6.9918,7.8143,8.6886,8.6794,8.4656,8.364,8.8071,8.9106,8.9248,9.0058,9.0242,9.0242,9.0288,8.8126,8.6213,8.6101,8.7096,8.8499,8.9975,9.1091,0.0,9.6059,9.5041,9.4684,9.6273,9.6506,9.6506,9.6506,9.7914,9.8751,9.8751,9.7343,9.5773,9.4095,9.3952,9.3239,9.158,8.8926,8.5522,8.1383,0.0,0.0,0.0,0.0,0.0,0.0,0.0,0.0,0.0,0.0,0.0,0.0,0.0,0.0,0.0,0.0,0.0,0.0,0.0,0.0,0.0,0.0,0.0,0.0,3.6097,3.9033,4.0854,4.3963,4.6474,4.7793,4.9138,4.9889,4.9889,5.0613,5.1338,5.194,5.1415,5.1844,5.3562,5.3621,5.3621,5.3621,5.7108,5.8921,5.8969,6.5919,6.92,6.92,6.92,6.92,6.92,6.92,6.92,6.92,6.92,6.6987,6.3503,6.3503,6.3503,6.3503,6.3503,6.5935,6.92,6.92,6.92,6.9178,6.9178,6.6647,6.3512,6.3513,6.3509,6.4327,6.815,7.208,7.5114,7.5114,8.0142,8.5564,8.7113,8.6473,8.5917,8.7194,8.6784,8.6443,8.7193,8.4324,8.2109,8.3152,8.3518,8.4754,8.8009,8.7907,8.8573,9.1276,9.2044,9.2597,9.3096,9.4113,9.4755,9.4755,9.4494,9.4678,9.5483,9.2599,9.1023,9.1308,8.9563,8.7846,8.629,8.5388,8.2403,7.7242,0.0,0.0,0.0,0.0,0.0,0.0,0.0,0.0,0.0,0.0,0.0,0.0,0.0,0.0,0.0,0.0,0.0,0.0,0.0,0.0,0.0,0.0,0.0,0.0,0.0,0.0,3.9081,4.1409,0.0,4.4606,4.5625,4.6209,4.6209,4.7081,4.7436,4.6871,4.9566,5.193,5.3567,5.3641,5.3621,5.3621,5.3621,5.3621,5.3728,6.0435,6.3668,6.3736,6.539,6.725,6.92,6.92,6.8017,6.6132,6.6132,6.2969,5.8168,5.8168,5.8168,5.8168,5.8168,6.1564,6.6127,6.6127,6.617,6.6124,6.6124,6.3628,6.106,6.308,6.3729,6.4461,6.8162,6.7713,6.6168,6.6148,7.3273,8.1522,8.5679,8.4145,8.2373,8.4767,8.3925,8.2645,8.236,8.0149,7.8638,7.9596,8.001,8.0826,8.2951,8.3055,8.3923,8.6679,8.8709,9.0296,9.1437,9.2953,9.3881,9.3881,9.3147,9.2836,9.3059,9.0355,8.8386,8.7577,8.5938,8.3899,8.1279,8.0817,7.8106,0.0,0.0,0.0,0.0,0.0,0.0,0.0,0.0,0.0,0.0,0.0,0.0,0.0,0.0,0.0,0.0,0.0,0.0,0.0,0.0,0.0,0.0,0.0,0.0,0.0,0.0,0.0,3.9167,4.0072,0.0,0.0,0.0,0.0,4.2546,4.3118,4.2144,3.9201,4.8081,5.3245,5.3267,5.325,5.3388,5.3621,5.3621,5.3621,5.3621,5.3621,5.3621,5.3792,5.8273,6.3286,6.8456,6.8653,6.5672,6.0629,6.0418,5.7639,5.3645,5.3636,5.3495,5.3271,5.3271,5.6211,6.0357,6.0587,6.0687,6.0663,6.0663,6.0684,6.1663,6.6846,6.8207,0.0,0.0,6.485,6.111,6.1085,6.5152,7.2013,8.3162,8.1745,7.8946,8.2685,8.1573,7.8976,7.6041,7.5425,7.5359,7.5359,0.0,7.6423,7.5271,7.6806,7.9235,8.2413,8.5065,8.7819,9.0934,9.2718,9.3716,9.3659,9.3716,9.3022,9.1578,9.023,8.7659,8.3415,8.32,8.1156,7.6888,7.5503,0.0,0.0,0.0,0.0,0.0,0.0,0.0,0.0,0.0,0.0,0.0,0.0,0.0,0.0,0.0,0.0,0.0,0.0,0.0,0.0,0.0,0.0,0.0,0.0,0.0,0.0,2.743,2.9075,3.1449,3.3232,3.4116,0.0,0.0,0.0,0.0,0.0,0.0,3.8605,4.4491,4.7885,4.7831,4.7849,4.9697,5.3621,5.3621,5.3621,5.3621,5.3621,5.3621,5.3669,5.4871,5.6224,5.7825,6.1325,6.201,6.0399,5.6858,5.4765,5.3636,5.364,5.1257,4.7835,4.7835,5.1107,5.5993,5.9773,6.1042,6.1106,6.1106,6.1057,6.062,5.8324,0.0,0.0,0.0,0.0,6.7039,6.7014,6.8061,6.9989,7.2941,7.5848,7.8191,7.9215,7.781,7.5219,7.1611,6.9769,6.8981,6.9244,6.9525,0.0,7.3211,7.4097,7.5779,7.9596,8.1713,8.3938,8.6897,8.9513,9.1059,9.1111,9.0974,9.0667,9.0295,8.5928,8.3411,8.3465,7.9455,7.6375,7.4582,0.0,0.0,0.0,0.0,0.0,0.0,0.0,0.0,0.0,0.0,0.0,0.0,0.0,0.0,0.0,0.0,0.0,0.0,0.0,0.0,0.0,0.0,0.0,0.0,0.0,0.0,0.0,2.4694,2.645,2.8171,2.7992,2.7894,0.0,0.0,0.0,0.0,0.0,0.0,0.0,0.0,0.0,3.9818,4.5978,4.9581,5.0221,5.0244,5.1408,5.3621,5.3621,5.3621,5.3621,5.3621,5.3621,5.3792,5.6415,5.6278,5.402,5.1357,5.0244,5.0231,0.0,0.0,0.0,0.0,4.6288,4.7333,5.0175,5.4128,5.7934,5.7934,0.0,0.0,0.0,0.0,0.0,0.0,0.0,5.95,6.1755,6.5779,6.9176,6.92,7.3672,7.7927,7.7948,7.5048,7.1351,6.7468,6.5911,6.5223,6.5208,6.5187,0.0,0.0,0.0,7.2411,7.6047,7.8812,8.1534,8.4481,8.7381,8.9175,8.9255,8.9119,8.8184,8.6296,8.3231,8.0739,7.9066,7.6088,7.2676,0.0,0.0,0.0,0.0,0.0,0.0,0.0,0.0,0.0,0.0,0.0,0.0,0.0,0.0,0.0,0.0,0.0,0.0,0.0,0.0,0.0,0.0,0.0,0.0,0.0,0.0,0.0,0.0,0.0,2.4951,2.6172,0.0,0.0,0.0,0.0,0.0,0.0,0.0,0.0,0.0,0.0,0.0,0.0,0.0,4.8619,4.4099,4.4643,4.7527,5.2631,5.2631,5.2631,5.2631,5.3329,5.3621,5.3621,5.3621,0.0,4.6766,4.5456,0.0,0.0,0.0,0.0,0.0,0.0,0.0,0.0,0.0,0.0,0.0,0.0,0.0,0.0,0.0,0.0,0.0,0.0,0.0,0.0,0.0,0.0,6.8997,6.8259,7.2521,7.6205,7.4129,6.9722,6.5533,6.3588,6.2515,6.1962,0.0,0.0,0.0,0.0,0.0,0.0,7.1984,7.5871,7.9658,8.2768,8.5595,8.7334,8.7564,8.7309,8.5467,8.1417,8.1132,7.8685,7.3289,7.3229,0.0,0.0,0.0,0.0,0.0,0.0,0.0,0.0,0.0,0.0,0.0,0.0,0.0,0.0,0.0,0.0,0.0,0.0,0.0,0.0,0.0,0.0,0.0,0.0,0.0,0.0,0.0,0.0,0.0,0.0,0.0,0.0,0.0,0.0,0.0,0.0,0.0,0.0,0.0,0.0,0.0,0.0,0.0,0.0,0.0,0.0,0.0,0.0,0.0,0.0,4.7231,4.7231,4.7348,5.1699,5.3621,5.3621,5.3621,5.3097,5.1628,4.3128,0.0,0.0,0.0,0.0,0.0,0.0,0.0,0.0,0.0,0.0,0.0,0.0,0.0,0.0,0.0,0.0,0.0,0.0,0.0,0.0,0.0,0.0,6.8018,6.3271,6.6558,6.7192,5.4271,0.0,0.0,0.0,0.0,0.0,0.0,0.0,0.0,0.0,0.0,0.0,6.807,7.1947,7.6171,8.0284,8.2116,8.3584,8.4914,8.3492,8.1825,7.9945,7.7392,7.5063,0.0,0.0,0.0,0.0,0.0,0.0,0.0,0.0,0.0,0.0,0.0,0.0,0.0,0.0,0.0,0.0,0.0,0.0,0.0,0.0,0.0,0.0,0.0,0.0,0.0,0.0,0.0,0.0,0.0,0.0,0.0,0.0,0.0,0.0,0.0,0.0,0.0,0.0,0.0,0.0,0.0,0.0,0.0,0.0,0.0,0.0,0.0,0.0,0.0,0.0,0.0,0.0,0.0,0.0,0.0,0.0,0.0,0.0,4.8512,4.5592,0.0,0.0,0.0,0.0,0.0,0.0,0.0,0.0,0.0,0.0,0.0,0.0,0.0,0.0,0.0,0.0,0.0,0.0,0.0,0.0,0.0,0.0,0.0,0.0,0.0,0.0,0.0,0.0,0.0,0.0,0.0,0.0,0.0,0.0,0.0,0.0,0.0,0.0,0.0,0.0,6.5758,6.9835,7.3936,7.7463,7.8421,7.9711,8.1961,7.9899,7.7905,7.6579,7.4284,0.0,0.0,0.0,0.0,0.0,0.0,0.0,0.0,0.0,0.0,0.0,0.0,0.0,0.0,0.0,0.0,0.0,0.0,0.0,0.0,0.0,0.0,0.0,0.0,0.0,0.0,0.0,0.0,0.0,0.0,0.0,0.0,0.0,0.0,0.0,0.0,0.0,0.0,0.0,0.0,0.0,0.0,0.0,0.0,0.0,0.0,0.0,0.0,0.0,0.0,0.0,0.0,0.0,0.0,0.0,0.0,0.0,0.0,0.0,3.9852,3.4975,0.0,0.0,0.0,0.0,0.0,0.0,0.0,0.0,0.0,0.0,0.0,0.0,0.0,0.0,0.0,0.0,0.0,0.0,0.0,0.0,0.0,0.0,0.0,0.0,0.0,0.0,0.0,0.0,0.0,0.0,0.0,0.0,0.0,0.0,0.0,0.0,0.0,0.0,0.0,0.0,6.372,6.841,7.2489,7.5096,7.5359,7.6411,7.8976,7.6567,7.4241,7.2837,7.1107,0.0,0.0,0.0,0.0,0.0,0.0,0.0,0.0,0.0,0.0,0.0,0.0,0.0,0.0,0.0,0.0,0.0,0.0,0.0,0.0,0.0,0.0,0.0,0.0,0.0,0.0,0.0,0.0,0.0,0.0,0.0,0.0,0.0,0.0,0.0,0.0,0.0,0.0,0.0,0.0,0.0,0.0,0.0,0.0,0.0,0.0,0.0,0.0,0.0,0.0,0.0,0.0,0.0,0.0,0.0,0.0,0.0,0.0,0.0,0.0,0.0,0.0,0.0,0.0,0.0,0.0,0.0,0.0,0.0,0.0,0.0,0.0,0.0,0.0,0.0,0.0,0.0,0.0,0.0,0.0,0.0,0.0,0.0,0.0,0.0,0.0,0.0,0.0,0.0,0.0,0.0,0.0,0.0,0.0,0.0,0.0,0.0,0.0,0.0,0.0,0.0,6.1043,6.716,7.216,7.3715,7.3889,7.4504,7.6106,7.3541,7.1239,6.9726,0.0,0.0,0.0,0.0,0.0,0.0,0.0,0.0,0.0,0.0,0.0,0.0,0.0,0.0,0.0,0.0,0.0,0.0,0.0,0.0,0.0,0.0,0.0,0.0,0.0,0.0,0.0,0.0,0.0,0.0,0.0,0.0,0.0,0.0,0.0,0.0,0.0,0.0,0.0,0.0,0.0,0.0,0.0,0.0,0.0,0.0,0.0,0.0,0.0,0.0,0.0,0.0,0.0,0.0,0.0,0.0,0.0,0.0,0.0,0.0,0.0,0.0,0.0,0.0,0.0,0.0,0.0,0.0,0.0,0.0,0.0,0.0,0.0,0.0,0.0,0.0,0.0,0.0,0.0,0.0,0.0,0.0,0.0,0.0,0.0,0.0,0.0,0.0,0.0,0.0,0.0,0.0,0.0,0.0,0.0,0.0,0.0,0.0,0.0,0.0,0.0,0.0,6.0394,6.545,6.9792,7.216,7.0756,7.1019,7.4241,7.1808,6.9507,6.7994,0.0,0.0,0.0,0.0,0.0,0.0,0.0,0.0,0.0,0.0,0.0,0.0,0.0,0.0,0.0,0.0,0.0,0.0,0.0,0.0,0.0,0.0,0.0,0.0,0.0,0.0,0.0,0.0,0.0,0.0,0.0,0.0,0.0,0.0,0.0,0.0,0.0,0.0,0.0,0.0,0.0,0.0,0.0,0.0,0.0,0.0,0.0,0.0,0.0,0.0,0.0,0.0,0.0,0.0,0.0,0.0,0.0,0.0,0.0,0.0,0.0,0.0,0.0,0.0,0.0,0.0,0.0,0.0,0.0,0.0,0.0,0.0,0.0,0.0,0.0,0.0,0.0,0.0,0.0,0.0,0.0,0.0,0.0,0.0,0.0,0.0,0.0,0.0,0.0,0.0,0.0,0.0,0.0,0.0,0.0,0.0,0.0,0.0,0.0,0.0,0.0,0.0,5.9728,6.4235,6.8016,7.0581,6.8213,6.7863,7.1414,6.9813,6.76,6.5319,0.0,0.0,0.0,0.0,0.0,0.0,0.0,0.0,0.0,0.0,0.0,0.0,0.0,0.0,0.0,0.0,0.0,0.0,0.0,0.0,0.0,0.0,0.0,0.0,0.0,0.0,0.0,0.0,0.0,0.0,0.0,0.0,0.0,0.0,0.0,0.0,0.0,0.0,0.0,0.0,0.0,0.0,0.0,0.0,0.0,0.0,0.0,0.0,0.0,0.0,0.0,0.0,0.0,0.0,0.0,0.0,0.0,0.0,0.0,0.0,0.0,0.0,0.0,0.0,0.0,0.0,0.0,0.0,0.0,0.0,0.0,0.0,0.0,0.0,0.0,0.0,0.0,0.0,0.0,0.0,0.0,0.0,0.0,0.0,0.0,0.0,0.0,0.0,0.0,0.0,0.0,0.0,0.0,0.0,0.0,0.0,0.0,0.0,0.0,0.0,0.0,0.0,5.8795,6.3779,6.76,6.9069,6.6658,6.5561,6.7008,6.7095,6.5253,0.0,0.0,0.0,0.0,0.0,0.0,0.0,0.0,0.0,0.0,0.0,0.0,0.0,0.0,0.0,0.0,0.0,0.0,0.0,0.0,0.0,0.0,0.0,0.0,0.0,0.0,0.0,0.0,0.0,0.0,0.0,0.0,0.0,0.0,0.0,0.0,0.0,0.0,0.0,0.0,0.0,0.0,0.0,0.0,0.0,0.0,0.0,0.0,0.0,0.0,0.0,0.0,0.0,0.0,0.0,0.0,0.0,0.0,0.0,0.0,0.0,0.0,0.0,0.0,0.0,0.0,0.0,0.0,0.0,0.0,0.0,0.0,0.0,0.0,0.0,0.0,0.0,0.0,0.0,0.0,0.0,0.0,0.0,0.0,0.0,0.0,0.0,0.0,0.0,0.0,0.0,0.0,0.0,0.0,0.0,0.0,0.0,0.0,0.0,0.0,0.0,0.0,0.0,5.7109,6.0,6.3568,6.8675,6.5758,6.4464,6.6832,6.7095,6.4772,5.9493,0.0,0.0,0.0,0.0,0.0,0.0,0.0,0.0,0.0,0.0,0.0,0.0,0.0,0.0,0.0,0.0,0.0,0.0,0.0,0.0,0.0,0.0,0.0,0.0,0.0,0.0,0.0,0.0,0.0,0.0,0.0,0.0,0.0,0.0,0.0,0.0,0.0,0.0,0.0,0.0,0.0,0.0,0.0,0.0,0.0,0.0,0.0,0.0,0.0,0.0,0.0,0.0,0.0,0.0,0.0,0.0,0.0,0.0,0.0,0.0,0.0,0.0,0.0,0.0,0.0,0.0,0.0,0.0,0.0,0.0,0.0,0.0,0.0,0.0,0.0,0.0,0.0,0.0,0.0,0.0,0.0,0.0,0.0,0.0,0.0,0.0,0.0,0.0,0.0,0.0,0.0,0.0,0.0,0.0,0.0,0.0,0.0,0.0,0.0,0.0,0.0,0.0,0.0,5.8549,6.2328,6.7055,6.4246,6.2885,6.5253,6.5976,6.3786,5.8065,0.0,0.0,0.0,0.0,0.0,0.0,0.0,0.0,0.0,0.0,0.0,0.0,0.0,0.0,0.0,0.0,0.0,0.0,0.0,0.0,0.0,0.0,0.0,0.0,0.0,0.0,0.0,0.0,0.0,0.0,0.0,0.0,0.0,0.0,0.0,0.0,0.0,0.0,0.0,0.0,0.0,0.0,0.0,0.0,0.0,0.0,0.0,0.0,0.0,0.0,0.0,0.0,0.0,0.0,0.0,0.0,0.0,0.0,0.0,0.0,0.0,0.0,0.0,0.0,0.0,0.0,0.0,0.0,0.0,0.0,0.0,0.0,0.0,0.0,0.0,0.0,0.0,0.0,0.0,0.0,0.0,0.0,0.0,0.0,0.0,0.0,0.0,0.0,0.0,0.0,0.0,0.0,0.0,0.0,0.0,0.0,0.0,0.0,0.0,0.0,0.0,0.0,0.0,5.8707,6.3023,6.4752,6.2339,6.124,6.2641,6.4003,6.2339,5.6719,5.6259,0.0,0.0,0.0,0.0,0.0,0.0,0.0,0.0,0.0,0.0,0.0,0.0,0.0,0.0,0.0,0.0,0.0,0.0,0.0,0.0,0.0,0.0,0.0,0.0,0.0,0.0,0.0,0.0,0.0,0.0,0.0,0.0,0.0,0.0,0.0,0.0,0.0,0.0,0.0,0.0,0.0,0.0,0.0,0.0,0.0,0.0,0.0,0.0,0.0,0.0,0.0,0.0,0.0,0.0,0.0,0.0,0.0,0.0,0.0,0.0,0.0,0.0,0.0,0.0,0.0,0.0,0.0,0.0,0.0,0.0,0.0,0.0,0.0,0.0,0.0,0.0,0.0,0.0,0.0,0.0,0.0,0.0,0.0,0.0,0.0,0.0,0.0,0.0,0.0,0.0,0.0,0.0,0.0,0.0,0.0,0.0,0.0,0.0,0.0,0.0,0.0,0.0,5.6795,6.0001,6.4428,6.2339,6.124,6.2641,6.3102,6.1325,5.6654,5.5237,0.0,0.0,0.0,0.0,0.0,0.0,0.0,0.0,0.0,0.0,0.0,0.0,0.0,0.0,0.0,0.0,0.0,0.0,0.0,0.0,0.0,0.0,0.0,0.0,0.0,0.0,0.0,0.0,0.0,0.0,0.0,0.0,0.0,0.0,0.0,0.0,0.0,0.0,0.0,0.0,0.0,0.0,0.0,0.0,0.0,0.0,0.0,0.0,0.0,0.0,0.0,0.0,0.0,0.0,0.0,0.0,0.0,0.0,0.0,0.0,0.0,0.0,0.0,0.0,0.0,0.0,0.0,0.0,0.0,0.0,0.0,0.0,0.0,0.0,0.0,0.0,0.0,0.0,0.0,0.0,0.0,0.0,0.0,0.0,0.0,0.0,0.0,0.0,0.0,0.0,0.0,0.0,0.0,0.0,0.0,0.0,0.0,0.0,0.0,0.0,0.0,0.0,5.1736,5.497,6.1283,6.1155,6.0977,6.1701,6.2444,6.0648,5.5632,5.3313,0.0,0.0,0.0,0.0,0.0,0.0,0.0,0.0,0.0,0.0,0.0,0.0,0.0,0.0,0.0,0.0,0.0,0.0,0.0,0.0,0.0,0.0,0.0,0.0,0.0,0.0,0.0,0.0,0.0,0.0,0.0,0.0,0.0,0.0,0.0,0.0,0.0,0.0,0.0,0.0,0.0,0.0,0.0,0.0,0.0,0.0,0.0,0.0,0.0,0.0,0.0,0.0,0.0,0.0,0.0,0.0,0.0,0.0,0.0,0.0,0.0,0.0,0.0,0.0,0.0,0.0,0.0,0.0,0.0,0.0,0.0,0.0,0.0,0.0,0.0,0.0,0.0,0.0,0.0,0.0,0.0,0.0,0.0,0.0,0.0,0.0,0.0,0.0,0.0,0.0,0.0,0.0,0.0,0.0,0.0,0.0,0.0,0.0,0.0,0.0,0.0,0.0,0.0,5.0408,5.7228,5.9586,6.0648,6.0648,6.1767,6.0056,5.4414,0.0,0.0,0.0,0.0,0.0,0.0,0.0,0.0,0.0,0.0,0.0,0.0,0.0,0.0,0.0,0.0,0.0,0.0,0.0,0.0,0.0,0.0,0.0,0.0,0.0,0.0,0.0,0.0,0.0,0.0,0.0,0.0,0.0,0.0,0.0,0.0,0.0,0.0,0.0,0.0,0.0,0.0,0.0,0.0,0.0,0.0,0.0,0.0,0.0,0.0,0.0,0.0,0.0,0.0,0.0,0.0,0.0,0.0,0.0,0.0,0.0,0.0,0.0,0.0,0.0,0.0,0.0,0.0,0.0,0.0,0.0,0.0,0.0,0.0,0.0,0.0,0.0,0.0,0.0,0.0,0.0,0.0,0.0,0.0,0.0,0.0,0.0,0.0,0.0,0.0,0.0,0.0,0.0,0.0,0.0,0.0,0.0,0.0,0.0,0.0,0.0,0.0,0.0,0.0,5.1584,5.5132,5.8629,6.0648,6.0648,6.0827,5.8985,5.4348,0.0,0.0,0.0,0.0,0.0,0.0,0.0,0.0,0.0,0.0,0.0,0.0,0.0,0.0]}]]]